<?xml version="1.0" encoding="UTF-8" standalone="no" ?>
<gpx xmlns="http://www.topografix.com/GPX/1/1" xmlns:xsi="http://www.w3.org/2001/XMLSchema-instance" xsi:schemaLocation="http://www.topografix.com/GPX/1/1 http://www.topografix.com/GPX/1/1/gpx.xsd" version="1.1" creator="VisuGPX - https://www.visugpx.com">
  <metadata>
    <name>la ronde des lacs 2012.  50kms</name>
    <desc><![CDATA[Randi au départ d aydat, permiere partie roulante puis ludique sur la deuxième moitié 
]]></desc>
  </metadata>
  <wpt lat="45.64769" lon="2.85679">
    <ele>1204</ele>
    <name><![CDATA[WPT001]]></name>
    <desc><![CDATA[]]></desc>
    <type><![CDATA[Photo]]></type>
  </wpt>
  <trk>
    <name><![CDATA[2012-09-02 09:14]]></name>
    <desc><![CDATA[<h1>OruxMaps</h1><br /><hr align="center" width="480" style="height: 2px; width: 517px"/><h2>Nom: 2012-09-02 09:14</h2><br /><p>Temps de départ: 09/02/2012 09:14</p><p>Temps d'arrivée: 09/02/2012 12:53</p><p>Distance: 48,1 km (03:36)</p><p>Temps déplacement: 02:23</p><p>Vitesse moyenne: 13,3 km/h</p><p>Vitesse moyenne: 20,1 km/h</p><p>Vitess Max.: 56 km/h</p><p>Altitude minimale: 817 m</p><p>Altitude maximale: 1212 m</p><p>Vitesse d'élévation: 556,6 m/h</p><p>Vitesse de descente: -915,4 m/h</p><p>Gain Altitude: 1091 m</p><p>Perte Altitude: -1119 m</p><p>Temps d'élévation: 01:57</p><p>Temps de descente: 01:13</p><hr align="center" width="480" style="height: 2px; width: 517px"/>]]></desc>
    <trkseg>
      <trkpt lat="45.66757" lon="2.98234">
        <ele>886.509</ele>
        <time>2012-09-02T07:17:21Z</time>
      </trkpt>
      <trkpt lat="45.6676" lon="2.98204">
        <ele>881.9113</ele>
        <time>2012-09-02T07:17:26Z</time>
      </trkpt>
      <trkpt lat="45.66734" lon="2.98202">
        <ele>856.926</ele>
        <time>2012-09-02T07:17:36Z</time>
      </trkpt>
      <trkpt lat="45.66714" lon="2.98212">
        <ele>855.9729</ele>
        <time>2012-09-02T07:17:44Z</time>
      </trkpt>
      <trkpt lat="45.66697" lon="2.98199">
        <ele>845.3387</ele>
        <time>2012-09-02T07:18:16Z</time>
      </trkpt>
      <trkpt lat="45.66678" lon="2.9821">
        <ele>853.27167</ele>
        <time>2012-09-02T07:22:53Z</time>
      </trkpt>
      <trkpt lat="45.66657" lon="2.98212">
        <ele>853.4773</ele>
        <time>2012-09-02T07:23:00Z</time>
      </trkpt>
      <trkpt lat="45.66638" lon="2.98206">
        <ele>853.50336</ele>
        <time>2012-09-02T07:23:06Z</time>
      </trkpt>
      <trkpt lat="45.66617" lon="2.98206">
        <ele>854.0858</ele>
        <time>2012-09-02T07:23:11Z</time>
      </trkpt>
      <trkpt lat="45.66597" lon="2.98219">
        <ele>854.3751</ele>
        <time>2012-09-02T07:23:15Z</time>
      </trkpt>
      <trkpt lat="45.66576" lon="2.98221">
        <ele>853.783</ele>
        <time>2012-09-02T07:23:19Z</time>
      </trkpt>
      <trkpt lat="45.66561" lon="2.98206">
        <ele>853.18713</ele>
        <time>2012-09-02T07:23:22Z</time>
      </trkpt>
      <trkpt lat="45.66547" lon="2.98189">
        <ele>852.5451</ele>
        <time>2012-09-02T07:23:25Z</time>
      </trkpt>
      <trkpt lat="45.66534" lon="2.98167">
        <ele>851.6961</ele>
        <time>2012-09-02T07:23:28Z</time>
      </trkpt>
      <trkpt lat="45.6652" lon="2.98144">
        <ele>851.0098</ele>
        <time>2012-09-02T07:23:31Z</time>
      </trkpt>
      <trkpt lat="45.66506" lon="2.98122">
        <ele>850.7203</ele>
        <time>2012-09-02T07:23:34Z</time>
      </trkpt>
      <trkpt lat="45.6649" lon="2.98103">
        <ele>850.02</ele>
        <time>2012-09-02T07:23:37Z</time>
      </trkpt>
      <trkpt lat="45.66476" lon="2.98086">
        <ele>849.7246</ele>
        <time>2012-09-02T07:23:40Z</time>
      </trkpt>
      <trkpt lat="45.66461" lon="2.98069">
        <ele>849.02185</ele>
        <time>2012-09-02T07:23:43Z</time>
      </trkpt>
      <trkpt lat="45.66447" lon="2.98049">
        <ele>848.1472</ele>
        <time>2012-09-02T07:23:46Z</time>
      </trkpt>
      <trkpt lat="45.66433" lon="2.98032">
        <ele>847.34076</ele>
        <time>2012-09-02T07:23:49Z</time>
      </trkpt>
      <trkpt lat="45.66416" lon="2.98015">
        <ele>845.65106</ele>
        <time>2012-09-02T07:23:53Z</time>
      </trkpt>
      <trkpt lat="45.66398" lon="2.98002">
        <ele>844.87036</ele>
        <time>2012-09-02T07:23:57Z</time>
      </trkpt>
      <trkpt lat="45.66377" lon="2.97993">
        <ele>844.62335</ele>
        <time>2012-09-02T07:24:01Z</time>
      </trkpt>
      <trkpt lat="45.66356" lon="2.97987">
        <ele>844.54517</ele>
        <time>2012-09-02T07:24:05Z</time>
      </trkpt>
      <trkpt lat="45.66335" lon="2.97978">
        <ele>844.52045</ele>
        <time>2012-09-02T07:24:09Z</time>
      </trkpt>
      <trkpt lat="45.66317" lon="2.97959">
        <ele>844.51263</ele>
        <time>2012-09-02T07:24:13Z</time>
      </trkpt>
      <trkpt lat="45.66301" lon="2.97935">
        <ele>844.07263</ele>
        <time>2012-09-02T07:24:17Z</time>
      </trkpt>
      <trkpt lat="45.66287" lon="2.9791">
        <ele>843.1092</ele>
        <time>2012-09-02T07:24:21Z</time>
      </trkpt>
      <trkpt lat="45.66274" lon="2.9789">
        <ele>842.1841</ele>
        <time>2012-09-02T07:24:24Z</time>
      </trkpt>
      <trkpt lat="45.66258" lon="2.97867">
        <ele>841.1445</ele>
        <time>2012-09-02T07:24:28Z</time>
      </trkpt>
      <trkpt lat="45.66243" lon="2.97843">
        <ele>840.13196</ele>
        <time>2012-09-02T07:24:32Z</time>
      </trkpt>
      <trkpt lat="45.66228" lon="2.97824">
        <ele>838.585</ele>
        <time>2012-09-02T07:24:36Z</time>
      </trkpt>
      <trkpt lat="45.66212" lon="2.97807">
        <ele>837.2713</ele>
        <time>2012-09-02T07:24:40Z</time>
      </trkpt>
      <trkpt lat="45.66197" lon="2.97785">
        <ele>836.7502</ele>
        <time>2012-09-02T07:24:44Z</time>
      </trkpt>
      <trkpt lat="45.66183" lon="2.97764">
        <ele>836.5853</ele>
        <time>2012-09-02T07:24:48Z</time>
      </trkpt>
      <trkpt lat="45.6617" lon="2.97742">
        <ele>837.21674</ele>
        <time>2012-09-02T07:24:52Z</time>
      </trkpt>
      <trkpt lat="45.66158" lon="2.97721">
        <ele>836.7329</ele>
        <time>2012-09-02T07:24:56Z</time>
      </trkpt>
      <trkpt lat="45.66151" lon="2.97695">
        <ele>837.01733</ele>
        <time>2012-09-02T07:25:00Z</time>
      </trkpt>
      <trkpt lat="45.66148" lon="2.97669">
        <ele>837.35345</ele>
        <time>2012-09-02T07:25:04Z</time>
      </trkpt>
      <trkpt lat="45.66143" lon="2.97639">
        <ele>837.4721</ele>
        <time>2012-09-02T07:25:09Z</time>
      </trkpt>
      <trkpt lat="45.66139" lon="2.97614">
        <ele>837.4973</ele>
        <time>2012-09-02T07:25:13Z</time>
      </trkpt>
      <trkpt lat="45.66136" lon="2.97588">
        <ele>837.5053</ele>
        <time>2012-09-02T07:25:17Z</time>
      </trkpt>
      <trkpt lat="45.66129" lon="2.9756">
        <ele>838.1917</ele>
        <time>2012-09-02T07:25:22Z</time>
      </trkpt>
      <trkpt lat="45.66118" lon="2.97532">
        <ele>838.8712</ele>
        <time>2012-09-02T07:25:27Z</time>
      </trkpt>
      <trkpt lat="45.6611" lon="2.97508">
        <ele>839.3072</ele>
        <time>2012-09-02T07:25:31Z</time>
      </trkpt>
      <trkpt lat="45.66106" lon="2.97483">
        <ele>840.1287</ele>
        <time>2012-09-02T07:25:35Z</time>
      </trkpt>
      <trkpt lat="45.661" lon="2.97457">
        <ele>840.3887</ele>
        <time>2012-09-02T07:25:39Z</time>
      </trkpt>
      <trkpt lat="45.66084" lon="2.97442">
        <ele>841.24316</ele>
        <time>2012-09-02T07:25:44Z</time>
      </trkpt>
      <trkpt lat="45.66065" lon="2.97438">
        <ele>841.0084</ele>
        <time>2012-09-02T07:25:49Z</time>
      </trkpt>
      <trkpt lat="45.66046" lon="2.97446">
        <ele>839.9439</ele>
        <time>2012-09-02T07:25:54Z</time>
      </trkpt>
      <trkpt lat="45.66027" lon="2.97457">
        <ele>839.6122</ele>
        <time>2012-09-02T07:25:59Z</time>
      </trkpt>
      <trkpt lat="45.66008" lon="2.97459">
        <ele>839.5335</ele>
        <time>2012-09-02T07:26:04Z</time>
      </trkpt>
      <trkpt lat="45.6599" lon="2.97453">
        <ele>839.51483</ele>
        <time>2012-09-02T07:26:09Z</time>
      </trkpt>
      <trkpt lat="45.65972" lon="2.9747">
        <ele>840.1928</ele>
        <time>2012-09-02T07:26:20Z</time>
      </trkpt>
      <trkpt lat="45.65966" lon="2.97496">
        <ele>840.47736</ele>
        <time>2012-09-02T07:26:28Z</time>
      </trkpt>
      <trkpt lat="45.65953" lon="2.97519">
        <ele>841.26855</ele>
        <time>2012-09-02T07:26:36Z</time>
      </trkpt>
      <trkpt lat="45.65948" lon="2.97545">
        <ele>841.4662</ele>
        <time>2012-09-02T07:26:42Z</time>
      </trkpt>
      <trkpt lat="45.65951" lon="2.97571">
        <ele>840.8197</ele>
        <time>2012-09-02T07:26:49Z</time>
      </trkpt>
      <trkpt lat="45.65956" lon="2.97599">
        <ele>840.2765</ele>
        <time>2012-09-02T07:26:59Z</time>
      </trkpt>
      <trkpt lat="45.6596" lon="2.97629">
        <ele>838.4694</ele>
        <time>2012-09-02T07:27:10Z</time>
      </trkpt>
      <trkpt lat="45.65964" lon="2.97659">
        <ele>836.59247</ele>
        <time>2012-09-02T07:27:18Z</time>
      </trkpt>
      <trkpt lat="45.65966" lon="2.97684">
        <ele>835.6175</ele>
        <time>2012-09-02T07:27:26Z</time>
      </trkpt>
      <trkpt lat="45.65967" lon="2.97712">
        <ele>835.51715</ele>
        <time>2012-09-02T07:27:35Z</time>
      </trkpt>
      <trkpt lat="45.65977" lon="2.97738">
        <ele>835.75916</ele>
        <time>2012-09-02T07:27:49Z</time>
      </trkpt>
      <trkpt lat="45.65977" lon="2.97766">
        <ele>836.43396</ele>
        <time>2012-09-02T07:27:57Z</time>
      </trkpt>
      <trkpt lat="45.65981" lon="2.97794">
        <ele>836.50146</ele>
        <time>2012-09-02T07:28:05Z</time>
      </trkpt>
      <trkpt lat="45.65988" lon="2.97822">
        <ele>836.5084</ele>
        <time>2012-09-02T07:28:14Z</time>
      </trkpt>
      <trkpt lat="45.65997" lon="2.97858">
        <ele>838.0206</ele>
        <time>2012-09-02T07:28:20Z</time>
      </trkpt>
      <trkpt lat="45.66005" lon="2.97888">
        <ele>840.773</ele>
        <time>2012-09-02T07:28:25Z</time>
      </trkpt>
      <trkpt lat="45.66013" lon="2.9792">
        <ele>844.3953</ele>
        <time>2012-09-02T07:28:31Z</time>
      </trkpt>
      <trkpt lat="45.66018" lon="2.97946">
        <ele>846.66833</ele>
        <time>2012-09-02T07:28:35Z</time>
      </trkpt>
      <trkpt lat="45.66025" lon="2.97976">
        <ele>849.1933</ele>
        <time>2012-09-02T07:28:40Z</time>
      </trkpt>
      <trkpt lat="45.66025" lon="2.98004">
        <ele>851.2138</ele>
        <time>2012-09-02T07:28:44Z</time>
      </trkpt>
      <trkpt lat="45.66024" lon="2.98032">
        <ele>852.9273</ele>
        <time>2012-09-02T07:28:48Z</time>
      </trkpt>
      <trkpt lat="45.6602" lon="2.98062">
        <ele>854.9618</ele>
        <time>2012-09-02T07:28:53Z</time>
      </trkpt>
      <trkpt lat="45.66016" lon="2.9809">
        <ele>857.16724</ele>
        <time>2012-09-02T07:28:59Z</time>
      </trkpt>
      <trkpt lat="45.66012" lon="2.98116">
        <ele>858.8483</ele>
        <time>2012-09-02T07:29:05Z</time>
      </trkpt>
      <trkpt lat="45.66007" lon="2.98146">
        <ele>860.1541</ele>
        <time>2012-09-02T07:29:11Z</time>
      </trkpt>
      <trkpt lat="45.66005" lon="2.98172">
        <ele>861.2679</ele>
        <time>2012-09-02T07:29:17Z</time>
      </trkpt>
      <trkpt lat="45.66003" lon="2.98199">
        <ele>862.2988</ele>
        <time>2012-09-02T07:29:24Z</time>
      </trkpt>
      <trkpt lat="45.66" lon="2.98225">
        <ele>863.4618</ele>
        <time>2012-09-02T07:29:37Z</time>
      </trkpt>
      <trkpt lat="45.65994" lon="2.98251">
        <ele>864.40533</ele>
        <time>2012-09-02T07:29:46Z</time>
      </trkpt>
      <trkpt lat="45.65978" lon="2.98266">
        <ele>865.3172</ele>
        <time>2012-09-02T07:29:53Z</time>
      </trkpt>
      <trkpt lat="45.65959" lon="2.98272">
        <ele>866.3054</ele>
        <time>2012-09-02T07:30:00Z</time>
      </trkpt>
      <trkpt lat="45.6594" lon="2.98279">
        <ele>867.5448</ele>
        <time>2012-09-02T07:30:06Z</time>
      </trkpt>
      <trkpt lat="45.65923" lon="2.98287">
        <ele>868.5874</ele>
        <time>2012-09-02T07:30:12Z</time>
      </trkpt>
      <trkpt lat="45.65906" lon="2.98296">
        <ele>869.636</ele>
        <time>2012-09-02T07:30:19Z</time>
      </trkpt>
      <trkpt lat="45.65888" lon="2.98307">
        <ele>871.02155</ele>
        <time>2012-09-02T07:30:28Z</time>
      </trkpt>
      <trkpt lat="45.65871" lon="2.9832">
        <ele>872.1438</ele>
        <time>2012-09-02T07:30:36Z</time>
      </trkpt>
      <trkpt lat="45.65851" lon="2.9832">
        <ele>873.24426</ele>
        <time>2012-09-02T07:30:45Z</time>
      </trkpt>
      <trkpt lat="45.65836" lon="2.983">
        <ele>874.9271</ele>
        <time>2012-09-02T07:30:53Z</time>
      </trkpt>
      <trkpt lat="45.65824" lon="2.98277">
        <ele>877.55084</ele>
        <time>2012-09-02T07:31:01Z</time>
      </trkpt>
      <trkpt lat="45.65813" lon="2.98255">
        <ele>880.4007</ele>
        <time>2012-09-02T07:31:09Z</time>
      </trkpt>
      <trkpt lat="45.65799" lon="2.98236">
        <ele>884.53174</ele>
        <time>2012-09-02T07:31:21Z</time>
      </trkpt>
      <trkpt lat="45.65785" lon="2.98219">
        <ele>888.46436</ele>
        <time>2012-09-02T07:31:31Z</time>
      </trkpt>
      <trkpt lat="45.65772" lon="2.98199">
        <ele>892.7693</ele>
        <time>2012-09-02T07:31:43Z</time>
      </trkpt>
      <trkpt lat="45.6576" lon="2.98178">
        <ele>896.5356</ele>
        <time>2012-09-02T07:31:54Z</time>
      </trkpt>
      <trkpt lat="45.65747" lon="2.98159">
        <ele>899.36676</ele>
        <time>2012-09-02T07:32:04Z</time>
      </trkpt>
      <trkpt lat="45.65733" lon="2.98139">
        <ele>901.82336</ele>
        <time>2012-09-02T07:32:13Z</time>
      </trkpt>
      <trkpt lat="45.65718" lon="2.98124">
        <ele>903.93555</ele>
        <time>2012-09-02T07:32:22Z</time>
      </trkpt>
      <trkpt lat="45.65703" lon="2.98105">
        <ele>906.0852</ele>
        <time>2012-09-02T07:32:32Z</time>
      </trkpt>
      <trkpt lat="45.65685" lon="2.98101">
        <ele>908.1727</ele>
        <time>2012-09-02T07:32:42Z</time>
      </trkpt>
      <trkpt lat="45.65671" lon="2.98118">
        <ele>910.4465</ele>
        <time>2012-09-02T07:32:52Z</time>
      </trkpt>
      <trkpt lat="45.65652" lon="2.98124">
        <ele>912.6887</ele>
        <time>2012-09-02T07:33:01Z</time>
      </trkpt>
      <trkpt lat="45.65633" lon="2.98133">
        <ele>914.8715</ele>
        <time>2012-09-02T07:33:09Z</time>
      </trkpt>
      <trkpt lat="45.65615" lon="2.98141">
        <ele>916.40826</ele>
        <time>2012-09-02T07:33:15Z</time>
      </trkpt>
      <trkpt lat="45.65591" lon="2.98156">
        <ele>919.52905</ele>
        <time>2012-09-02T07:33:20Z</time>
      </trkpt>
      <trkpt lat="45.65571" lon="2.98169">
        <ele>923.3708</ele>
        <time>2012-09-02T07:33:24Z</time>
      </trkpt>
      <trkpt lat="45.65549" lon="2.98184">
        <ele>925.51605</ele>
        <time>2012-09-02T07:33:28Z</time>
      </trkpt>
      <trkpt lat="45.65531" lon="2.98195">
        <ele>926.3401</ele>
        <time>2012-09-02T07:33:31Z</time>
      </trkpt>
      <trkpt lat="45.65509" lon="2.98204">
        <ele>926.43774</ele>
        <time>2012-09-02T07:33:34Z</time>
      </trkpt>
      <trkpt lat="45.65489" lon="2.98219">
        <ele>926.04144</ele>
        <time>2012-09-02T07:33:37Z</time>
      </trkpt>
      <trkpt lat="45.6547" lon="2.98234">
        <ele>925.29614</ele>
        <time>2012-09-02T07:33:40Z</time>
      </trkpt>
      <trkpt lat="45.65453" lon="2.98247">
        <ele>924.01294</ele>
        <time>2012-09-02T07:33:43Z</time>
      </trkpt>
      <trkpt lat="45.65436" lon="2.98266">
        <ele>921.62885</ele>
        <time>2012-09-02T07:33:54Z</time>
      </trkpt>
      <trkpt lat="45.65423" lon="2.98287">
        <ele>920.8344</ele>
        <time>2012-09-02T07:34:03Z</time>
      </trkpt>
      <trkpt lat="45.6541" lon="2.98322">
        <ele>917.8753</ele>
        <time>2012-09-02T07:34:11Z</time>
      </trkpt>
      <trkpt lat="45.65401" lon="2.98347">
        <ele>916.7952</ele>
        <time>2012-09-02T07:34:18Z</time>
      </trkpt>
      <trkpt lat="45.65393" lon="2.98371">
        <ele>916.5769</ele>
        <time>2012-09-02T07:34:23Z</time>
      </trkpt>
      <trkpt lat="45.65384" lon="2.98395">
        <ele>916.52515</ele>
        <time>2012-09-02T07:34:28Z</time>
      </trkpt>
      <trkpt lat="45.65371" lon="2.98418">
        <ele>917.19543</ele>
        <time>2012-09-02T07:34:34Z</time>
      </trkpt>
      <trkpt lat="45.65364" lon="2.98448">
        <ele>918.4903</ele>
        <time>2012-09-02T07:34:42Z</time>
      </trkpt>
      <trkpt lat="45.65362" lon="2.98474">
        <ele>918.1417</ele>
        <time>2012-09-02T07:34:45Z</time>
      </trkpt>
      <trkpt lat="45.65361" lon="2.98504">
        <ele>915.9322</ele>
        <time>2012-09-02T07:34:48Z</time>
      </trkpt>
      <trkpt lat="45.65358" lon="2.98541">
        <ele>912.68756</ele>
        <time>2012-09-02T07:34:51Z</time>
      </trkpt>
      <trkpt lat="45.65355" lon="2.98568">
        <ele>909.8343</ele>
        <time>2012-09-02T07:34:54Z</time>
      </trkpt>
      <trkpt lat="45.65353" lon="2.98601">
        <ele>907.12366</ele>
        <time>2012-09-02T07:34:58Z</time>
      </trkpt>
      <trkpt lat="45.65354" lon="2.98629">
        <ele>904.73706</ele>
        <time>2012-09-02T07:35:01Z</time>
      </trkpt>
      <trkpt lat="45.65344" lon="2.98661">
        <ele>903.449</ele>
        <time>2012-09-02T07:35:04Z</time>
      </trkpt>
      <trkpt lat="45.6533" lon="2.98684">
        <ele>903.0377</ele>
        <time>2012-09-02T07:35:06Z</time>
      </trkpt>
      <trkpt lat="45.65315" lon="2.98708">
        <ele>903.0564</ele>
        <time>2012-09-02T07:35:08Z</time>
      </trkpt>
      <trkpt lat="45.65299" lon="2.98729">
        <ele>903.5044</ele>
        <time>2012-09-02T07:35:10Z</time>
      </trkpt>
      <trkpt lat="45.65282" lon="2.98751">
        <ele>903.9439</ele>
        <time>2012-09-02T07:35:12Z</time>
      </trkpt>
      <trkpt lat="45.6527" lon="2.98772">
        <ele>904.62866</ele>
        <time>2012-09-02T07:35:14Z</time>
      </trkpt>
      <trkpt lat="45.65262" lon="2.98796">
        <ele>905.0138</ele>
        <time>2012-09-02T07:35:16Z</time>
      </trkpt>
      <trkpt lat="45.6526" lon="2.98824">
        <ele>905.3001</ele>
        <time>2012-09-02T07:35:19Z</time>
      </trkpt>
      <trkpt lat="45.6526" lon="2.9885">
        <ele>905.42084</ele>
        <time>2012-09-02T07:35:22Z</time>
      </trkpt>
      <trkpt lat="45.65256" lon="2.9888">
        <ele>904.91</ele>
        <time>2012-09-02T07:35:27Z</time>
      </trkpt>
      <trkpt lat="45.65254" lon="2.98905">
        <ele>904.67816</ele>
        <time>2012-09-02T07:35:30Z</time>
      </trkpt>
      <trkpt lat="45.65248" lon="2.98938">
        <ele>905.1406</ele>
        <time>2012-09-02T07:35:34Z</time>
      </trkpt>
      <trkpt lat="45.65242" lon="2.98965">
        <ele>906.07605</ele>
        <time>2012-09-02T07:35:38Z</time>
      </trkpt>
      <trkpt lat="45.65233" lon="2.98991">
        <ele>906.51263</ele>
        <time>2012-09-02T07:35:42Z</time>
      </trkpt>
      <trkpt lat="45.65223" lon="2.99017">
        <ele>906.0724</ele>
        <time>2012-09-02T07:35:47Z</time>
      </trkpt>
      <trkpt lat="45.65218" lon="2.99043">
        <ele>903.48804</ele>
        <time>2012-09-02T07:35:51Z</time>
      </trkpt>
      <trkpt lat="45.65215" lon="2.99068">
        <ele>900.186</ele>
        <time>2012-09-02T07:35:55Z</time>
      </trkpt>
      <trkpt lat="45.6521" lon="2.99096">
        <ele>897.46063</ele>
        <time>2012-09-02T07:36:00Z</time>
      </trkpt>
      <trkpt lat="45.65205" lon="2.99124">
        <ele>897.17236</ele>
        <time>2012-09-02T07:36:05Z</time>
      </trkpt>
      <trkpt lat="45.65202" lon="2.9915">
        <ele>897.83997</ele>
        <time>2012-09-02T07:36:09Z</time>
      </trkpt>
      <trkpt lat="45.65203" lon="2.99176">
        <ele>898.9809</ele>
        <time>2012-09-02T07:36:13Z</time>
      </trkpt>
      <trkpt lat="45.65207" lon="2.99201">
        <ele>899.82117</ele>
        <time>2012-09-02T07:36:18Z</time>
      </trkpt>
      <trkpt lat="45.65208" lon="2.99229">
        <ele>901.2289</ele>
        <time>2012-09-02T07:36:22Z</time>
      </trkpt>
      <trkpt lat="45.65205" lon="2.99257">
        <ele>902.9679</ele>
        <time>2012-09-02T07:36:27Z</time>
      </trkpt>
      <trkpt lat="45.65199" lon="2.99283">
        <ele>903.6627</ele>
        <time>2012-09-02T07:36:33Z</time>
      </trkpt>
      <trkpt lat="45.65194" lon="2.99309">
        <ele>904.30817</ele>
        <time>2012-09-02T07:36:38Z</time>
      </trkpt>
      <trkpt lat="45.65188" lon="2.99337">
        <ele>905.23596</ele>
        <time>2012-09-02T07:36:44Z</time>
      </trkpt>
      <trkpt lat="45.65182" lon="2.99365">
        <ele>906.2231</ele>
        <time>2012-09-02T07:36:50Z</time>
      </trkpt>
      <trkpt lat="45.65173" lon="2.99392">
        <ele>907.1417</ele>
        <time>2012-09-02T07:36:56Z</time>
      </trkpt>
      <trkpt lat="45.65166" lon="2.99418">
        <ele>907.8811</ele>
        <time>2012-09-02T07:37:02Z</time>
      </trkpt>
      <trkpt lat="45.65161" lon="2.99444">
        <ele>908.6473</ele>
        <time>2012-09-02T07:37:08Z</time>
      </trkpt>
      <trkpt lat="45.65152" lon="2.99472">
        <ele>909.35565</ele>
        <time>2012-09-02T07:37:14Z</time>
      </trkpt>
      <trkpt lat="45.65144" lon="2.99495">
        <ele>910.3037</ele>
        <time>2012-09-02T07:37:20Z</time>
      </trkpt>
      <trkpt lat="45.65134" lon="2.99517">
        <ele>911.23517</ele>
        <time>2012-09-02T07:37:26Z</time>
      </trkpt>
      <trkpt lat="45.65123" lon="2.99541">
        <ele>912.22296</ele>
        <time>2012-09-02T07:37:32Z</time>
      </trkpt>
      <trkpt lat="45.65113" lon="2.99564">
        <ele>913.5301</ele>
        <time>2012-09-02T07:37:38Z</time>
      </trkpt>
      <trkpt lat="45.65102" lon="2.99588">
        <ele>914.9129</ele>
        <time>2012-09-02T07:37:44Z</time>
      </trkpt>
      <trkpt lat="45.6509" lon="2.99611">
        <ele>916.38293</ele>
        <time>2012-09-02T07:37:52Z</time>
      </trkpt>
      <trkpt lat="45.65067" lon="2.99618">
        <ele>919.34064</ele>
        <time>2012-09-02T07:38:03Z</time>
      </trkpt>
      <trkpt lat="45.6505" lon="2.99626">
        <ele>921.4047</ele>
        <time>2012-09-02T07:38:11Z</time>
      </trkpt>
      <trkpt lat="45.65032" lon="2.99641">
        <ele>923.81335</ele>
        <time>2012-09-02T07:38:21Z</time>
      </trkpt>
      <trkpt lat="45.65015" lon="2.99654">
        <ele>926.7818</ele>
        <time>2012-09-02T07:38:30Z</time>
      </trkpt>
      <trkpt lat="45.64994" lon="2.99667">
        <ele>929.34534</ele>
        <time>2012-09-02T07:38:40Z</time>
      </trkpt>
      <trkpt lat="45.64979" lon="2.99693">
        <ele>931.76245</ele>
        <time>2012-09-02T07:38:49Z</time>
      </trkpt>
      <trkpt lat="45.64967" lon="2.99719">
        <ele>933.7383</ele>
        <time>2012-09-02T07:38:57Z</time>
      </trkpt>
      <trkpt lat="45.64957" lon="2.9974">
        <ele>935.4188</ele>
        <time>2012-09-02T07:39:04Z</time>
      </trkpt>
      <trkpt lat="45.64949" lon="2.99768">
        <ele>937.04706</ele>
        <time>2012-09-02T07:39:11Z</time>
      </trkpt>
      <trkpt lat="45.64943" lon="2.99796">
        <ele>938.18945</ele>
        <time>2012-09-02T07:39:17Z</time>
      </trkpt>
      <trkpt lat="45.64938" lon="2.99822">
        <ele>939.11676</ele>
        <time>2012-09-02T07:39:22Z</time>
      </trkpt>
      <trkpt lat="45.64932" lon="2.9985">
        <ele>941.037</ele>
        <time>2012-09-02T07:39:27Z</time>
      </trkpt>
      <trkpt lat="45.64924" lon="2.99877">
        <ele>945.1968</ele>
        <time>2012-09-02T07:39:32Z</time>
      </trkpt>
      <trkpt lat="45.64906" lon="2.9988">
        <ele>947.0975</ele>
        <time>2012-09-02T07:39:38Z</time>
      </trkpt>
      <trkpt lat="45.64898" lon="2.99856">
        <ele>947.4781</ele>
        <time>2012-09-02T07:39:47Z</time>
      </trkpt>
      <trkpt lat="45.64896" lon="2.9983">
        <ele>947.5077</ele>
        <time>2012-09-02T07:39:58Z</time>
      </trkpt>
      <trkpt lat="45.64892" lon="2.99804">
        <ele>947.5089</ele>
        <time>2012-09-02T07:40:08Z</time>
      </trkpt>
      <trkpt lat="45.64891" lon="2.99777">
        <ele>946.7463</ele>
        <time>2012-09-02T07:40:16Z</time>
      </trkpt>
      <trkpt lat="45.64891" lon="2.99749">
        <ele>946.5328</ele>
        <time>2012-09-02T07:40:24Z</time>
      </trkpt>
      <trkpt lat="45.64891" lon="2.99723">
        <ele>945.74866</ele>
        <time>2012-09-02T07:40:32Z</time>
      </trkpt>
      <trkpt lat="45.6489" lon="2.99697">
        <ele>945.5166</ele>
        <time>2012-09-02T07:40:44Z</time>
      </trkpt>
      <trkpt lat="45.64889" lon="2.99669">
        <ele>946.33203</ele>
        <time>2012-09-02T07:40:51Z</time>
      </trkpt>
      <trkpt lat="45.64888" lon="2.99641">
        <ele>946.48535</ele>
        <time>2012-09-02T07:40:58Z</time>
      </trkpt>
      <trkpt lat="45.64889" lon="2.99613">
        <ele>946.5048</ele>
        <time>2012-09-02T07:41:04Z</time>
      </trkpt>
      <trkpt lat="45.64892" lon="2.99588">
        <ele>946.50824</ele>
        <time>2012-09-02T07:41:10Z</time>
      </trkpt>
      <trkpt lat="45.64894" lon="2.9956">
        <ele>946.50885</ele>
        <time>2012-09-02T07:41:16Z</time>
      </trkpt>
      <trkpt lat="45.64899" lon="2.9953">
        <ele>947.19257</ele>
        <time>2012-09-02T07:41:21Z</time>
      </trkpt>
      <trkpt lat="45.64902" lon="2.99504">
        <ele>947.987</ele>
        <time>2012-09-02T07:41:25Z</time>
      </trkpt>
      <trkpt lat="45.64905" lon="2.99476">
        <ele>948.82263</ele>
        <time>2012-09-02T07:41:30Z</time>
      </trkpt>
      <trkpt lat="45.64906" lon="2.9945">
        <ele>949.3461</ele>
        <time>2012-09-02T07:41:35Z</time>
      </trkpt>
      <trkpt lat="45.64904" lon="2.99423">
        <ele>949.47034</ele>
        <time>2012-09-02T07:41:40Z</time>
      </trkpt>
      <trkpt lat="45.64903" lon="2.99395">
        <ele>949.4998</ele>
        <time>2012-09-02T07:41:45Z</time>
      </trkpt>
      <trkpt lat="45.64902" lon="2.99369">
        <ele>949.5061</ele>
        <time>2012-09-02T07:41:49Z</time>
      </trkpt>
      <trkpt lat="45.64902" lon="2.99339">
        <ele>949.50806</ele>
        <time>2012-09-02T07:41:53Z</time>
      </trkpt>
      <trkpt lat="45.64897" lon="2.99311">
        <ele>950.08685</ele>
        <time>2012-09-02T07:41:57Z</time>
      </trkpt>
      <trkpt lat="45.64887" lon="2.99285">
        <ele>950.3754</ele>
        <time>2012-09-02T07:42:01Z</time>
      </trkpt>
      <trkpt lat="45.64875" lon="2.99259">
        <ele>951.04486</ele>
        <time>2012-09-02T07:42:05Z</time>
      </trkpt>
      <trkpt lat="45.64864" lon="2.99238">
        <ele>951.3132</ele>
        <time>2012-09-02T07:42:08Z</time>
      </trkpt>
      <trkpt lat="45.64853" lon="2.99212">
        <ele>951.4264</ele>
        <time>2012-09-02T07:42:11Z</time>
      </trkpt>
      <trkpt lat="45.6484" lon="2.99186">
        <ele>951.4741</ele>
        <time>2012-09-02T07:42:14Z</time>
      </trkpt>
      <trkpt lat="45.64825" lon="2.99165">
        <ele>951.4943</ele>
        <time>2012-09-02T07:42:17Z</time>
      </trkpt>
      <trkpt lat="45.64811" lon="2.99146">
        <ele>951.0653</ele>
        <time>2012-09-02T07:42:20Z</time>
      </trkpt>
      <trkpt lat="45.64796" lon="2.99118">
        <ele>950.685</ele>
        <time>2012-09-02T07:42:24Z</time>
      </trkpt>
      <trkpt lat="45.64788" lon="2.99088">
        <ele>950.5647</ele>
        <time>2012-09-02T07:42:28Z</time>
      </trkpt>
      <trkpt lat="45.64784" lon="2.9906">
        <ele>949.9485</ele>
        <time>2012-09-02T07:42:32Z</time>
      </trkpt>
      <trkpt lat="45.64781" lon="2.99034">
        <ele>949.6481</ele>
        <time>2012-09-02T07:42:36Z</time>
      </trkpt>
      <trkpt lat="45.64777" lon="2.99006">
        <ele>949.542</ele>
        <time>2012-09-02T07:42:41Z</time>
      </trkpt>
      <trkpt lat="45.64773" lon="2.9898">
        <ele>949.51685</ele>
        <time>2012-09-02T07:42:46Z</time>
      </trkpt>
      <trkpt lat="45.64769" lon="2.98955">
        <ele>949.51086</ele>
        <time>2012-09-02T07:42:51Z</time>
      </trkpt>
      <trkpt lat="45.64764" lon="2.98925">
        <ele>949.75934</ele>
        <time>2012-09-02T07:42:57Z</time>
      </trkpt>
      <trkpt lat="45.64755" lon="2.98901">
        <ele>950.37555</ele>
        <time>2012-09-02T07:43:03Z</time>
      </trkpt>
      <trkpt lat="45.64751" lon="2.98871">
        <ele>950.4852</ele>
        <time>2012-09-02T07:43:09Z</time>
      </trkpt>
      <trkpt lat="45.64747" lon="2.98843">
        <ele>952.0151</ele>
        <time>2012-09-02T07:43:14Z</time>
      </trkpt>
      <trkpt lat="45.64744" lon="2.98817">
        <ele>953.61444</ele>
        <time>2012-09-02T07:43:18Z</time>
      </trkpt>
      <trkpt lat="45.64741" lon="2.98787">
        <ele>955.0594</ele>
        <time>2012-09-02T07:43:23Z</time>
      </trkpt>
      <trkpt lat="45.64738" lon="2.98757">
        <ele>955.4023</ele>
        <time>2012-09-02T07:43:28Z</time>
      </trkpt>
      <trkpt lat="45.64735" lon="2.98732">
        <ele>955.9127</ele>
        <time>2012-09-02T07:43:32Z</time>
      </trkpt>
      <trkpt lat="45.64732" lon="2.98706">
        <ele>956.7578</ele>
        <time>2012-09-02T07:43:36Z</time>
      </trkpt>
      <trkpt lat="45.64731" lon="2.9868">
        <ele>957.5213</ele>
        <time>2012-09-02T07:43:40Z</time>
      </trkpt>
      <trkpt lat="45.64731" lon="2.98654">
        <ele>958.4465</ele>
        <time>2012-09-02T07:43:44Z</time>
      </trkpt>
      <trkpt lat="45.64732" lon="2.98624">
        <ele>959.25684</ele>
        <time>2012-09-02T07:43:49Z</time>
      </trkpt>
      <trkpt lat="45.64734" lon="2.98596">
        <ele>960.13275</ele>
        <time>2012-09-02T07:43:54Z</time>
      </trkpt>
      <trkpt lat="45.64736" lon="2.98566">
        <ele>960.41974</ele>
        <time>2012-09-02T07:43:59Z</time>
      </trkpt>
      <trkpt lat="45.64738" lon="2.98538">
        <ele>961.1714</ele>
        <time>2012-09-02T07:44:04Z</time>
      </trkpt>
      <trkpt lat="45.6474" lon="2.98508">
        <ele>961.1789</ele>
        <time>2012-09-02T07:44:09Z</time>
      </trkpt>
      <trkpt lat="45.64742" lon="2.98478">
        <ele>960.66797</ele>
        <time>2012-09-02T07:44:14Z</time>
      </trkpt>
      <trkpt lat="45.64746" lon="2.98453">
        <ele>959.86316</ele>
        <time>2012-09-02T07:44:19Z</time>
      </trkpt>
      <trkpt lat="45.64754" lon="2.98423">
        <ele>959.572</ele>
        <time>2012-09-02T07:44:25Z</time>
      </trkpt>
      <trkpt lat="45.64762" lon="2.98399">
        <ele>959.2779</ele>
        <time>2012-09-02T07:44:30Z</time>
      </trkpt>
      <trkpt lat="45.64771" lon="2.98373">
        <ele>959.46783</ele>
        <time>2012-09-02T07:44:36Z</time>
      </trkpt>
      <trkpt lat="45.64779" lon="2.9835">
        <ele>960.26434</ele>
        <time>2012-09-02T07:44:42Z</time>
      </trkpt>
      <trkpt lat="45.64786" lon="2.98324">
        <ele>961.71655</ele>
        <time>2012-09-02T07:44:47Z</time>
      </trkpt>
      <trkpt lat="45.6479" lon="2.98298">
        <ele>963.5212</ele>
        <time>2012-09-02T07:44:52Z</time>
      </trkpt>
      <trkpt lat="45.64793" lon="2.9827">
        <ele>964.2746</ele>
        <time>2012-09-02T07:44:57Z</time>
      </trkpt>
      <trkpt lat="45.64793" lon="2.98242">
        <ele>964.89087</ele>
        <time>2012-09-02T07:45:02Z</time>
      </trkpt>
      <trkpt lat="45.64793" lon="2.98217">
        <ele>965.6123</ele>
        <time>2012-09-02T07:45:07Z</time>
      </trkpt>
      <trkpt lat="45.64793" lon="2.98187">
        <ele>966.7337</ele>
        <time>2012-09-02T07:45:12Z</time>
      </trkpt>
      <trkpt lat="45.64793" lon="2.98156">
        <ele>968.3377</ele>
        <time>2012-09-02T07:45:17Z</time>
      </trkpt>
      <trkpt lat="45.64793" lon="2.98129">
        <ele>969.2311</ele>
        <time>2012-09-02T07:45:22Z</time>
      </trkpt>
      <trkpt lat="45.64791" lon="2.98103">
        <ele>969.44305</ele>
        <time>2012-09-02T07:45:27Z</time>
      </trkpt>
      <trkpt lat="45.64791" lon="2.98075">
        <ele>969.49335</ele>
        <time>2012-09-02T07:45:32Z</time>
      </trkpt>
      <trkpt lat="45.6479" lon="2.98049">
        <ele>969.5053</ele>
        <time>2012-09-02T07:45:37Z</time>
      </trkpt>
      <trkpt lat="45.64789" lon="2.98023">
        <ele>969.9456</ele>
        <time>2012-09-02T07:45:42Z</time>
      </trkpt>
      <trkpt lat="45.64788" lon="2.97998">
        <ele>970.3753</ele>
        <time>2012-09-02T07:45:47Z</time>
      </trkpt>
      <trkpt lat="45.64788" lon="2.9797">
        <ele>970.4773</ele>
        <time>2012-09-02T07:45:52Z</time>
      </trkpt>
      <trkpt lat="45.6479" lon="2.97944">
        <ele>970.50146</ele>
        <time>2012-09-02T07:45:57Z</time>
      </trkpt>
      <trkpt lat="45.64793" lon="2.97916">
        <ele>971.3297</ele>
        <time>2012-09-02T07:46:03Z</time>
      </trkpt>
      <trkpt lat="45.64794" lon="2.9789">
        <ele>971.7271</ele>
        <time>2012-09-02T07:46:09Z</time>
      </trkpt>
      <trkpt lat="45.64796" lon="2.97865">
        <ele>972.3698</ele>
        <time>2012-09-02T07:46:15Z</time>
      </trkpt>
      <trkpt lat="45.64799" lon="2.97839">
        <ele>973.24695</ele>
        <time>2012-09-02T07:46:21Z</time>
      </trkpt>
      <trkpt lat="45.64804" lon="2.97811">
        <ele>973.89984</ele>
        <time>2012-09-02T07:46:27Z</time>
      </trkpt>
      <trkpt lat="45.6481" lon="2.97783">
        <ele>974.4277</ele>
        <time>2012-09-02T07:46:34Z</time>
      </trkpt>
      <trkpt lat="45.64811" lon="2.97757">
        <ele>975.07263</ele>
        <time>2012-09-02T07:46:40Z</time>
      </trkpt>
      <trkpt lat="45.6481" lon="2.97729">
        <ele>976.09296</ele>
        <time>2012-09-02T07:46:45Z</time>
      </trkpt>
      <trkpt lat="45.6481" lon="2.97699">
        <ele>978.5727</ele>
        <time>2012-09-02T07:46:49Z</time>
      </trkpt>
      <trkpt lat="45.6481" lon="2.97674">
        <ele>979.94214</ele>
        <time>2012-09-02T07:46:52Z</time>
      </trkpt>
      <trkpt lat="45.64812" lon="2.97648">
        <ele>980.84796</ele>
        <time>2012-09-02T07:46:55Z</time>
      </trkpt>
      <trkpt lat="45.64814" lon="2.97622">
        <ele>981.6676</ele>
        <time>2012-09-02T07:46:58Z</time>
      </trkpt>
      <trkpt lat="45.64815" lon="2.97596">
        <ele>981.9928</ele>
        <time>2012-09-02T07:47:02Z</time>
      </trkpt>
      <trkpt lat="45.64817" lon="2.97569">
        <ele>981.66205</ele>
        <time>2012-09-02T07:47:06Z</time>
      </trkpt>
      <trkpt lat="45.6482" lon="2.97543">
        <ele>981.55743</ele>
        <time>2012-09-02T07:47:10Z</time>
      </trkpt>
      <trkpt lat="45.64824" lon="2.97513">
        <ele>981.52435</ele>
        <time>2012-09-02T07:47:14Z</time>
      </trkpt>
      <trkpt lat="45.64826" lon="2.97485">
        <ele>981.07635</ele>
        <time>2012-09-02T07:47:18Z</time>
      </trkpt>
      <trkpt lat="45.64826" lon="2.97457">
        <ele>981.26666</ele>
        <time>2012-09-02T07:47:22Z</time>
      </trkpt>
      <trkpt lat="45.64825" lon="2.97429">
        <ele>981.1823</ele>
        <time>2012-09-02T07:47:26Z</time>
      </trkpt>
      <trkpt lat="45.64817" lon="2.97403">
        <ele>980.62885</ele>
        <time>2012-09-02T07:47:32Z</time>
      </trkpt>
      <trkpt lat="45.64803" lon="2.97369">
        <ele>980.51184</ele>
        <time>2012-09-02T07:47:45Z</time>
      </trkpt>
      <trkpt lat="45.64793" lon="2.97348">
        <ele>979.8257</ele>
        <time>2012-09-02T07:47:53Z</time>
      </trkpt>
      <trkpt lat="45.64781" lon="2.97324">
        <ele>979.5407</ele>
        <time>2012-09-02T07:48:01Z</time>
      </trkpt>
      <trkpt lat="45.6477" lon="2.97302">
        <ele>980.0928</ele>
        <time>2012-09-02T07:48:07Z</time>
      </trkpt>
      <trkpt lat="45.64757" lon="2.97281">
        <ele>980.46735</ele>
        <time>2012-09-02T07:48:15Z</time>
      </trkpt>
      <trkpt lat="45.64744" lon="2.97262">
        <ele>980.9409</ele>
        <time>2012-09-02T07:48:22Z</time>
      </trkpt>
      <trkpt lat="45.6473" lon="2.97242">
        <ele>981.4079</ele>
        <time>2012-09-02T07:48:28Z</time>
      </trkpt>
      <trkpt lat="45.64715" lon="2.97221">
        <ele>982.3175</ele>
        <time>2012-09-02T07:48:35Z</time>
      </trkpt>
      <trkpt lat="45.64701" lon="2.97204">
        <ele>983.0616</ele>
        <time>2012-09-02T07:48:42Z</time>
      </trkpt>
      <trkpt lat="45.64687" lon="2.97184">
        <ele>983.6993</ele>
        <time>2012-09-02T07:48:49Z</time>
      </trkpt>
      <trkpt lat="45.64674" lon="2.97165">
        <ele>984.83844</ele>
        <time>2012-09-02T07:48:56Z</time>
      </trkpt>
      <trkpt lat="45.64661" lon="2.97146">
        <ele>986.1255</ele>
        <time>2012-09-02T07:49:04Z</time>
      </trkpt>
      <trkpt lat="45.64648" lon="2.97124">
        <ele>987.35394</ele>
        <time>2012-09-02T07:49:14Z</time>
      </trkpt>
      <trkpt lat="45.6464" lon="2.97099">
        <ele>988.97534</ele>
        <time>2012-09-02T07:49:23Z</time>
      </trkpt>
      <trkpt lat="45.64629" lon="2.97073">
        <ele>990.50977</ele>
        <time>2012-09-02T07:49:30Z</time>
      </trkpt>
      <trkpt lat="45.64619" lon="2.97047">
        <ele>991.95374</ele>
        <time>2012-09-02T07:49:37Z</time>
      </trkpt>
      <trkpt lat="45.64611" lon="2.97021">
        <ele>993.71295</ele>
        <time>2012-09-02T07:49:45Z</time>
      </trkpt>
      <trkpt lat="45.6461" lon="2.96996">
        <ele>994.94543</ele>
        <time>2012-09-02T07:49:51Z</time>
      </trkpt>
      <trkpt lat="45.64609" lon="2.9697">
        <ele>996.05884</ele>
        <time>2012-09-02T07:49:56Z</time>
      </trkpt>
      <trkpt lat="45.64606" lon="2.96942">
        <ele>997.1916</ele>
        <time>2012-09-02T07:50:02Z</time>
      </trkpt>
      <trkpt lat="45.64605" lon="2.96916">
        <ele>998.2152</ele>
        <time>2012-09-02T07:50:08Z</time>
      </trkpt>
      <trkpt lat="45.64596" lon="2.96893">
        <ele>999.1403</ele>
        <time>2012-09-02T07:50:14Z</time>
      </trkpt>
      <trkpt lat="45.64585" lon="2.96867">
        <ele>1000.2225</ele>
        <time>2012-09-02T07:50:21Z</time>
      </trkpt>
      <trkpt lat="45.6458" lon="2.96841">
        <ele>1001.15436</ele>
        <time>2012-09-02T07:50:28Z</time>
      </trkpt>
      <trkpt lat="45.64574" lon="2.96815">
        <ele>1002.9604</ele>
        <time>2012-09-02T07:50:37Z</time>
      </trkpt>
      <trkpt lat="45.64568" lon="2.9679">
        <ele>1004.89874</ele>
        <time>2012-09-02T07:50:45Z</time>
      </trkpt>
      <trkpt lat="45.64563" lon="2.96764">
        <ele>1006.8925</ele>
        <time>2012-09-02T07:50:53Z</time>
      </trkpt>
      <trkpt lat="45.64558" lon="2.96738">
        <ele>1009.4955</ele>
        <time>2012-09-02T07:51:15Z</time>
      </trkpt>
      <trkpt lat="45.64551" lon="2.9671">
        <ele>1010.3292</ele>
        <time>2012-09-02T07:51:22Z</time>
      </trkpt>
      <trkpt lat="45.64546" lon="2.96685">
        <ele>1011.1606</ele>
        <time>2012-09-02T07:51:28Z</time>
      </trkpt>
      <trkpt lat="45.6454" lon="2.96657">
        <ele>1013.12555</ele>
        <time>2012-09-02T07:51:33Z</time>
      </trkpt>
      <trkpt lat="45.64534" lon="2.96631">
        <ele>1015.1924</ele>
        <time>2012-09-02T07:51:37Z</time>
      </trkpt>
      <trkpt lat="45.64528" lon="2.96603">
        <ele>1016.19653</ele>
        <time>2012-09-02T07:51:42Z</time>
      </trkpt>
      <trkpt lat="45.64524" lon="2.96575">
        <ele>1016.4349</ele>
        <time>2012-09-02T07:51:47Z</time>
      </trkpt>
      <trkpt lat="45.64524" lon="2.96547">
        <ele>1016.4914</ele>
        <time>2012-09-02T07:51:52Z</time>
      </trkpt>
      <trkpt lat="45.64524" lon="2.96519">
        <ele>1016.5048</ele>
        <time>2012-09-02T07:51:57Z</time>
      </trkpt>
      <trkpt lat="45.64525" lon="2.96494">
        <ele>1016.508</ele>
        <time>2012-09-02T07:52:02Z</time>
      </trkpt>
      <trkpt lat="45.64525" lon="2.96466">
        <ele>1016.50885</ele>
        <time>2012-09-02T07:52:08Z</time>
      </trkpt>
      <trkpt lat="45.64526" lon="2.96438">
        <ele>1016.509</ele>
        <time>2012-09-02T07:52:14Z</time>
      </trkpt>
      <trkpt lat="45.64526" lon="2.9641">
        <ele>1016.509</ele>
        <time>2012-09-02T07:52:20Z</time>
      </trkpt>
      <trkpt lat="45.64528" lon="2.9638">
        <ele>1017.0871</ele>
        <time>2012-09-02T07:52:26Z</time>
      </trkpt>
      <trkpt lat="45.64528" lon="2.9635">
        <ele>1017.4339</ele>
        <time>2012-09-02T07:52:32Z</time>
      </trkpt>
      <trkpt lat="45.64529" lon="2.96324">
        <ele>1017.4912</ele>
        <time>2012-09-02T07:52:37Z</time>
      </trkpt>
      <trkpt lat="45.64528" lon="2.96298">
        <ele>1018.18835</ele>
        <time>2012-09-02T07:52:42Z</time>
      </trkpt>
      <trkpt lat="45.64524" lon="2.96273">
        <ele>1018.4329</ele>
        <time>2012-09-02T07:52:47Z</time>
      </trkpt>
      <trkpt lat="45.64511" lon="2.96249">
        <ele>1018.74097</ele>
        <time>2012-09-02T07:52:52Z</time>
      </trkpt>
      <trkpt lat="45.64495" lon="2.96232">
        <ele>1019.3267</ele>
        <time>2012-09-02T07:52:57Z</time>
      </trkpt>
      <trkpt lat="45.64478" lon="2.96217">
        <ele>1019.46576</ele>
        <time>2012-09-02T07:53:02Z</time>
      </trkpt>
      <trkpt lat="45.64462" lon="2.962">
        <ele>1019.4987</ele>
        <time>2012-09-02T07:53:07Z</time>
      </trkpt>
      <trkpt lat="45.64446" lon="2.96182">
        <ele>1019.5066</ele>
        <time>2012-09-02T07:53:12Z</time>
      </trkpt>
      <trkpt lat="45.6443" lon="2.96165">
        <ele>1019.0709</ele>
        <time>2012-09-02T07:53:17Z</time>
      </trkpt>
      <trkpt lat="45.64416" lon="2.96146">
        <ele>1018.64233</ele>
        <time>2012-09-02T07:53:22Z</time>
      </trkpt>
      <trkpt lat="45.64401" lon="2.96129">
        <ele>1018.54065</ele>
        <time>2012-09-02T07:53:27Z</time>
      </trkpt>
      <trkpt lat="45.64384" lon="2.96109">
        <ele>1019.3446</ele>
        <time>2012-09-02T07:53:32Z</time>
      </trkpt>
      <trkpt lat="45.6437" lon="2.96092">
        <ele>1020.39056</ele>
        <time>2012-09-02T07:53:36Z</time>
      </trkpt>
      <trkpt lat="45.64352" lon="2.96073">
        <ele>1021.2436</ele>
        <time>2012-09-02T07:53:41Z</time>
      </trkpt>
      <trkpt lat="45.64334" lon="2.96058">
        <ele>1021.44604</ele>
        <time>2012-09-02T07:53:46Z</time>
      </trkpt>
      <trkpt lat="45.64315" lon="2.96043">
        <ele>1021.4941</ele>
        <time>2012-09-02T07:53:51Z</time>
      </trkpt>
      <trkpt lat="45.643" lon="2.96028">
        <ele>1021.5043</ele>
        <time>2012-09-02T07:53:55Z</time>
      </trkpt>
      <trkpt lat="45.64287" lon="2.96006">
        <ele>1021.5079</ele>
        <time>2012-09-02T07:54:00Z</time>
      </trkpt>
      <trkpt lat="45.64286" lon="2.95979">
        <ele>1020.82513</ele>
        <time>2012-09-02T07:54:05Z</time>
      </trkpt>
      <trkpt lat="45.64287" lon="2.95949">
        <ele>1020.56525</ele>
        <time>2012-09-02T07:54:11Z</time>
      </trkpt>
      <trkpt lat="45.64289" lon="2.95921">
        <ele>1020.51904</ele>
        <time>2012-09-02T07:54:17Z</time>
      </trkpt>
      <trkpt lat="45.64291" lon="2.95891">
        <ele>1019.7481</ele>
        <time>2012-09-02T07:54:23Z</time>
      </trkpt>
      <trkpt lat="45.64294" lon="2.95863">
        <ele>1019.5516</ele>
        <time>2012-09-02T07:54:29Z</time>
      </trkpt>
      <trkpt lat="45.64295" lon="2.95837">
        <ele>1019.5166</ele>
        <time>2012-09-02T07:54:35Z</time>
      </trkpt>
      <trkpt lat="45.64295" lon="2.95811">
        <ele>1018.6827</ele>
        <time>2012-09-02T07:54:40Z</time>
      </trkpt>
      <trkpt lat="45.64296" lon="2.95785">
        <ele>1017.4429</ele>
        <time>2012-09-02T07:54:44Z</time>
      </trkpt>
      <trkpt lat="45.64296" lon="2.9576">
        <ele>1016.90295</ele>
        <time>2012-09-02T07:54:47Z</time>
      </trkpt>
      <trkpt lat="45.64294" lon="2.95732">
        <ele>1016.82117</ele>
        <time>2012-09-02T07:54:51Z</time>
      </trkpt>
      <trkpt lat="45.64291" lon="2.95706">
        <ele>1016.6078</ele>
        <time>2012-09-02T07:54:55Z</time>
      </trkpt>
      <trkpt lat="45.64288" lon="2.9568">
        <ele>1016.5402</ele>
        <time>2012-09-02T07:54:59Z</time>
      </trkpt>
      <trkpt lat="45.64282" lon="2.9565">
        <ele>1016.5164</ele>
        <time>2012-09-02T07:55:04Z</time>
      </trkpt>
      <trkpt lat="45.64276" lon="2.9562">
        <ele>1016.51074</ele>
        <time>2012-09-02T07:55:09Z</time>
      </trkpt>
      <trkpt lat="45.6427" lon="2.95592">
        <ele>1015.8258</ele>
        <time>2012-09-02T07:55:14Z</time>
      </trkpt>
      <trkpt lat="45.64265" lon="2.95562">
        <ele>1015.58417</ele>
        <time>2012-09-02T07:55:19Z</time>
      </trkpt>
      <trkpt lat="45.6426" lon="2.95537">
        <ele>1015.52686</ele>
        <time>2012-09-02T07:55:24Z</time>
      </trkpt>
      <trkpt lat="45.64255" lon="2.95509">
        <ele>1015.51324</ele>
        <time>2012-09-02T07:55:29Z</time>
      </trkpt>
      <trkpt lat="45.64251" lon="2.95483">
        <ele>1015.51</ele>
        <time>2012-09-02T07:55:34Z</time>
      </trkpt>
      <trkpt lat="45.64246" lon="2.95455">
        <ele>1015.5092</ele>
        <time>2012-09-02T07:55:39Z</time>
      </trkpt>
      <trkpt lat="45.64243" lon="2.95429">
        <ele>1015.5091</ele>
        <time>2012-09-02T07:55:43Z</time>
      </trkpt>
      <trkpt lat="45.64239" lon="2.95399">
        <ele>1016.2717</ele>
        <time>2012-09-02T07:55:48Z</time>
      </trkpt>
      <trkpt lat="45.64235" lon="2.95371">
        <ele>1017.2154</ele>
        <time>2012-09-02T07:55:53Z</time>
      </trkpt>
      <trkpt lat="45.6423" lon="2.95343">
        <ele>1017.43933</ele>
        <time>2012-09-02T07:55:58Z</time>
      </trkpt>
      <trkpt lat="45.64225" lon="2.95318">
        <ele>1017.4925</ele>
        <time>2012-09-02T07:56:03Z</time>
      </trkpt>
      <trkpt lat="45.64216" lon="2.9529">
        <ele>1018.0832</ele>
        <time>2012-09-02T07:56:08Z</time>
      </trkpt>
      <trkpt lat="45.64207" lon="2.95266">
        <ele>1018.84546</ele>
        <time>2012-09-02T07:56:13Z</time>
      </trkpt>
      <trkpt lat="45.64196" lon="2.95238">
        <ele>1019.9297</ele>
        <time>2012-09-02T07:56:18Z</time>
      </trkpt>
      <trkpt lat="45.64186" lon="2.9521">
        <ele>1020.94965</ele>
        <time>2012-09-02T07:56:23Z</time>
      </trkpt>
      <trkpt lat="45.64177" lon="2.95182">
        <ele>1021.3763</ele>
        <time>2012-09-02T07:56:28Z</time>
      </trkpt>
      <trkpt lat="45.64169" lon="2.95159">
        <ele>1021.467</ele>
        <time>2012-09-02T07:56:32Z</time>
      </trkpt>
      <trkpt lat="45.6416" lon="2.95131">
        <ele>1021.499</ele>
        <time>2012-09-02T07:56:37Z</time>
      </trkpt>
      <trkpt lat="45.64151" lon="2.95101">
        <ele>1022.26935</ele>
        <time>2012-09-02T07:56:42Z</time>
      </trkpt>
      <trkpt lat="45.64144" lon="2.95071">
        <ele>1023.13574</ele>
        <time>2012-09-02T07:56:47Z</time>
      </trkpt>
      <trkpt lat="45.64137" lon="2.95041">
        <ele>1024.104</ele>
        <time>2012-09-02T07:56:52Z</time>
      </trkpt>
      <trkpt lat="45.64129" lon="2.95013">
        <ele>1024.991</ele>
        <time>2012-09-02T07:56:57Z</time>
      </trkpt>
      <trkpt lat="45.64122" lon="2.94983">
        <ele>1025.4169</ele>
        <time>2012-09-02T07:57:03Z</time>
      </trkpt>
      <trkpt lat="45.64114" lon="2.94959">
        <ele>1025.4872</ele>
        <time>2012-09-02T07:57:08Z</time>
      </trkpt>
      <trkpt lat="45.64106" lon="2.94936">
        <ele>1026.4374</ele>
        <time>2012-09-02T07:57:13Z</time>
      </trkpt>
      <trkpt lat="45.64092" lon="2.94912">
        <ele>1027.2548</ele>
        <time>2012-09-02T07:57:18Z</time>
      </trkpt>
      <trkpt lat="45.64082" lon="2.94884">
        <ele>1028.4613</ele>
        <time>2012-09-02T07:57:23Z</time>
      </trkpt>
      <trkpt lat="45.64074" lon="2.94856">
        <ele>1029.5104</ele>
        <time>2012-09-02T07:57:28Z</time>
      </trkpt>
      <trkpt lat="45.64064" lon="2.94828">
        <ele>1030.7095</ele>
        <time>2012-09-02T07:57:33Z</time>
      </trkpt>
      <trkpt lat="45.64054" lon="2.94803">
        <ele>1031.3193</ele>
        <time>2012-09-02T07:57:38Z</time>
      </trkpt>
      <trkpt lat="45.64044" lon="2.94779">
        <ele>1031.464</ele>
        <time>2012-09-02T07:57:43Z</time>
      </trkpt>
      <trkpt lat="45.64033" lon="2.94753">
        <ele>1031.4983</ele>
        <time>2012-09-02T07:57:48Z</time>
      </trkpt>
      <trkpt lat="45.64021" lon="2.94728">
        <ele>1031.2565</ele>
        <time>2012-09-02T07:57:53Z</time>
      </trkpt>
      <trkpt lat="45.64013" lon="2.947">
        <ele>1030.6864</ele>
        <time>2012-09-02T07:57:58Z</time>
      </trkpt>
      <trkpt lat="45.64006" lon="2.9467">
        <ele>1030.5511</ele>
        <time>2012-09-02T07:58:03Z</time>
      </trkpt>
      <trkpt lat="45.64003" lon="2.9464">
        <ele>1031.2817</ele>
        <time>2012-09-02T07:58:08Z</time>
      </trkpt>
      <trkpt lat="45.64002" lon="2.94614">
        <ele>1031.4371</ele>
        <time>2012-09-02T07:58:12Z</time>
      </trkpt>
      <trkpt lat="45.64001" lon="2.94586">
        <ele>1030.9081</ele>
        <time>2012-09-02T07:58:16Z</time>
      </trkpt>
      <trkpt lat="45.64" lon="2.94556">
        <ele>1030.6038</ele>
        <time>2012-09-02T07:58:21Z</time>
      </trkpt>
      <trkpt lat="45.63999" lon="2.9453">
        <ele>1030.9764</ele>
        <time>2012-09-02T07:58:25Z</time>
      </trkpt>
      <trkpt lat="45.64" lon="2.945">
        <ele>1033.2664</ele>
        <time>2012-09-02T07:58:30Z</time>
      </trkpt>
      <trkpt lat="45.64001" lon="2.94474">
        <ele>1035.2369</ele>
        <time>2012-09-02T07:58:34Z</time>
      </trkpt>
      <trkpt lat="45.64004" lon="2.94446">
        <ele>1036.9698</ele>
        <time>2012-09-02T07:58:39Z</time>
      </trkpt>
      <trkpt lat="45.64008" lon="2.94419">
        <ele>1037.3811</ele>
        <time>2012-09-02T07:58:44Z</time>
      </trkpt>
      <trkpt lat="45.64014" lon="2.94391">
        <ele>1038.6788</ele>
        <time>2012-09-02T07:58:49Z</time>
      </trkpt>
      <trkpt lat="45.64022" lon="2.94361">
        <ele>1038.6284</ele>
        <time>2012-09-02T07:58:54Z</time>
      </trkpt>
      <trkpt lat="45.64031" lon="2.94331">
        <ele>1038.5468</ele>
        <time>2012-09-02T07:58:58Z</time>
      </trkpt>
      <trkpt lat="45.64038" lon="2.94305">
        <ele>1037.9468</ele>
        <time>2012-09-02T07:59:01Z</time>
      </trkpt>
      <trkpt lat="45.64046" lon="2.94277">
        <ele>1037.2101</ele>
        <time>2012-09-02T07:59:05Z</time>
      </trkpt>
      <trkpt lat="45.64049" lon="2.94251">
        <ele>1036.5792</ele>
        <time>2012-09-02T07:59:13Z</time>
      </trkpt>
      <trkpt lat="45.64047" lon="2.94223">
        <ele>1035.6923</ele>
        <time>2012-09-02T07:59:22Z</time>
      </trkpt>
      <trkpt lat="45.64044" lon="2.94195">
        <ele>1035.115</ele>
        <time>2012-09-02T07:59:27Z</time>
      </trkpt>
      <trkpt lat="45.64037" lon="2.9417">
        <ele>1034.0747</ele>
        <time>2012-09-02T07:59:32Z</time>
      </trkpt>
      <trkpt lat="45.64031" lon="2.9414">
        <ele>1033.6432</ele>
        <time>2012-09-02T07:59:37Z</time>
      </trkpt>
      <trkpt lat="45.64028" lon="2.94114">
        <ele>1033.5409</ele>
        <time>2012-09-02T07:59:42Z</time>
      </trkpt>
      <trkpt lat="45.64026" lon="2.94086">
        <ele>1032.833</ele>
        <time>2012-09-02T07:59:47Z</time>
      </trkpt>
      <trkpt lat="45.64026" lon="2.9406">
        <ele>1032.0333</ele>
        <time>2012-09-02T07:59:51Z</time>
      </trkpt>
      <trkpt lat="45.64026" lon="2.94034">
        <ele>1030.9913</ele>
        <time>2012-09-02T07:59:55Z</time>
      </trkpt>
      <trkpt lat="45.64026" lon="2.94009">
        <ele>1031.0991</ele>
        <time>2012-09-02T07:59:59Z</time>
      </trkpt>
      <trkpt lat="45.64025" lon="2.93979">
        <ele>1032.2399</ele>
        <time>2012-09-02T08:00:04Z</time>
      </trkpt>
      <trkpt lat="45.64023" lon="2.93951">
        <ele>1033.4579</ele>
        <time>2012-09-02T08:00:09Z</time>
      </trkpt>
      <trkpt lat="45.6402" lon="2.93925">
        <ele>1034.2595</ele>
        <time>2012-09-02T08:00:14Z</time>
      </trkpt>
      <trkpt lat="45.64013" lon="2.93897">
        <ele>1034.8873</ele>
        <time>2012-09-02T08:00:19Z</time>
      </trkpt>
      <trkpt lat="45.64007" lon="2.93869">
        <ele>1035.3615</ele>
        <time>2012-09-02T08:00:24Z</time>
      </trkpt>
      <trkpt lat="45.63991" lon="2.93854">
        <ele>1036.3558</ele>
        <time>2012-09-02T08:00:31Z</time>
      </trkpt>
      <trkpt lat="45.63974" lon="2.93869">
        <ele>1037.3551</ele>
        <time>2012-09-02T08:00:38Z</time>
      </trkpt>
      <trkpt lat="45.63959" lon="2.93886">
        <ele>1038.2443</ele>
        <time>2012-09-02T08:00:44Z</time>
      </trkpt>
      <trkpt lat="45.63943" lon="2.93904">
        <ele>1038.7119</ele>
        <time>2012-09-02T08:00:50Z</time>
      </trkpt>
      <trkpt lat="45.63928" lon="2.93919">
        <ele>1041.206</ele>
        <time>2012-09-02T08:00:54Z</time>
      </trkpt>
      <trkpt lat="45.63911" lon="2.93936">
        <ele>1043.3584</ele>
        <time>2012-09-02T08:00:58Z</time>
      </trkpt>
      <trkpt lat="45.63895" lon="2.93951">
        <ele>1044.5785</ele>
        <time>2012-09-02T08:01:02Z</time>
      </trkpt>
      <trkpt lat="45.63878" lon="2.93968">
        <ele>1044.9685</ele>
        <time>2012-09-02T08:01:06Z</time>
      </trkpt>
      <trkpt lat="45.6386" lon="2.93985">
        <ele>1045.088</ele>
        <time>2012-09-02T08:01:10Z</time>
      </trkpt>
      <trkpt lat="45.63843" lon="2.94">
        <ele>1044.6921</ele>
        <time>2012-09-02T08:01:14Z</time>
      </trkpt>
      <trkpt lat="45.63827" lon="2.94019">
        <ele>1044.567</ele>
        <time>2012-09-02T08:01:18Z</time>
      </trkpt>
      <trkpt lat="45.63812" lon="2.94037">
        <ele>1044.0898</ele>
        <time>2012-09-02T08:01:22Z</time>
      </trkpt>
      <trkpt lat="45.63796" lon="2.94054">
        <ele>1043.2552</ele>
        <time>2012-09-02T08:01:26Z</time>
      </trkpt>
      <trkpt lat="45.63779" lon="2.94071">
        <ele>1042.7451</ele>
        <time>2012-09-02T08:01:30Z</time>
      </trkpt>
      <trkpt lat="45.63763" lon="2.94088">
        <ele>1042.5837</ele>
        <time>2012-09-02T08:01:34Z</time>
      </trkpt>
      <trkpt lat="45.63748" lon="2.94105">
        <ele>1042.5326</ele>
        <time>2012-09-02T08:01:38Z</time>
      </trkpt>
      <trkpt lat="45.63734" lon="2.94122">
        <ele>1042.5165</ele>
        <time>2012-09-02T08:01:42Z</time>
      </trkpt>
      <trkpt lat="45.63716" lon="2.94142">
        <ele>1042.5114</ele>
        <time>2012-09-02T08:01:46Z</time>
      </trkpt>
      <trkpt lat="45.63698" lon="2.94159">
        <ele>1042.5098</ele>
        <time>2012-09-02T08:01:50Z</time>
      </trkpt>
      <trkpt lat="45.63679" lon="2.94178">
        <ele>1042.5093</ele>
        <time>2012-09-02T08:01:54Z</time>
      </trkpt>
      <trkpt lat="45.63663" lon="2.94193">
        <ele>1042.5092</ele>
        <time>2012-09-02T08:01:57Z</time>
      </trkpt>
      <trkpt lat="45.63646" lon="2.9421">
        <ele>1042.0715</ele>
        <time>2012-09-02T08:02:00Z</time>
      </trkpt>
      <trkpt lat="45.63628" lon="2.9423">
        <ele>1041.7463</ele>
        <time>2012-09-02T08:02:03Z</time>
      </trkpt>
      <trkpt lat="45.6361" lon="2.94247">
        <ele>1042.0466</ele>
        <time>2012-09-02T08:02:06Z</time>
      </trkpt>
      <trkpt lat="45.63593" lon="2.94264">
        <ele>1042.314</ele>
        <time>2012-09-02T08:02:09Z</time>
      </trkpt>
      <trkpt lat="45.63575" lon="2.94273">
        <ele>1042.8643</ele>
        <time>2012-09-02T08:02:12Z</time>
      </trkpt>
      <trkpt lat="45.63557" lon="2.94253">
        <ele>1043.5549</ele>
        <time>2012-09-02T08:02:16Z</time>
      </trkpt>
      <trkpt lat="45.63543" lon="2.94236">
        <ele>1044.1066</ele>
        <time>2012-09-02T08:02:19Z</time>
      </trkpt>
      <trkpt lat="45.63529" lon="2.94219">
        <ele>1044.3392</ele>
        <time>2012-09-02T08:02:22Z</time>
      </trkpt>
      <trkpt lat="45.63509" lon="2.942">
        <ele>1045.5764</ele>
        <time>2012-09-02T08:02:26Z</time>
      </trkpt>
      <trkpt lat="45.63488" lon="2.94193">
        <ele>1046.792</ele>
        <time>2012-09-02T08:02:30Z</time>
      </trkpt>
      <trkpt lat="45.63469" lon="2.94183">
        <ele>1047.5321</ele>
        <time>2012-09-02T08:02:34Z</time>
      </trkpt>
      <trkpt lat="45.63448" lon="2.94172">
        <ele>1048.2772</ele>
        <time>2012-09-02T08:02:39Z</time>
      </trkpt>
      <trkpt lat="45.63431" lon="2.94161">
        <ele>1048.454</ele>
        <time>2012-09-02T08:02:44Z</time>
      </trkpt>
      <trkpt lat="45.63414" lon="2.94148">
        <ele>1048.496</ele>
        <time>2012-09-02T08:02:49Z</time>
      </trkpt>
      <trkpt lat="45.63398" lon="2.94135">
        <ele>1048.5059</ele>
        <time>2012-09-02T08:02:54Z</time>
      </trkpt>
      <trkpt lat="45.63382" lon="2.9412">
        <ele>1048.7583</ele>
        <time>2012-09-02T08:02:59Z</time>
      </trkpt>
      <trkpt lat="45.63365" lon="2.94105">
        <ele>1049.4088</ele>
        <time>2012-09-02T08:03:06Z</time>
      </trkpt>
      <trkpt lat="45.63346" lon="2.9409">
        <ele>1050.0737</ele>
        <time>2012-09-02T08:03:13Z</time>
      </trkpt>
      <trkpt lat="45.6333" lon="2.94073">
        <ele>1050.4315</ele>
        <time>2012-09-02T08:03:19Z</time>
      </trkpt>
      <trkpt lat="45.63313" lon="2.94054">
        <ele>1051.3173</ele>
        <time>2012-09-02T08:03:25Z</time>
      </trkpt>
      <trkpt lat="45.63297" lon="2.94037">
        <ele>1052.053</ele>
        <time>2012-09-02T08:03:31Z</time>
      </trkpt>
      <trkpt lat="45.63282" lon="2.94017">
        <ele>1052.6779</ele>
        <time>2012-09-02T08:03:37Z</time>
      </trkpt>
      <trkpt lat="45.63266" lon="2.94002">
        <ele>1053.3981</ele>
        <time>2012-09-02T08:03:44Z</time>
      </trkpt>
      <trkpt lat="45.6325" lon="2.93985">
        <ele>1054.3162</ele>
        <time>2012-09-02T08:03:51Z</time>
      </trkpt>
      <trkpt lat="45.63235" lon="2.93964">
        <ele>1055.246</ele>
        <time>2012-09-02T08:03:58Z</time>
      </trkpt>
      <trkpt lat="45.63227" lon="2.93938">
        <ele>1056.5992</ele>
        <time>2012-09-02T08:04:06Z</time>
      </trkpt>
      <trkpt lat="45.63219" lon="2.93912">
        <ele>1057.9961</ele>
        <time>2012-09-02T08:04:14Z</time>
      </trkpt>
      <trkpt lat="45.63207" lon="2.93891">
        <ele>1058.8552</ele>
        <time>2012-09-02T08:04:20Z</time>
      </trkpt>
      <trkpt lat="45.63197" lon="2.93867">
        <ele>1059.3926</ele>
        <time>2012-09-02T08:04:26Z</time>
      </trkpt>
      <trkpt lat="45.63187" lon="2.93841">
        <ele>1060.3103</ele>
        <time>2012-09-02T08:04:32Z</time>
      </trkpt>
      <trkpt lat="45.63179" lon="2.93816">
        <ele>1060.7236</ele>
        <time>2012-09-02T08:04:38Z</time>
      </trkpt>
      <trkpt lat="45.63168" lon="2.9379">
        <ele>1061.3226</ele>
        <time>2012-09-02T08:04:43Z</time>
      </trkpt>
      <trkpt lat="45.63157" lon="2.93764">
        <ele>1062.054</ele>
        <time>2012-09-02T08:04:49Z</time>
      </trkpt>
      <trkpt lat="45.63149" lon="2.93734">
        <ele>1062.651</ele>
        <time>2012-09-02T08:04:54Z</time>
      </trkpt>
      <trkpt lat="45.6314" lon="2.93706">
        <ele>1063.5554</ele>
        <time>2012-09-02T08:04:59Z</time>
      </trkpt>
      <trkpt lat="45.63134" lon="2.93678">
        <ele>1064.2827</ele>
        <time>2012-09-02T08:05:04Z</time>
      </trkpt>
      <trkpt lat="45.63127" lon="2.93648">
        <ele>1065.2908</ele>
        <time>2012-09-02T08:05:10Z</time>
      </trkpt>
      <trkpt lat="45.63121" lon="2.9362">
        <ele>1066.2329</ele>
        <time>2012-09-02T08:05:16Z</time>
      </trkpt>
      <trkpt lat="45.63116" lon="2.93595">
        <ele>1067.2225</ele>
        <time>2012-09-02T08:05:22Z</time>
      </trkpt>
      <trkpt lat="45.63111" lon="2.93569">
        <ele>1068.0192</ele>
        <time>2012-09-02T08:05:27Z</time>
      </trkpt>
      <trkpt lat="45.63107" lon="2.93543">
        <ele>1068.8302</ele>
        <time>2012-09-02T08:05:32Z</time>
      </trkpt>
      <trkpt lat="45.63104" lon="2.93515">
        <ele>1069.8257</ele>
        <time>2012-09-02T08:05:38Z</time>
      </trkpt>
      <trkpt lat="45.63104" lon="2.93485">
        <ele>1070.4178</ele>
        <time>2012-09-02T08:05:45Z</time>
      </trkpt>
      <trkpt lat="45.63109" lon="2.93459">
        <ele>1071.3148</ele>
        <time>2012-09-02T08:05:51Z</time>
      </trkpt>
      <trkpt lat="45.63115" lon="2.93434">
        <ele>1072.2457</ele>
        <time>2012-09-02T08:05:58Z</time>
      </trkpt>
      <trkpt lat="45.63112" lon="2.93406">
        <ele>1073.3047</ele>
        <time>2012-09-02T08:06:06Z</time>
      </trkpt>
      <trkpt lat="45.63112" lon="2.9338">
        <ele>1074.3037</ele>
        <time>2012-09-02T08:06:13Z</time>
      </trkpt>
      <trkpt lat="45.63113" lon="2.93354">
        <ele>1075.355</ele>
        <time>2012-09-02T08:06:21Z</time>
      </trkpt>
      <trkpt lat="45.63117" lon="2.93329">
        <ele>1076.3104</ele>
        <time>2012-09-02T08:06:28Z</time>
      </trkpt>
      <trkpt lat="45.63121" lon="2.93303">
        <ele>1076.4825</ele>
        <time>2012-09-02T08:06:35Z</time>
      </trkpt>
      <trkpt lat="45.6313" lon="2.93277">
        <ele>1077.4063</ele>
        <time>2012-09-02T08:06:43Z</time>
      </trkpt>
      <trkpt lat="45.63143" lon="2.93258">
        <ele>1077.0577</ele>
        <time>2012-09-02T08:06:50Z</time>
      </trkpt>
      <trkpt lat="45.63159" lon="2.93241">
        <ele>1076.5823</ele>
        <time>2012-09-02T08:06:57Z</time>
      </trkpt>
      <trkpt lat="45.63174" lon="2.93226">
        <ele>1075.7001</ele>
        <time>2012-09-02T08:07:03Z</time>
      </trkpt>
      <trkpt lat="45.6319" lon="2.93213">
        <ele>1075.543</ele>
        <time>2012-09-02T08:07:09Z</time>
      </trkpt>
      <trkpt lat="45.63207" lon="2.932">
        <ele>1074.6896</ele>
        <time>2012-09-02T08:07:18Z</time>
      </trkpt>
      <trkpt lat="45.63224" lon="2.93185">
        <ele>1074.5226</ele>
        <time>2012-09-02T08:07:27Z</time>
      </trkpt>
      <trkpt lat="45.63237" lon="2.93165">
        <ele>1075.2736</ele>
        <time>2012-09-02T08:07:34Z</time>
      </trkpt>
      <trkpt lat="45.63254" lon="2.93148">
        <ele>1075.915</ele>
        <time>2012-09-02T08:07:41Z</time>
      </trkpt>
      <trkpt lat="45.63271" lon="2.93135">
        <ele>1076.4033</ele>
        <time>2012-09-02T08:07:47Z</time>
      </trkpt>
      <trkpt lat="45.63287" lon="2.93118">
        <ele>1077.3123</ele>
        <time>2012-09-02T08:07:53Z</time>
      </trkpt>
      <trkpt lat="45.63301" lon="2.93101">
        <ele>1078.296</ele>
        <time>2012-09-02T08:07:59Z</time>
      </trkpt>
      <trkpt lat="45.63316" lon="2.93082">
        <ele>1079.5431</ele>
        <time>2012-09-02T08:08:05Z</time>
      </trkpt>
      <trkpt lat="45.63333" lon="2.93056">
        <ele>1082.1235</ele>
        <time>2012-09-02T08:08:10Z</time>
      </trkpt>
      <trkpt lat="45.63346" lon="2.93035">
        <ele>1083.5043</ele>
        <time>2012-09-02T08:08:14Z</time>
      </trkpt>
      <trkpt lat="45.6336" lon="2.93017">
        <ele>1082.5739</ele>
        <time>2012-09-02T08:08:18Z</time>
      </trkpt>
      <trkpt lat="45.63378" lon="2.93005">
        <ele>1081.7617</ele>
        <time>2012-09-02T08:08:23Z</time>
      </trkpt>
      <trkpt lat="45.63393" lon="2.92989">
        <ele>1081.569</ele>
        <time>2012-09-02T08:08:28Z</time>
      </trkpt>
      <trkpt lat="45.63413" lon="2.92979">
        <ele>1080.7605</ele>
        <time>2012-09-02T08:08:33Z</time>
      </trkpt>
      <trkpt lat="45.63431" lon="2.92966">
        <ele>1081.2523</ele>
        <time>2012-09-02T08:08:38Z</time>
      </trkpt>
      <trkpt lat="45.63448" lon="2.92957">
        <ele>1081.0106</ele>
        <time>2012-09-02T08:08:43Z</time>
      </trkpt>
      <trkpt lat="45.63466" lon="2.92947">
        <ele>1079.9802</ele>
        <time>2012-09-02T08:08:47Z</time>
      </trkpt>
      <trkpt lat="45.63484" lon="2.92929">
        <ele>1078.537</ele>
        <time>2012-09-02T08:08:51Z</time>
      </trkpt>
      <trkpt lat="45.63503" lon="2.92914">
        <ele>1077.8342</ele>
        <time>2012-09-02T08:08:55Z</time>
      </trkpt>
      <trkpt lat="45.63527" lon="2.92906">
        <ele>1077.6462</ele>
        <time>2012-09-02T08:08:58Z</time>
      </trkpt>
      <trkpt lat="45.63551" lon="2.92899">
        <ele>1077.5669</ele>
        <time>2012-09-02T08:09:01Z</time>
      </trkpt>
      <trkpt lat="45.63578" lon="2.92897">
        <ele>1077.5334</ele>
        <time>2012-09-02T08:09:04Z</time>
      </trkpt>
      <trkpt lat="45.63597" lon="2.92902">
        <ele>1077.2727</ele>
        <time>2012-09-02T08:09:06Z</time>
      </trkpt>
      <trkpt lat="45.6362" lon="2.92921">
        <ele>1076.2511</ele>
        <time>2012-09-02T08:09:08Z</time>
      </trkpt>
      <trkpt lat="45.6364" lon="2.92938">
        <ele>1074.1139</ele>
        <time>2012-09-02T08:09:10Z</time>
      </trkpt>
      <trkpt lat="45.63658" lon="2.92951">
        <ele>1071.8492</ele>
        <time>2012-09-02T08:09:12Z</time>
      </trkpt>
      <trkpt lat="45.63678" lon="2.92962">
        <ele>1069.7004</ele>
        <time>2012-09-02T08:09:14Z</time>
      </trkpt>
      <trkpt lat="45.63704" lon="2.92974">
        <ele>1065.8185</ele>
        <time>2012-09-02T08:09:21Z</time>
      </trkpt>
      <trkpt lat="45.63694" lon="2.92951">
        <ele>1063.7181</ele>
        <time>2012-09-02T08:09:34Z</time>
      </trkpt>
      <trkpt lat="45.63684" lon="2.92927">
        <ele>1063.5463</ele>
        <time>2012-09-02T08:09:40Z</time>
      </trkpt>
      <trkpt lat="45.63676" lon="2.92904">
        <ele>1063.0803</ele>
        <time>2012-09-02T08:09:45Z</time>
      </trkpt>
      <trkpt lat="45.63664" lon="2.92878">
        <ele>1062.6107</ele>
        <time>2012-09-02T08:09:51Z</time>
      </trkpt>
      <trkpt lat="45.63652" lon="2.92854">
        <ele>1061.955</ele>
        <time>2012-09-02T08:09:56Z</time>
      </trkpt>
      <trkpt lat="45.63639" lon="2.92829">
        <ele>1061.1774</ele>
        <time>2012-09-02T08:10:01Z</time>
      </trkpt>
      <trkpt lat="45.63626" lon="2.92807">
        <ele>1060.2301</ele>
        <time>2012-09-02T08:10:06Z</time>
      </trkpt>
      <trkpt lat="45.63613" lon="2.92788">
        <ele>1060.1747</ele>
        <time>2012-09-02T08:10:10Z</time>
      </trkpt>
      <trkpt lat="45.63597" lon="2.92768">
        <ele>1061.2313</ele>
        <time>2012-09-02T08:10:14Z</time>
      </trkpt>
      <trkpt lat="45.6358" lon="2.92753">
        <ele>1062.4075</ele>
        <time>2012-09-02T08:10:17Z</time>
      </trkpt>
      <trkpt lat="45.63559" lon="2.92736">
        <ele>1063.0443</ele>
        <time>2012-09-02T08:10:20Z</time>
      </trkpt>
      <trkpt lat="45.63542" lon="2.92726">
        <ele>1063.2476</ele>
        <time>2012-09-02T08:10:22Z</time>
      </trkpt>
      <trkpt lat="45.63525" lon="2.92713">
        <ele>1063.3619</ele>
        <time>2012-09-02T08:10:24Z</time>
      </trkpt>
      <trkpt lat="45.63509" lon="2.927">
        <ele>1063.4263</ele>
        <time>2012-09-02T08:10:26Z</time>
      </trkpt>
      <trkpt lat="45.63488" lon="2.92681">
        <ele>1064.0522</ele>
        <time>2012-09-02T08:10:29Z</time>
      </trkpt>
      <trkpt lat="45.63465" lon="2.92665">
        <ele>1063.7382</ele>
        <time>2012-09-02T08:10:32Z</time>
      </trkpt>
      <trkpt lat="45.63443" lon="2.9265">
        <ele>1063.6057</ele>
        <time>2012-09-02T08:10:35Z</time>
      </trkpt>
      <trkpt lat="45.63421" lon="2.92635">
        <ele>1063.5498</ele>
        <time>2012-09-02T08:10:38Z</time>
      </trkpt>
      <trkpt lat="45.63401" lon="2.92623">
        <ele>1063.5262</ele>
        <time>2012-09-02T08:10:41Z</time>
      </trkpt>
      <trkpt lat="45.63383" lon="2.9261">
        <ele>1063.5162</ele>
        <time>2012-09-02T08:10:44Z</time>
      </trkpt>
      <trkpt lat="45.63363" lon="2.92595">
        <ele>1063.5121</ele>
        <time>2012-09-02T08:10:47Z</time>
      </trkpt>
      <trkpt lat="45.63344" lon="2.92582">
        <ele>1063.5103</ele>
        <time>2012-09-02T08:10:50Z</time>
      </trkpt>
      <trkpt lat="45.63325" lon="2.92567">
        <ele>1063.7595</ele>
        <time>2012-09-02T08:10:53Z</time>
      </trkpt>
      <trkpt lat="45.63308" lon="2.92552">
        <ele>1064.1929</ele>
        <time>2012-09-02T08:10:56Z</time>
      </trkpt>
      <trkpt lat="45.63292" lon="2.92537">
        <ele>1064.8131</ele>
        <time>2012-09-02T08:10:59Z</time>
      </trkpt>
      <trkpt lat="45.63277" lon="2.9252">
        <ele>1065.653</ele>
        <time>2012-09-02T08:11:02Z</time>
      </trkpt>
      <trkpt lat="45.63259" lon="2.925">
        <ele>1066.8163</ele>
        <time>2012-09-02T08:11:06Z</time>
      </trkpt>
      <trkpt lat="45.63245" lon="2.92483">
        <ele>1067.6543</ele>
        <time>2012-09-02T08:11:09Z</time>
      </trkpt>
      <trkpt lat="45.63258" lon="2.92455">
        <ele>1068.3062</ele>
        <time>2012-09-02T08:11:14Z</time>
      </trkpt>
      <trkpt lat="45.63275" lon="2.92438">
        <ele>1068.4235</ele>
        <time>2012-09-02T08:11:17Z</time>
      </trkpt>
      <trkpt lat="45.63296" lon="2.92419">
        <ele>1068.4729</ele>
        <time>2012-09-02T08:11:20Z</time>
      </trkpt>
      <trkpt lat="45.63317" lon="2.92399">
        <ele>1068.4938</ele>
        <time>2012-09-02T08:11:23Z</time>
      </trkpt>
      <trkpt lat="45.63332" lon="2.92384">
        <ele>1068.938</ele>
        <time>2012-09-02T08:11:25Z</time>
      </trkpt>
      <trkpt lat="45.63348" lon="2.92369">
        <ele>1069.1877</ele>
        <time>2012-09-02T08:11:27Z</time>
      </trkpt>
      <trkpt lat="45.63363" lon="2.92354">
        <ele>1069.3284</ele>
        <time>2012-09-02T08:11:29Z</time>
      </trkpt>
      <trkpt lat="45.6338" lon="2.92339">
        <ele>1069.4073</ele>
        <time>2012-09-02T08:11:31Z</time>
      </trkpt>
      <trkpt lat="45.63393" lon="2.92318">
        <ele>1069.4518</ele>
        <time>2012-09-02T08:11:33Z</time>
      </trkpt>
      <trkpt lat="45.63404" lon="2.9229">
        <ele>1069.2268</ele>
        <time>2012-09-02T08:11:35Z</time>
      </trkpt>
      <trkpt lat="45.63413" lon="2.92258">
        <ele>1068.9128</ele>
        <time>2012-09-02T08:11:37Z</time>
      </trkpt>
      <trkpt lat="45.63422" lon="2.92228">
        <ele>1068.7361</ele>
        <time>2012-09-02T08:11:39Z</time>
      </trkpt>
      <trkpt lat="45.63431" lon="2.92204">
        <ele>1068.6367</ele>
        <time>2012-09-02T08:11:41Z</time>
      </trkpt>
      <trkpt lat="45.63439" lon="2.92181">
        <ele>1068.1433</ele>
        <time>2012-09-02T08:11:43Z</time>
      </trkpt>
      <trkpt lat="45.6345" lon="2.92148">
        <ele>1066.761</ele>
        <time>2012-09-02T08:11:46Z</time>
      </trkpt>
      <trkpt lat="45.63459" lon="2.92125">
        <ele>1065.0883</ele>
        <time>2012-09-02T08:11:48Z</time>
      </trkpt>
      <trkpt lat="45.63468" lon="2.92099">
        <ele>1062.8348</ele>
        <time>2012-09-02T08:11:50Z</time>
      </trkpt>
      <trkpt lat="45.63475" lon="2.92071">
        <ele>1060.2548</ele>
        <time>2012-09-02T08:11:52Z</time>
      </trkpt>
      <trkpt lat="45.63483" lon="2.92045">
        <ele>1057.9285</ele>
        <time>2012-09-02T08:11:54Z</time>
      </trkpt>
      <trkpt lat="45.6349" lon="2.92017">
        <ele>1055.745</ele>
        <time>2012-09-02T08:11:56Z</time>
      </trkpt>
      <trkpt lat="45.63499" lon="2.91992">
        <ele>1053.8917</ele>
        <time>2012-09-02T08:11:58Z</time>
      </trkpt>
      <trkpt lat="45.63508" lon="2.91966">
        <ele>1052.1617</ele>
        <time>2012-09-02T08:12:00Z</time>
      </trkpt>
      <trkpt lat="45.63517" lon="2.9194">
        <ele>1050.7512</ele>
        <time>2012-09-02T08:12:02Z</time>
      </trkpt>
      <trkpt lat="45.63522" lon="2.91912">
        <ele>1049.0828</ele>
        <time>2012-09-02T08:12:04Z</time>
      </trkpt>
      <trkpt lat="45.63527" lon="2.91876">
        <ele>1046.7667</ele>
        <time>2012-09-02T08:12:07Z</time>
      </trkpt>
      <trkpt lat="45.63532" lon="2.91842">
        <ele>1044.6333</ele>
        <time>2012-09-02T08:12:10Z</time>
      </trkpt>
      <trkpt lat="45.63544" lon="2.9182">
        <ele>1042.1244</ele>
        <time>2012-09-02T08:12:16Z</time>
      </trkpt>
      <trkpt lat="45.63525" lon="2.91809">
        <ele>1039.9519</ele>
        <time>2012-09-02T08:12:21Z</time>
      </trkpt>
      <trkpt lat="45.6351" lon="2.9179">
        <ele>1036.3895</ele>
        <time>2012-09-02T08:12:26Z</time>
      </trkpt>
      <trkpt lat="45.63505" lon="2.9176">
        <ele>1032.6808</ele>
        <time>2012-09-02T08:12:31Z</time>
      </trkpt>
      <trkpt lat="45.63502" lon="2.91734">
        <ele>1030.0751</ele>
        <time>2012-09-02T08:12:35Z</time>
      </trkpt>
      <trkpt lat="45.63498" lon="2.91706">
        <ele>1028.4264</ele>
        <time>2012-09-02T08:12:39Z</time>
      </trkpt>
      <trkpt lat="45.63494" lon="2.91678">
        <ele>1027.7993</ele>
        <time>2012-09-02T08:12:43Z</time>
      </trkpt>
      <trkpt lat="45.63487" lon="2.91655">
        <ele>1027.6008</ele>
        <time>2012-09-02T08:12:47Z</time>
      </trkpt>
      <trkpt lat="45.63469" lon="2.91646">
        <ele>1026.8472</ele>
        <time>2012-09-02T08:12:52Z</time>
      </trkpt>
      <trkpt lat="45.63452" lon="2.91623">
        <ele>1025.5736</ele>
        <time>2012-09-02T08:12:57Z</time>
      </trkpt>
      <trkpt lat="45.63443" lon="2.91595">
        <ele>1023.9123</ele>
        <time>2012-09-02T08:13:01Z</time>
      </trkpt>
      <trkpt lat="45.63433" lon="2.91567">
        <ele>1022.953</ele>
        <time>2012-09-02T08:13:05Z</time>
      </trkpt>
      <trkpt lat="45.63425" lon="2.91539">
        <ele>1022.6495</ele>
        <time>2012-09-02T08:13:09Z</time>
      </trkpt>
      <trkpt lat="45.63415" lon="2.91513">
        <ele>1022.55347</ele>
        <time>2012-09-02T08:13:13Z</time>
      </trkpt>
      <trkpt lat="45.63406" lon="2.9149">
        <ele>1021.8395</ele>
        <time>2012-09-02T08:13:17Z</time>
      </trkpt>
      <trkpt lat="45.63398" lon="2.91466">
        <ele>1021.6136</ele>
        <time>2012-09-02T08:13:21Z</time>
      </trkpt>
      <trkpt lat="45.63392" lon="2.91438">
        <ele>1021.9796</ele>
        <time>2012-09-02T08:13:25Z</time>
      </trkpt>
      <trkpt lat="45.63389" lon="2.91412">
        <ele>1022.3415</ele>
        <time>2012-09-02T08:13:29Z</time>
      </trkpt>
      <trkpt lat="45.63387" lon="2.91384">
        <ele>1022.8935</ele>
        <time>2012-09-02T08:13:33Z</time>
      </trkpt>
      <trkpt lat="45.63384" lon="2.91359">
        <ele>1023.99786</ele>
        <time>2012-09-02T08:13:37Z</time>
      </trkpt>
      <trkpt lat="45.63377" lon="2.91333">
        <ele>1024.7848</ele>
        <time>2012-09-02T08:13:41Z</time>
      </trkpt>
      <trkpt lat="45.63372" lon="2.91307">
        <ele>1026.2955</ele>
        <time>2012-09-02T08:13:45Z</time>
      </trkpt>
      <trkpt lat="45.63366" lon="2.91281">
        <ele>1028.2461</ele>
        <time>2012-09-02T08:13:49Z</time>
      </trkpt>
      <trkpt lat="45.63358" lon="2.91251">
        <ele>1029.893</ele>
        <time>2012-09-02T08:13:54Z</time>
      </trkpt>
      <trkpt lat="45.63352" lon="2.91221">
        <ele>1031.0464</ele>
        <time>2012-09-02T08:13:59Z</time>
      </trkpt>
      <trkpt lat="45.63345" lon="2.91193">
        <ele>1031.3627</ele>
        <time>2012-09-02T08:14:03Z</time>
      </trkpt>
      <trkpt lat="45.63339" lon="2.91168">
        <ele>1031.4626</ele>
        <time>2012-09-02T08:14:07Z</time>
      </trkpt>
      <trkpt lat="45.63336" lon="2.9114">
        <ele>1032.0725</ele>
        <time>2012-09-02T08:14:11Z</time>
      </trkpt>
      <trkpt lat="45.63334" lon="2.91114">
        <ele>1032.1208</ele>
        <time>2012-09-02T08:14:15Z</time>
      </trkpt>
      <trkpt lat="45.63333" lon="2.91088">
        <ele>1031.4526</ele>
        <time>2012-09-02T08:14:19Z</time>
      </trkpt>
      <trkpt lat="45.63331" lon="2.9106">
        <ele>1031.0576</ele>
        <time>2012-09-02T08:14:23Z</time>
      </trkpt>
      <trkpt lat="45.63327" lon="2.9103">
        <ele>1032.1943</ele>
        <time>2012-09-02T08:14:27Z</time>
      </trkpt>
      <trkpt lat="45.63322" lon="2.91">
        <ele>1033.093</ele>
        <time>2012-09-02T08:14:31Z</time>
      </trkpt>
      <trkpt lat="45.6331" lon="2.90979">
        <ele>1032.1156</ele>
        <time>2012-09-02T08:14:35Z</time>
      </trkpt>
      <trkpt lat="45.63294" lon="2.90955">
        <ele>1031.2155</ele>
        <time>2012-09-02T08:14:40Z</time>
      </trkpt>
      <trkpt lat="45.63281" lon="2.90932">
        <ele>1031.3602</ele>
        <time>2012-09-02T08:14:45Z</time>
      </trkpt>
      <trkpt lat="45.63272" lon="2.90908">
        <ele>1032.04</ele>
        <time>2012-09-02T08:14:49Z</time>
      </trkpt>
      <trkpt lat="45.63267" lon="2.90882">
        <ele>1032.9387</ele>
        <time>2012-09-02T08:14:53Z</time>
      </trkpt>
      <trkpt lat="45.63264" lon="2.90854">
        <ele>1034.5903</ele>
        <time>2012-09-02T08:14:57Z</time>
      </trkpt>
      <trkpt lat="45.63259" lon="2.90829">
        <ele>1035.7964</ele>
        <time>2012-09-02T08:15:01Z</time>
      </trkpt>
      <trkpt lat="45.63248" lon="2.90805">
        <ele>1036.7775</ele>
        <time>2012-09-02T08:15:06Z</time>
      </trkpt>
      <trkpt lat="45.63234" lon="2.90781">
        <ele>1037.3788</ele>
        <time>2012-09-02T08:15:12Z</time>
      </trkpt>
      <trkpt lat="45.63219" lon="2.90764">
        <ele>1037.4858</ele>
        <time>2012-09-02T08:15:18Z</time>
      </trkpt>
      <trkpt lat="45.63203" lon="2.90747">
        <ele>1038.2662</ele>
        <time>2012-09-02T08:15:23Z</time>
      </trkpt>
      <trkpt lat="45.63185" lon="2.90732">
        <ele>1038.7014</ele>
        <time>2012-09-02T08:15:28Z</time>
      </trkpt>
      <trkpt lat="45.63168" lon="2.90713">
        <ele>1039.3652</ele>
        <time>2012-09-02T08:15:34Z</time>
      </trkpt>
      <trkpt lat="45.63153" lon="2.90698">
        <ele>1040.1584</ele>
        <time>2012-09-02T08:15:39Z</time>
      </trkpt>
      <trkpt lat="45.63135" lon="2.90679">
        <ele>1040.7239</ele>
        <time>2012-09-02T08:15:47Z</time>
      </trkpt>
      <trkpt lat="45.63119" lon="2.90661">
        <ele>1041.7001</ele>
        <time>2012-09-02T08:15:56Z</time>
      </trkpt>
      <trkpt lat="45.63104" lon="2.90642">
        <ele>1042.6982</ele>
        <time>2012-09-02T08:16:05Z</time>
      </trkpt>
      <trkpt lat="45.63095" lon="2.90616">
        <ele>1044.7023</ele>
        <time>2012-09-02T08:16:19Z</time>
      </trkpt>
      <trkpt lat="45.63089" lon="2.90591">
        <ele>1048.3893</ele>
        <time>2012-09-02T08:18:07Z</time>
      </trkpt>
      <trkpt lat="45.63084" lon="2.90565">
        <ele>1051.1824</ele>
        <time>2012-09-02T08:18:38Z</time>
      </trkpt>
      <trkpt lat="45.63078" lon="2.90539">
        <ele>1052.3232</ele>
        <time>2012-09-02T08:18:51Z</time>
      </trkpt>
      <trkpt lat="45.63072" lon="2.90513">
        <ele>1052.5046</ele>
        <time>2012-09-02T08:19:04Z</time>
      </trkpt>
      <trkpt lat="45.63064" lon="2.9049">
        <ele>1052.5089</ele>
        <time>2012-09-02T08:19:19Z</time>
      </trkpt>
      <trkpt lat="45.63056" lon="2.90464">
        <ele>1052.328</ele>
        <time>2012-09-02T08:19:30Z</time>
      </trkpt>
      <trkpt lat="45.63051" lon="2.90436">
        <ele>1052.4954</ele>
        <time>2012-09-02T08:19:39Z</time>
      </trkpt>
      <trkpt lat="45.63046" lon="2.90408">
        <ele>1051.6411</ele>
        <time>2012-09-02T08:19:47Z</time>
      </trkpt>
      <trkpt lat="45.63039" lon="2.9038">
        <ele>1051.095</ele>
        <time>2012-09-02T08:19:53Z</time>
      </trkpt>
      <trkpt lat="45.63037" lon="2.90354">
        <ele>1049.9895</ele>
        <time>2012-09-02T08:20:01Z</time>
      </trkpt>
      <trkpt lat="45.6303" lon="2.90329">
        <ele>1048.714</ele>
        <time>2012-09-02T08:20:11Z</time>
      </trkpt>
      <trkpt lat="45.63019" lon="2.90305">
        <ele>1048.5364</ele>
        <time>2012-09-02T08:20:18Z</time>
      </trkpt>
      <trkpt lat="45.6301" lon="2.90282">
        <ele>1048.5117</ele>
        <time>2012-09-02T08:20:26Z</time>
      </trkpt>
      <trkpt lat="45.63009" lon="2.90256">
        <ele>1049.8131</ele>
        <time>2012-09-02T08:20:37Z</time>
      </trkpt>
      <trkpt lat="45.63017" lon="2.90232">
        <ele>1052.0325</ele>
        <time>2012-09-02T08:20:51Z</time>
      </trkpt>
      <trkpt lat="45.63031" lon="2.90215">
        <ele>1052.4454</ele>
        <time>2012-09-02T08:20:58Z</time>
      </trkpt>
      <trkpt lat="45.63046" lon="2.90194">
        <ele>1053.3247</ele>
        <time>2012-09-02T08:21:06Z</time>
      </trkpt>
      <trkpt lat="45.63061" lon="2.90179">
        <ele>1053.9281</ele>
        <time>2012-09-02T08:21:14Z</time>
      </trkpt>
      <trkpt lat="45.63075" lon="2.90161">
        <ele>1054.4314</ele>
        <time>2012-09-02T08:21:21Z</time>
      </trkpt>
      <trkpt lat="45.6309" lon="2.90146">
        <ele>1054.4987</ele>
        <time>2012-09-02T08:21:28Z</time>
      </trkpt>
      <trkpt lat="45.63105" lon="2.90125">
        <ele>1055.3741</ele>
        <time>2012-09-02T08:21:35Z</time>
      </trkpt>
      <trkpt lat="45.63119" lon="2.90106">
        <ele>1056.2477</ele>
        <time>2012-09-02T08:21:41Z</time>
      </trkpt>
      <trkpt lat="45.63133" lon="2.90086">
        <ele>1057.2252</ele>
        <time>2012-09-02T08:21:47Z</time>
      </trkpt>
      <trkpt lat="45.63139" lon="2.90058">
        <ele>1058.2338</ele>
        <time>2012-09-02T08:21:54Z</time>
      </trkpt>
      <trkpt lat="45.63137" lon="2.9003">
        <ele>1059.2228</ele>
        <time>2012-09-02T08:22:00Z</time>
      </trkpt>
      <trkpt lat="45.63138" lon="2.90003">
        <ele>1060.7175</ele>
        <time>2012-09-02T08:22:06Z</time>
      </trkpt>
      <trkpt lat="45.63141" lon="2.89977">
        <ele>1062.416</ele>
        <time>2012-09-02T08:22:13Z</time>
      </trkpt>
      <trkpt lat="45.63147" lon="2.89951">
        <ele>1064.4122</ele>
        <time>2012-09-02T08:22:21Z</time>
      </trkpt>
      <trkpt lat="45.63157" lon="2.8993">
        <ele>1066.1619</ele>
        <time>2012-09-02T08:22:29Z</time>
      </trkpt>
      <trkpt lat="45.63169" lon="2.89908">
        <ele>1068.0914</ele>
        <time>2012-09-02T08:22:38Z</time>
      </trkpt>
      <trkpt lat="45.63182" lon="2.89887">
        <ele>1070.0612</ele>
        <time>2012-09-02T08:22:47Z</time>
      </trkpt>
      <trkpt lat="45.63191" lon="2.89863">
        <ele>1071.7087</ele>
        <time>2012-09-02T08:22:54Z</time>
      </trkpt>
      <trkpt lat="45.63199" lon="2.8984">
        <ele>1073.6884</ele>
        <time>2012-09-02T08:23:02Z</time>
      </trkpt>
      <trkpt lat="45.63208" lon="2.89816">
        <ele>1075.6864</ele>
        <time>2012-09-02T08:23:10Z</time>
      </trkpt>
      <trkpt lat="45.63218" lon="2.89792">
        <ele>1077.8713</ele>
        <time>2012-09-02T08:23:18Z</time>
      </trkpt>
      <trkpt lat="45.63228" lon="2.89771">
        <ele>1079.9952</ele>
        <time>2012-09-02T08:23:26Z</time>
      </trkpt>
      <trkpt lat="45.63241" lon="2.89752">
        <ele>1082.6549</ele>
        <time>2012-09-02T08:23:35Z</time>
      </trkpt>
      <trkpt lat="45.63255" lon="2.89734">
        <ele>1084.8895</ele>
        <time>2012-09-02T08:23:44Z</time>
      </trkpt>
      <trkpt lat="45.63271" lon="2.89721">
        <ele>1086.751</ele>
        <time>2012-09-02T08:23:52Z</time>
      </trkpt>
      <trkpt lat="45.63289" lon="2.89709">
        <ele>1088.7561</ele>
        <time>2012-09-02T08:24:01Z</time>
      </trkpt>
      <trkpt lat="45.63304" lon="2.89691">
        <ele>1090.2745</ele>
        <time>2012-09-02T08:24:10Z</time>
      </trkpt>
      <trkpt lat="45.63317" lon="2.8967">
        <ele>1092.069</ele>
        <time>2012-09-02T08:24:18Z</time>
      </trkpt>
      <trkpt lat="45.6333" lon="2.89651">
        <ele>1093.9095</ele>
        <time>2012-09-02T08:24:26Z</time>
      </trkpt>
      <trkpt lat="45.63343" lon="2.89629">
        <ele>1095.521</ele>
        <time>2012-09-02T08:24:34Z</time>
      </trkpt>
      <trkpt lat="45.63356" lon="2.89608">
        <ele>1097.8795</ele>
        <time>2012-09-02T08:24:43Z</time>
      </trkpt>
      <trkpt lat="45.63368" lon="2.89586">
        <ele>1100.082</ele>
        <time>2012-09-02T08:24:53Z</time>
      </trkpt>
      <trkpt lat="45.6338" lon="2.89565">
        <ele>1102.4413</ele>
        <time>2012-09-02T08:25:03Z</time>
      </trkpt>
      <trkpt lat="45.63393" lon="2.89546">
        <ele>1104.4415</ele>
        <time>2012-09-02T08:25:12Z</time>
      </trkpt>
      <trkpt lat="45.63408" lon="2.89531">
        <ele>1106.6884</ele>
        <time>2012-09-02T08:25:21Z</time>
      </trkpt>
      <trkpt lat="45.63427" lon="2.89524">
        <ele>1109.0463</ele>
        <time>2012-09-02T08:25:31Z</time>
      </trkpt>
      <trkpt lat="45.63446" lon="2.89518">
        <ele>1111.1958</ele>
        <time>2012-09-02T08:25:42Z</time>
      </trkpt>
      <trkpt lat="45.63463" lon="2.89509">
        <ele>1112.9557</ele>
        <time>2012-09-02T08:25:50Z</time>
      </trkpt>
      <trkpt lat="45.63483" lon="2.89498">
        <ele>1114.4479</ele>
        <time>2012-09-02T08:25:57Z</time>
      </trkpt>
      <trkpt lat="45.635" lon="2.89485">
        <ele>1116.3009</ele>
        <time>2012-09-02T08:26:04Z</time>
      </trkpt>
      <trkpt lat="45.63516" lon="2.89473">
        <ele>1118.4008</ele>
        <time>2012-09-02T08:26:12Z</time>
      </trkpt>
      <trkpt lat="45.63533" lon="2.8946">
        <ele>1120.8912</ele>
        <time>2012-09-02T08:26:22Z</time>
      </trkpt>
      <trkpt lat="45.63551" lon="2.89447">
        <ele>1123.3077</ele>
        <time>2012-09-02T08:26:32Z</time>
      </trkpt>
      <trkpt lat="45.63567" lon="2.89434">
        <ele>1125.6783</ele>
        <time>2012-09-02T08:26:41Z</time>
      </trkpt>
      <trkpt lat="45.63583" lon="2.89421">
        <ele>1128.3748</ele>
        <time>2012-09-02T08:26:51Z</time>
      </trkpt>
      <trkpt lat="45.63599" lon="2.89408">
        <ele>1130.824</ele>
        <time>2012-09-02T08:27:00Z</time>
      </trkpt>
      <trkpt lat="45.63614" lon="2.89393">
        <ele>1132.885</ele>
        <time>2012-09-02T08:27:08Z</time>
      </trkpt>
      <trkpt lat="45.63609" lon="2.89367">
        <ele>1134.7661</ele>
        <time>2012-09-02T08:27:17Z</time>
      </trkpt>
      <trkpt lat="45.63593" lon="2.89348">
        <ele>1135.9879</ele>
        <time>2012-09-02T08:27:24Z</time>
      </trkpt>
      <trkpt lat="45.63578" lon="2.89329">
        <ele>1137.4521</ele>
        <time>2012-09-02T08:27:31Z</time>
      </trkpt>
      <trkpt lat="45.63564" lon="2.89312">
        <ele>1138.946</ele>
        <time>2012-09-02T08:27:38Z</time>
      </trkpt>
      <trkpt lat="45.63549" lon="2.8929">
        <ele>1140.1965</ele>
        <time>2012-09-02T08:27:45Z</time>
      </trkpt>
      <trkpt lat="45.63536" lon="2.89271">
        <ele>1141.2161</ele>
        <time>2012-09-02T08:27:51Z</time>
      </trkpt>
      <trkpt lat="45.63522" lon="2.89249">
        <ele>1142.2789</ele>
        <time>2012-09-02T08:27:57Z</time>
      </trkpt>
      <trkpt lat="45.63508" lon="2.8923">
        <ele>1143.54</ele>
        <time>2012-09-02T08:28:03Z</time>
      </trkpt>
      <trkpt lat="45.63494" lon="2.89211">
        <ele>1144.8171</ele>
        <time>2012-09-02T08:28:10Z</time>
      </trkpt>
      <trkpt lat="45.6348" lon="2.89194">
        <ele>1146.1233</ele>
        <time>2012-09-02T08:28:18Z</time>
      </trkpt>
      <trkpt lat="45.63465" lon="2.89174">
        <ele>1147.233</ele>
        <time>2012-09-02T08:28:26Z</time>
      </trkpt>
      <trkpt lat="45.63454" lon="2.89153">
        <ele>1148.2349</ele>
        <time>2012-09-02T08:28:33Z</time>
      </trkpt>
      <trkpt lat="45.63447" lon="2.89127">
        <ele>1149.2944</ele>
        <time>2012-09-02T08:28:40Z</time>
      </trkpt>
      <trkpt lat="45.63452" lon="2.89099">
        <ele>1150.2335</ele>
        <time>2012-09-02T08:28:46Z</time>
      </trkpt>
      <trkpt lat="45.63457" lon="2.89073">
        <ele>1151.1436</ele>
        <time>2012-09-02T08:28:52Z</time>
      </trkpt>
      <trkpt lat="45.63458" lon="2.89048">
        <ele>1152.7197</ele>
        <time>2012-09-02T08:28:59Z</time>
      </trkpt>
      <trkpt lat="45.63468" lon="2.89022">
        <ele>1154.4164</ele>
        <time>2012-09-02T08:29:06Z</time>
      </trkpt>
      <trkpt lat="45.63483" lon="2.89007">
        <ele>1156.0833</ele>
        <time>2012-09-02T08:29:14Z</time>
      </trkpt>
      <trkpt lat="45.63499" lon="2.8899">
        <ele>1158.0935</ele>
        <time>2012-09-02T08:29:24Z</time>
      </trkpt>
      <trkpt lat="45.63516" lon="2.88979">
        <ele>1160.0863</ele>
        <time>2012-09-02T08:29:33Z</time>
      </trkpt>
      <trkpt lat="45.63534" lon="2.88977">
        <ele>1161.3423</ele>
        <time>2012-09-02T08:29:38Z</time>
      </trkpt>
      <trkpt lat="45.63552" lon="2.88975">
        <ele>1162.5774</ele>
        <time>2012-09-02T08:29:42Z</time>
      </trkpt>
      <trkpt lat="45.63572" lon="2.8897">
        <ele>1163.4642</ele>
        <time>2012-09-02T08:29:46Z</time>
      </trkpt>
      <trkpt lat="45.63593" lon="2.88966">
        <ele>1165.1947</ele>
        <time>2012-09-02T08:29:51Z</time>
      </trkpt>
      <trkpt lat="45.63611" lon="2.8896">
        <ele>1168.0424</ele>
        <time>2012-09-02T08:29:55Z</time>
      </trkpt>
      <trkpt lat="45.63606" lon="2.88928">
        <ele>1171.2529</ele>
        <time>2012-09-02T08:30:07Z</time>
      </trkpt>
      <trkpt lat="45.63591" lon="2.88906">
        <ele>1171.2482</ele>
        <time>2012-09-02T08:30:18Z</time>
      </trkpt>
      <trkpt lat="45.63573" lon="2.88889">
        <ele>1170.5507</ele>
        <time>2012-09-02T08:30:28Z</time>
      </trkpt>
      <trkpt lat="45.63583" lon="2.88863">
        <ele>1169.5515</ele>
        <time>2012-09-02T08:30:46Z</time>
      </trkpt>
      <trkpt lat="45.63575" lon="2.88837">
        <ele>1172.509</ele>
        <time>2012-09-02T08:32:57Z</time>
      </trkpt>
      <trkpt lat="45.6359" lon="2.88852">
        <ele>1177.5862</ele>
        <time>2012-09-02T08:34:17Z</time>
      </trkpt>
      <trkpt lat="45.63575" lon="2.88867">
        <ele>1178.7188</ele>
        <time>2012-09-02T08:41:45Z</time>
      </trkpt>
      <trkpt lat="45.63579" lon="2.889">
        <ele>1177.0275</ele>
        <time>2012-09-02T08:41:52Z</time>
      </trkpt>
      <trkpt lat="45.63597" lon="2.88915">
        <ele>1175.4114</ele>
        <time>2012-09-02T08:41:56Z</time>
      </trkpt>
      <trkpt lat="45.63616" lon="2.88921">
        <ele>1174.3115</ele>
        <time>2012-09-02T08:41:59Z</time>
      </trkpt>
      <trkpt lat="45.63634" lon="2.88925">
        <ele>1173.0194</ele>
        <time>2012-09-02T08:42:02Z</time>
      </trkpt>
      <trkpt lat="45.63654" lon="2.88923">
        <ele>1171.5494</ele>
        <time>2012-09-02T08:42:06Z</time>
      </trkpt>
      <trkpt lat="45.63673" lon="2.88917">
        <ele>1170.7559</ele>
        <time>2012-09-02T08:42:11Z</time>
      </trkpt>
      <trkpt lat="45.63689" lon="2.88902">
        <ele>1169.6469</ele>
        <time>2012-09-02T08:42:25Z</time>
      </trkpt>
      <trkpt lat="45.63707" lon="2.88902">
        <ele>1167.5264</ele>
        <time>2012-09-02T08:42:45Z</time>
      </trkpt>
      <trkpt lat="45.63722" lon="2.88882">
        <ele>1165.2776</ele>
        <time>2012-09-02T08:42:52Z</time>
      </trkpt>
      <trkpt lat="45.63736" lon="2.88865">
        <ele>1163.9287</ele>
        <time>2012-09-02T08:42:57Z</time>
      </trkpt>
      <trkpt lat="45.63749" lon="2.88844">
        <ele>1162.3242</ele>
        <time>2012-09-02T08:43:03Z</time>
      </trkpt>
      <trkpt lat="45.63766" lon="2.88822">
        <ele>1160.5186</ele>
        <time>2012-09-02T08:43:11Z</time>
      </trkpt>
      <trkpt lat="45.63778" lon="2.88801">
        <ele>1158.6993</ele>
        <time>2012-09-02T08:43:21Z</time>
      </trkpt>
      <trkpt lat="45.63793" lon="2.88782">
        <ele>1158.1053</ele>
        <time>2012-09-02T08:43:27Z</time>
      </trkpt>
      <trkpt lat="45.63805" lon="2.88756">
        <ele>1157.6505</ele>
        <time>2012-09-02T08:43:32Z</time>
      </trkpt>
      <trkpt lat="45.63817" lon="2.8873">
        <ele>1155.382</ele>
        <time>2012-09-02T08:43:36Z</time>
      </trkpt>
      <trkpt lat="45.63829" lon="2.88709">
        <ele>1153.0334</ele>
        <time>2012-09-02T08:43:39Z</time>
      </trkpt>
      <trkpt lat="45.6384" lon="2.88687">
        <ele>1150.5583</ele>
        <time>2012-09-02T08:43:42Z</time>
      </trkpt>
      <trkpt lat="45.63852" lon="2.88666">
        <ele>1148.5454</ele>
        <time>2012-09-02T08:43:45Z</time>
      </trkpt>
      <trkpt lat="45.63864" lon="2.88646">
        <ele>1147.3682</ele>
        <time>2012-09-02T08:43:48Z</time>
      </trkpt>
      <trkpt lat="45.63877" lon="2.88625">
        <ele>1146.8715</ele>
        <time>2012-09-02T08:43:51Z</time>
      </trkpt>
      <trkpt lat="45.63888" lon="2.88604">
        <ele>1146.9119</ele>
        <time>2012-09-02T08:43:54Z</time>
      </trkpt>
      <trkpt lat="45.639" lon="2.8858">
        <ele>1147.6946</ele>
        <time>2012-09-02T08:43:57Z</time>
      </trkpt>
      <trkpt lat="45.63913" lon="2.88556">
        <ele>1148.8529</ele>
        <time>2012-09-02T08:44:00Z</time>
      </trkpt>
      <trkpt lat="45.63925" lon="2.88533">
        <ele>1151.0759</ele>
        <time>2012-09-02T08:44:03Z</time>
      </trkpt>
      <trkpt lat="45.63935" lon="2.88509">
        <ele>1153.3107</ele>
        <time>2012-09-02T08:44:06Z</time>
      </trkpt>
      <trkpt lat="45.63945" lon="2.88483">
        <ele>1155.4097</ele>
        <time>2012-09-02T08:44:09Z</time>
      </trkpt>
      <trkpt lat="45.63956" lon="2.88458">
        <ele>1157.0609</ele>
        <time>2012-09-02T08:44:12Z</time>
      </trkpt>
      <trkpt lat="45.63966" lon="2.88432">
        <ele>1157.4606</ele>
        <time>2012-09-02T08:44:15Z</time>
      </trkpt>
      <trkpt lat="45.63978" lon="2.88406">
        <ele>1157.4885</ele>
        <time>2012-09-02T08:44:18Z</time>
      </trkpt>
      <trkpt lat="45.63988" lon="2.8838">
        <ele>1158.0785</ele>
        <time>2012-09-02T08:44:21Z</time>
      </trkpt>
      <trkpt lat="45.63998" lon="2.88357">
        <ele>1158.3274</ele>
        <time>2012-09-02T08:44:24Z</time>
      </trkpt>
      <trkpt lat="45.64006" lon="2.88331">
        <ele>1158.573</ele>
        <time>2012-09-02T08:44:27Z</time>
      </trkpt>
      <trkpt lat="45.64014" lon="2.88305">
        <ele>1158.536</ele>
        <time>2012-09-02T08:44:30Z</time>
      </trkpt>
      <trkpt lat="45.64023" lon="2.88282">
        <ele>1158.9579</ele>
        <time>2012-09-02T08:44:33Z</time>
      </trkpt>
      <trkpt lat="45.64038" lon="2.88258">
        <ele>1159.3346</ele>
        <time>2012-09-02T08:44:37Z</time>
      </trkpt>
      <trkpt lat="45.64052" lon="2.88241">
        <ele>1159.4354</ele>
        <time>2012-09-02T08:44:40Z</time>
      </trkpt>
      <trkpt lat="45.64076" lon="2.88226">
        <ele>1159.4857</ele>
        <time>2012-09-02T08:44:44Z</time>
      </trkpt>
      <trkpt lat="45.64097" lon="2.88219">
        <ele>1159.4991</ele>
        <time>2012-09-02T08:44:47Z</time>
      </trkpt>
      <trkpt lat="45.64118" lon="2.88211">
        <ele>1159.0674</ele>
        <time>2012-09-02T08:44:50Z</time>
      </trkpt>
      <trkpt lat="45.64138" lon="2.88204">
        <ele>1158.307</ele>
        <time>2012-09-02T08:44:53Z</time>
      </trkpt>
      <trkpt lat="45.64158" lon="2.88202">
        <ele>1156.8301</ele>
        <time>2012-09-02T08:44:56Z</time>
      </trkpt>
      <trkpt lat="45.64179" lon="2.882">
        <ele>1155.2382</ele>
        <time>2012-09-02T08:44:59Z</time>
      </trkpt>
      <trkpt lat="45.64202" lon="2.88198">
        <ele>1154.2385</ele>
        <time>2012-09-02T08:45:02Z</time>
      </trkpt>
      <trkpt lat="45.64221" lon="2.88194">
        <ele>1153.4818</ele>
        <time>2012-09-02T08:45:04Z</time>
      </trkpt>
      <trkpt lat="45.64247" lon="2.88189">
        <ele>1152.4819</ele>
        <time>2012-09-02T08:45:07Z</time>
      </trkpt>
      <trkpt lat="45.64273" lon="2.88187">
        <ele>1151.6694</ele>
        <time>2012-09-02T08:45:10Z</time>
      </trkpt>
      <trkpt lat="45.64297" lon="2.88192">
        <ele>1150.9985</ele>
        <time>2012-09-02T08:45:13Z</time>
      </trkpt>
      <trkpt lat="45.64322" lon="2.882">
        <ele>1150.2781</ele>
        <time>2012-09-02T08:45:16Z</time>
      </trkpt>
      <trkpt lat="45.64347" lon="2.88209">
        <ele>1149.8335</ele>
        <time>2012-09-02T08:45:19Z</time>
      </trkpt>
      <trkpt lat="45.64372" lon="2.88204">
        <ele>1148.8177</ele>
        <time>2012-09-02T08:45:22Z</time>
      </trkpt>
      <trkpt lat="45.64398" lon="2.88198">
        <ele>1147.3737</ele>
        <time>2012-09-02T08:45:25Z</time>
      </trkpt>
      <trkpt lat="45.64421" lon="2.88189">
        <ele>1145.8582</ele>
        <time>2012-09-02T08:45:28Z</time>
      </trkpt>
      <trkpt lat="45.64444" lon="2.88172">
        <ele>1144.5</ele>
        <time>2012-09-02T08:45:31Z</time>
      </trkpt>
      <trkpt lat="45.64461" lon="2.88153">
        <ele>1143.9271</ele>
        <time>2012-09-02T08:45:34Z</time>
      </trkpt>
      <trkpt lat="45.64474" lon="2.88134">
        <ele>1143.2479</ele>
        <time>2012-09-02T08:45:37Z</time>
      </trkpt>
      <trkpt lat="45.64491" lon="2.88121">
        <ele>1139.9724</ele>
        <time>2012-09-02T08:45:42Z</time>
      </trkpt>
      <trkpt lat="45.64509" lon="2.88108">
        <ele>1137.2655</ele>
        <time>2012-09-02T08:45:47Z</time>
      </trkpt>
      <trkpt lat="45.64531" lon="2.88093">
        <ele>1135.8125</ele>
        <time>2012-09-02T08:45:50Z</time>
      </trkpt>
      <trkpt lat="45.64549" lon="2.88082">
        <ele>1134.8047</ele>
        <time>2012-09-02T08:45:52Z</time>
      </trkpt>
      <trkpt lat="45.64569" lon="2.88071">
        <ele>1133.6182</ele>
        <time>2012-09-02T08:45:55Z</time>
      </trkpt>
      <trkpt lat="45.64591" lon="2.88063">
        <ele>1131.7389</ele>
        <time>2012-09-02T08:45:59Z</time>
      </trkpt>
      <trkpt lat="45.64613" lon="2.88069">
        <ele>1130.3403</ele>
        <time>2012-09-02T08:46:02Z</time>
      </trkpt>
      <trkpt lat="45.64635" lon="2.88078">
        <ele>1129.2816</ele>
        <time>2012-09-02T08:46:05Z</time>
      </trkpt>
      <trkpt lat="45.64654" lon="2.88084">
        <ele>1128.3975</ele>
        <time>2012-09-02T08:46:08Z</time>
      </trkpt>
      <trkpt lat="45.64676" lon="2.88076">
        <ele>1127.7198</ele>
        <time>2012-09-02T08:46:13Z</time>
      </trkpt>
      <trkpt lat="45.64697" lon="2.88063">
        <ele>1126.7151</ele>
        <time>2012-09-02T08:46:20Z</time>
      </trkpt>
      <trkpt lat="45.64716" lon="2.88052">
        <ele>1125.6935</ele>
        <time>2012-09-02T08:46:32Z</time>
      </trkpt>
      <trkpt lat="45.64735" lon="2.88046">
        <ele>1125.5228</ele>
        <time>2012-09-02T08:46:41Z</time>
      </trkpt>
      <trkpt lat="45.6472" lon="2.88026">
        <ele>1127.3088</ele>
        <time>2012-09-02T08:47:06Z</time>
      </trkpt>
      <trkpt lat="45.64705" lon="2.88009">
        <ele>1127.4977</ele>
        <time>2012-09-02T08:47:16Z</time>
      </trkpt>
      <trkpt lat="45.64687" lon="2.87994">
        <ele>1126.7448</ele>
        <time>2012-09-02T08:47:23Z</time>
      </trkpt>
      <trkpt lat="45.64669" lon="2.87983">
        <ele>1125.0546</ele>
        <time>2012-09-02T08:47:31Z</time>
      </trkpt>
      <trkpt lat="45.64648" lon="2.87962">
        <ele>1121.9364</ele>
        <time>2012-09-02T08:47:44Z</time>
      </trkpt>
      <trkpt lat="45.64629" lon="2.87945">
        <ele>1119.3892</ele>
        <time>2012-09-02T08:47:52Z</time>
      </trkpt>
      <trkpt lat="45.64608" lon="2.87928">
        <ele>1117.1501</ele>
        <time>2012-09-02T08:48:01Z</time>
      </trkpt>
      <trkpt lat="45.64591" lon="2.87915">
        <ele>1114.9106</ele>
        <time>2012-09-02T08:48:09Z</time>
      </trkpt>
      <trkpt lat="45.64573" lon="2.87898">
        <ele>1113.7999</ele>
        <time>2012-09-02T08:48:16Z</time>
      </trkpt>
      <trkpt lat="45.64555" lon="2.87878">
        <ele>1113.578</ele>
        <time>2012-09-02T08:48:21Z</time>
      </trkpt>
      <trkpt lat="45.6454" lon="2.87846">
        <ele>1113.5212</ele>
        <time>2012-09-02T08:48:27Z</time>
      </trkpt>
      <trkpt lat="45.64528" lon="2.87822">
        <ele>1112.7479</ele>
        <time>2012-09-02T08:48:34Z</time>
      </trkpt>
      <trkpt lat="45.64516" lon="2.87799">
        <ele>1113.2957</ele>
        <time>2012-09-02T08:48:42Z</time>
      </trkpt>
      <trkpt lat="45.64504" lon="2.87777">
        <ele>1113.7211</ele>
        <time>2012-09-02T08:48:48Z</time>
      </trkpt>
      <trkpt lat="45.6449" lon="2.87754">
        <ele>1114.6998</ele>
        <time>2012-09-02T08:48:57Z</time>
      </trkpt>
      <trkpt lat="45.64475" lon="2.87737">
        <ele>1117.4728</ele>
        <time>2012-09-02T08:49:10Z</time>
      </trkpt>
      <trkpt lat="45.64463" lon="2.87715">
        <ele>1119.0543</ele>
        <time>2012-09-02T08:49:17Z</time>
      </trkpt>
      <trkpt lat="45.64469" lon="2.87687">
        <ele>1120.1117</ele>
        <time>2012-09-02T08:49:23Z</time>
      </trkpt>
      <trkpt lat="45.64478" lon="2.87664">
        <ele>1122.1367</ele>
        <time>2012-09-02T08:49:33Z</time>
      </trkpt>
      <trkpt lat="45.64487" lon="2.8764">
        <ele>1125.3444</ele>
        <time>2012-09-02T08:49:43Z</time>
      </trkpt>
      <trkpt lat="45.64499" lon="2.87619">
        <ele>1127.681</ele>
        <time>2012-09-02T08:49:52Z</time>
      </trkpt>
      <trkpt lat="45.64503" lon="2.87593">
        <ele>1131.6877</ele>
        <time>2012-09-02T08:50:05Z</time>
      </trkpt>
      <trkpt lat="45.645" lon="2.87567">
        <ele>1134.9768</ele>
        <time>2012-09-02T08:50:13Z</time>
      </trkpt>
      <trkpt lat="45.64497" lon="2.87539">
        <ele>1137.7557</ele>
        <time>2012-09-02T08:50:21Z</time>
      </trkpt>
      <trkpt lat="45.64496" lon="2.87513">
        <ele>1139.775</ele>
        <time>2012-09-02T08:50:27Z</time>
      </trkpt>
      <trkpt lat="45.64496" lon="2.87488">
        <ele>1142.6383</ele>
        <time>2012-09-02T08:50:36Z</time>
      </trkpt>
      <trkpt lat="45.64505" lon="2.87464">
        <ele>1144.3103</ele>
        <time>2012-09-02T08:50:49Z</time>
      </trkpt>
      <trkpt lat="45.64507" lon="2.87438">
        <ele>1146.7306</ele>
        <time>2012-09-02T08:51:01Z</time>
      </trkpt>
      <trkpt lat="45.64505" lon="2.87413">
        <ele>1150.4075</ele>
        <time>2012-09-02T08:51:12Z</time>
      </trkpt>
      <trkpt lat="45.64508" lon="2.87387">
        <ele>1155.5028</ele>
        <time>2012-09-02T08:51:25Z</time>
      </trkpt>
      <trkpt lat="45.64508" lon="2.87361">
        <ele>1158.6803</ele>
        <time>2012-09-02T08:51:37Z</time>
      </trkpt>
      <trkpt lat="45.64503" lon="2.87335">
        <ele>1162.4985</ele>
        <time>2012-09-02T08:51:53Z</time>
      </trkpt>
      <trkpt lat="45.64499" lon="2.8731">
        <ele>1164.7704</ele>
        <time>2012-09-02T08:52:04Z</time>
      </trkpt>
      <trkpt lat="45.64496" lon="2.87282">
        <ele>1165.4991</ele>
        <time>2012-09-02T08:52:19Z</time>
      </trkpt>
      <trkpt lat="45.64493" lon="2.87256">
        <ele>1165.5087</ele>
        <time>2012-09-02T08:52:31Z</time>
      </trkpt>
      <trkpt lat="45.64493" lon="2.8723">
        <ele>1164.9309</ele>
        <time>2012-09-02T08:52:44Z</time>
      </trkpt>
      <trkpt lat="45.64499" lon="2.87205">
        <ele>1164.519</ele>
        <time>2012-09-02T08:52:57Z</time>
      </trkpt>
      <trkpt lat="45.64497" lon="2.87177">
        <ele>1166.254</ele>
        <time>2012-09-02T08:53:13Z</time>
      </trkpt>
      <trkpt lat="45.645" lon="2.87151">
        <ele>1167.7231</ele>
        <time>2012-09-02T08:53:19Z</time>
      </trkpt>
      <trkpt lat="45.64504" lon="2.87125">
        <ele>1170.2501</ele>
        <time>2012-09-02T08:53:28Z</time>
      </trkpt>
      <trkpt lat="45.64512" lon="2.87102">
        <ele>1173.7809</ele>
        <time>2012-09-02T08:53:39Z</time>
      </trkpt>
      <trkpt lat="45.64524" lon="2.87078">
        <ele>1174.3362</ele>
        <time>2012-09-02T08:53:44Z</time>
      </trkpt>
      <trkpt lat="45.64536" lon="2.87056">
        <ele>1173.7947</ele>
        <time>2012-09-02T08:53:50Z</time>
      </trkpt>
      <trkpt lat="45.6455" lon="2.87037">
        <ele>1173.5471</ele>
        <time>2012-09-02T08:53:57Z</time>
      </trkpt>
      <trkpt lat="45.64561" lon="2.87014">
        <ele>1173.0782</ele>
        <time>2012-09-02T08:54:03Z</time>
      </trkpt>
      <trkpt lat="45.64571" lon="2.86992">
        <ele>1172.6891</ele>
        <time>2012-09-02T08:54:07Z</time>
      </trkpt>
      <trkpt lat="45.64583" lon="2.86971">
        <ele>1171.9879</ele>
        <time>2012-09-02T08:54:11Z</time>
      </trkpt>
      <trkpt lat="45.64596" lon="2.86945">
        <ele>1171.6227</ele>
        <time>2012-09-02T08:54:16Z</time>
      </trkpt>
      <trkpt lat="45.64607" lon="2.86923">
        <ele>1171.5449</ele>
        <time>2012-09-02T08:54:20Z</time>
      </trkpt>
      <trkpt lat="45.6462" lon="2.86893">
        <ele>1171.2742</ele>
        <time>2012-09-02T08:54:23Z</time>
      </trkpt>
      <trkpt lat="45.64631" lon="2.86872">
        <ele>1171.8474</ele>
        <time>2012-09-02T08:54:26Z</time>
      </trkpt>
      <trkpt lat="45.64639" lon="2.86848">
        <ele>1172.2997</ele>
        <time>2012-09-02T08:54:30Z</time>
      </trkpt>
      <trkpt lat="45.64647" lon="2.86825">
        <ele>1172.0052</ele>
        <time>2012-09-02T08:54:34Z</time>
      </trkpt>
      <trkpt lat="45.64658" lon="2.86801">
        <ele>1170.4043</ele>
        <time>2012-09-02T08:54:38Z</time>
      </trkpt>
      <trkpt lat="45.64672" lon="2.86775">
        <ele>1170.2297</ele>
        <time>2012-09-02T08:54:42Z</time>
      </trkpt>
      <trkpt lat="45.64683" lon="2.86752">
        <ele>1170.9988</ele>
        <time>2012-09-02T08:54:46Z</time>
      </trkpt>
      <trkpt lat="45.6469" lon="2.86726">
        <ele>1171.3475</ele>
        <time>2012-09-02T08:54:50Z</time>
      </trkpt>
      <trkpt lat="45.64696" lon="2.86698">
        <ele>1171.8954</ele>
        <time>2012-09-02T08:54:54Z</time>
      </trkpt>
      <trkpt lat="45.64702" lon="2.86672">
        <ele>1172.5648</ele>
        <time>2012-09-02T08:54:58Z</time>
      </trkpt>
      <trkpt lat="45.64709" lon="2.86642">
        <ele>1173.7224</ele>
        <time>2012-09-02T08:55:03Z</time>
      </trkpt>
      <trkpt lat="45.64714" lon="2.86614">
        <ele>1174.9005</ele>
        <time>2012-09-02T08:55:08Z</time>
      </trkpt>
      <trkpt lat="45.64715" lon="2.86589">
        <ele>1176.5648</ele>
        <time>2012-09-02T08:55:13Z</time>
      </trkpt>
      <trkpt lat="45.64717" lon="2.86563">
        <ele>1178.2185</ele>
        <time>2012-09-02T08:55:18Z</time>
      </trkpt>
      <trkpt lat="45.6472" lon="2.86535">
        <ele>1179.7809</ele>
        <time>2012-09-02T08:55:23Z</time>
      </trkpt>
      <trkpt lat="45.64721" lon="2.86507">
        <ele>1181.0198</ele>
        <time>2012-09-02T08:55:28Z</time>
      </trkpt>
      <trkpt lat="45.64723" lon="2.86481">
        <ele>1182.1556</ele>
        <time>2012-09-02T08:55:33Z</time>
      </trkpt>
      <trkpt lat="45.64725" lon="2.86453">
        <ele>1184.0962</ele>
        <time>2012-09-02T08:55:39Z</time>
      </trkpt>
      <trkpt lat="45.64727" lon="2.86428">
        <ele>1186.1073</ele>
        <time>2012-09-02T08:55:44Z</time>
      </trkpt>
      <trkpt lat="45.64729" lon="2.86402">
        <ele>1188.4597</ele>
        <time>2012-09-02T08:55:50Z</time>
      </trkpt>
      <trkpt lat="45.64731" lon="2.86372">
        <ele>1190.9724</ele>
        <time>2012-09-02T08:55:56Z</time>
      </trkpt>
      <trkpt lat="45.64731" lon="2.86346">
        <ele>1193.1691</ele>
        <time>2012-09-02T08:56:02Z</time>
      </trkpt>
      <trkpt lat="45.64734" lon="2.8632">
        <ele>1194.8302</ele>
        <time>2012-09-02T08:56:09Z</time>
      </trkpt>
      <trkpt lat="45.64735" lon="2.8629">
        <ele>1197.3536</ele>
        <time>2012-09-02T08:56:17Z</time>
      </trkpt>
      <trkpt lat="45.64735" lon="2.8626">
        <ele>1199.1174</ele>
        <time>2012-09-02T08:56:24Z</time>
      </trkpt>
      <trkpt lat="45.64739" lon="2.86232">
        <ele>1200.609</ele>
        <time>2012-09-02T08:56:35Z</time>
      </trkpt>
      <trkpt lat="45.64741" lon="2.86205">
        <ele>1201.7084</ele>
        <time>2012-09-02T08:56:45Z</time>
      </trkpt>
      <trkpt lat="45.64741" lon="2.86168">
        <ele>1204.33</ele>
        <time>2012-09-02T08:57:18Z</time>
      </trkpt>
      <trkpt lat="45.64747" lon="2.86142">
        <ele>1204.4851</ele>
        <time>2012-09-02T08:57:25Z</time>
      </trkpt>
      <trkpt lat="45.64752" lon="2.86117">
        <ele>1204.9408</ele>
        <time>2012-09-02T08:57:30Z</time>
      </trkpt>
      <trkpt lat="45.64754" lon="2.86091">
        <ele>1205.3741</ele>
        <time>2012-09-02T08:57:35Z</time>
      </trkpt>
      <trkpt lat="45.64755" lon="2.86063">
        <ele>1205.0396</ele>
        <time>2012-09-02T08:57:40Z</time>
      </trkpt>
      <trkpt lat="45.64761" lon="2.86037">
        <ele>1204.6769</ele>
        <time>2012-09-02T08:57:44Z</time>
      </trkpt>
      <trkpt lat="45.64766" lon="2.86007">
        <ele>1205.2457</ele>
        <time>2012-09-02T08:57:48Z</time>
      </trkpt>
      <trkpt lat="45.6477" lon="2.85981">
        <ele>1205.9761</ele>
        <time>2012-09-02T08:57:51Z</time>
      </trkpt>
      <trkpt lat="45.64777" lon="2.85958">
        <ele>1205.8467</ele>
        <time>2012-09-02T08:57:54Z</time>
      </trkpt>
      <trkpt lat="45.64785" lon="2.85934">
        <ele>1205.6515</ele>
        <time>2012-09-02T08:57:57Z</time>
      </trkpt>
      <trkpt lat="45.6479" lon="2.85906">
        <ele>1205.9916</ele>
        <time>2012-09-02T08:58:01Z</time>
      </trkpt>
      <trkpt lat="45.64794" lon="2.85876">
        <ele>1206.9644</ele>
        <time>2012-09-02T08:58:06Z</time>
      </trkpt>
      <trkpt lat="45.64796" lon="2.85846">
        <ele>1207.3367</ele>
        <time>2012-09-02T08:58:10Z</time>
      </trkpt>
      <trkpt lat="45.64795" lon="2.85816">
        <ele>1206.5209</ele>
        <time>2012-09-02T08:58:14Z</time>
      </trkpt>
      <trkpt lat="45.64793" lon="2.85788">
        <ele>1205.8292</ele>
        <time>2012-09-02T08:58:18Z</time>
      </trkpt>
      <trkpt lat="45.64788" lon="2.85763">
        <ele>1205.585</ele>
        <time>2012-09-02T08:58:23Z</time>
      </trkpt>
      <trkpt lat="45.64786" lon="2.85737">
        <ele>1205.5226</ele>
        <time>2012-09-02T08:58:29Z</time>
      </trkpt>
      <trkpt lat="45.64784" lon="2.85711">
        <ele>1204.6443</ele>
        <time>2012-09-02T08:58:36Z</time>
      </trkpt>
      <trkpt lat="45.64777" lon="2.85683">
        <ele>1204.5271</ele>
        <time>2012-09-02T08:58:43Z</time>
      </trkpt>
      <trkpt lat="45.64794" lon="2.85707">
        <ele>1206.5016</ele>
        <time>2012-09-02T08:59:55Z</time>
      </trkpt>
      <trkpt lat="45.64811" lon="2.8572">
        <ele>1206.5083</ele>
        <time>2012-09-02T09:00:03Z</time>
      </trkpt>
      <trkpt lat="45.64826" lon="2.85739">
        <ele>1206.5089</ele>
        <time>2012-09-02T09:00:12Z</time>
      </trkpt>
      <trkpt lat="45.64841" lon="2.8576">
        <ele>1206.759</ele>
        <time>2012-09-02T09:00:26Z</time>
      </trkpt>
      <trkpt lat="45.64854" lon="2.8578">
        <ele>1207.7168</ele>
        <time>2012-09-02T09:00:36Z</time>
      </trkpt>
      <trkpt lat="45.6487" lon="2.85797">
        <ele>1208.4297</ele>
        <time>2012-09-02T09:00:44Z</time>
      </trkpt>
      <trkpt lat="45.64888" lon="2.85816">
        <ele>1209.4044</ele>
        <time>2012-09-02T09:00:54Z</time>
      </trkpt>
      <trkpt lat="45.64911" lon="2.85833">
        <ele>1210.7008</ele>
        <time>2012-09-02T09:01:08Z</time>
      </trkpt>
      <trkpt lat="45.64923" lon="2.85808">
        <ele>1212.2969</ele>
        <time>2012-09-02T09:01:19Z</time>
      </trkpt>
      <trkpt lat="45.64933" lon="2.85782">
        <ele>1212.4807</ele>
        <time>2012-09-02T09:01:26Z</time>
      </trkpt>
      <trkpt lat="45.64946" lon="2.85763">
        <ele>1212.5</ele>
        <time>2012-09-02T09:01:30Z</time>
      </trkpt>
      <trkpt lat="45.64962" lon="2.85737">
        <ele>1212.5052</ele>
        <time>2012-09-02T09:01:33Z</time>
      </trkpt>
      <trkpt lat="45.64974" lon="2.85715">
        <ele>1212.5074</ele>
        <time>2012-09-02T09:01:36Z</time>
      </trkpt>
      <trkpt lat="45.64985" lon="2.85692">
        <ele>1212.5083</ele>
        <time>2012-09-02T09:01:39Z</time>
      </trkpt>
      <trkpt lat="45.64997" lon="2.85666">
        <ele>1212.5087</ele>
        <time>2012-09-02T09:01:42Z</time>
      </trkpt>
      <trkpt lat="45.65012" lon="2.85634">
        <ele>1212.2589</ele>
        <time>2012-09-02T09:01:45Z</time>
      </trkpt>
      <trkpt lat="45.65023" lon="2.8561">
        <ele>1211.6808</ele>
        <time>2012-09-02T09:01:47Z</time>
      </trkpt>
      <trkpt lat="45.65038" lon="2.85578">
        <ele>1209.9877</ele>
        <time>2012-09-02T09:01:50Z</time>
      </trkpt>
      <trkpt lat="45.65053" lon="2.85546">
        <ele>1207.8672</ele>
        <time>2012-09-02T09:01:53Z</time>
      </trkpt>
      <trkpt lat="45.65064" lon="2.85524">
        <ele>1206.398</ele>
        <time>2012-09-02T09:01:55Z</time>
      </trkpt>
      <trkpt lat="45.6508" lon="2.85494">
        <ele>1204.4778</ele>
        <time>2012-09-02T09:01:58Z</time>
      </trkpt>
      <trkpt lat="45.65092" lon="2.85473">
        <ele>1203.0896</ele>
        <time>2012-09-02T09:02:01Z</time>
      </trkpt>
      <trkpt lat="45.65105" lon="2.85447">
        <ele>1201.1965</ele>
        <time>2012-09-02T09:02:06Z</time>
      </trkpt>
      <trkpt lat="45.65121" lon="2.85434">
        <ele>1198.5313</ele>
        <time>2012-09-02T09:02:10Z</time>
      </trkpt>
      <trkpt lat="45.65144" lon="2.85432">
        <ele>1196.3729</ele>
        <time>2012-09-02T09:02:20Z</time>
      </trkpt>
      <trkpt lat="45.65165" lon="2.85434">
        <ele>1195.3239</ele>
        <time>2012-09-02T09:02:29Z</time>
      </trkpt>
      <trkpt lat="45.65183" lon="2.85421">
        <ele>1194.6178</ele>
        <time>2012-09-02T09:02:36Z</time>
      </trkpt>
      <trkpt lat="45.65198" lon="2.85402">
        <ele>1193.9567</ele>
        <time>2012-09-02T09:02:41Z</time>
      </trkpt>
      <trkpt lat="45.65221" lon="2.85413">
        <ele>1193.2131</ele>
        <time>2012-09-02T09:02:45Z</time>
      </trkpt>
      <trkpt lat="45.65239" lon="2.85411">
        <ele>1191.9779</ele>
        <time>2012-09-02T09:02:48Z</time>
      </trkpt>
      <trkpt lat="45.65261" lon="2.85404">
        <ele>1187.3911</ele>
        <time>2012-09-02T09:03:01Z</time>
      </trkpt>
      <trkpt lat="45.65283" lon="2.85402">
        <ele>1184.3499</ele>
        <time>2012-09-02T09:03:04Z</time>
      </trkpt>
      <trkpt lat="45.65305" lon="2.854">
        <ele>1181.982</ele>
        <time>2012-09-02T09:03:06Z</time>
      </trkpt>
      <trkpt lat="45.65331" lon="2.85398">
        <ele>1179.775</ele>
        <time>2012-09-02T09:03:08Z</time>
      </trkpt>
      <trkpt lat="45.65354" lon="2.85396">
        <ele>1178.3462</ele>
        <time>2012-09-02T09:03:10Z</time>
      </trkpt>
      <trkpt lat="45.65374" lon="2.85396">
        <ele>1177.1049</ele>
        <time>2012-09-02T09:03:12Z</time>
      </trkpt>
      <trkpt lat="45.654" lon="2.85396">
        <ele>1175.6041</ele>
        <time>2012-09-02T09:03:15Z</time>
      </trkpt>
      <trkpt lat="45.65418" lon="2.85398">
        <ele>1174.5336</ele>
        <time>2012-09-02T09:03:18Z</time>
      </trkpt>
      <trkpt lat="45.65438" lon="2.854">
        <ele>1173.3167</ele>
        <time>2012-09-02T09:03:28Z</time>
      </trkpt>
      <trkpt lat="45.65457" lon="2.85389">
        <ele>1170.9847</ele>
        <time>2012-09-02T09:03:51Z</time>
      </trkpt>
      <trkpt lat="45.65466" lon="2.85366">
        <ele>1169.0876</ele>
        <time>2012-09-02T09:04:08Z</time>
      </trkpt>
      <trkpt lat="45.65464" lon="2.85338">
        <ele>1164.5275</ele>
        <time>2012-09-02T09:04:30Z</time>
      </trkpt>
      <trkpt lat="45.65471" lon="2.85312">
        <ele>1162.0544</ele>
        <time>2012-09-02T09:04:35Z</time>
      </trkpt>
      <trkpt lat="45.65488" lon="2.8529">
        <ele>1160.2976</ele>
        <time>2012-09-02T09:04:40Z</time>
      </trkpt>
      <trkpt lat="45.65504" lon="2.85269">
        <ele>1158.825</ele>
        <time>2012-09-02T09:04:44Z</time>
      </trkpt>
      <trkpt lat="45.65518" lon="2.8525">
        <ele>1157.4879</ele>
        <time>2012-09-02T09:04:48Z</time>
      </trkpt>
      <trkpt lat="45.65531" lon="2.85224">
        <ele>1156.1632</ele>
        <time>2012-09-02T09:04:53Z</time>
      </trkpt>
      <trkpt lat="45.65545" lon="2.85205">
        <ele>1151.4855</ele>
        <time>2012-09-02T09:04:57Z</time>
      </trkpt>
      <trkpt lat="45.6556" lon="2.85185">
        <ele>1145.231</ele>
        <time>2012-09-02T09:05:02Z</time>
      </trkpt>
      <trkpt lat="45.65573" lon="2.85164">
        <ele>1143.1549</ele>
        <time>2012-09-02T09:05:07Z</time>
      </trkpt>
      <trkpt lat="45.65585" lon="2.85145">
        <ele>1141.3423</ele>
        <time>2012-09-02T09:05:11Z</time>
      </trkpt>
      <trkpt lat="45.65601" lon="2.8513">
        <ele>1139.4543</ele>
        <time>2012-09-02T09:05:14Z</time>
      </trkpt>
      <trkpt lat="45.65622" lon="2.85112">
        <ele>1138.3297</ele>
        <time>2012-09-02T09:05:17Z</time>
      </trkpt>
      <trkpt lat="45.65638" lon="2.851">
        <ele>1137.9706</ele>
        <time>2012-09-02T09:05:19Z</time>
      </trkpt>
      <trkpt lat="45.65655" lon="2.85091">
        <ele>1137.7687</ele>
        <time>2012-09-02T09:05:21Z</time>
      </trkpt>
      <trkpt lat="45.6568" lon="2.85084">
        <ele>1137.3685</ele>
        <time>2012-09-02T09:05:24Z</time>
      </trkpt>
      <trkpt lat="45.65701" lon="2.85078">
        <ele>1136.4341</ele>
        <time>2012-09-02T09:05:27Z</time>
      </trkpt>
      <trkpt lat="45.65723" lon="2.85069">
        <ele>1135.8018</ele>
        <time>2012-09-02T09:05:31Z</time>
      </trkpt>
      <trkpt lat="45.65744" lon="2.85059">
        <ele>1135.3285</ele>
        <time>2012-09-02T09:05:36Z</time>
      </trkpt>
      <trkpt lat="45.65759" lon="2.85044">
        <ele>1134.4049</ele>
        <time>2012-09-02T09:05:42Z</time>
      </trkpt>
      <trkpt lat="45.65782" lon="2.85039">
        <ele>1132.9644</ele>
        <time>2012-09-02T09:05:46Z</time>
      </trkpt>
      <trkpt lat="45.65802" lon="2.85033">
        <ele>1132.1229</ele>
        <time>2012-09-02T09:05:49Z</time>
      </trkpt>
      <trkpt lat="45.65822" lon="2.85022">
        <ele>1131.7032</ele>
        <time>2012-09-02T09:05:53Z</time>
      </trkpt>
      <trkpt lat="45.65841" lon="2.85007">
        <ele>1131.1329</ele>
        <time>2012-09-02T09:05:57Z</time>
      </trkpt>
      <trkpt lat="45.65859" lon="2.84994">
        <ele>1130.0847</ele>
        <time>2012-09-02T09:06:00Z</time>
      </trkpt>
      <trkpt lat="45.65879" lon="2.84979">
        <ele>1129.0076</ele>
        <time>2012-09-02T09:06:04Z</time>
      </trkpt>
      <trkpt lat="45.65897" lon="2.84969">
        <ele>1128.2292</ele>
        <time>2012-09-02T09:06:08Z</time>
      </trkpt>
      <trkpt lat="45.65918" lon="2.8496">
        <ele>1126.0338</ele>
        <time>2012-09-02T09:06:12Z</time>
      </trkpt>
      <trkpt lat="45.65938" lon="2.84958">
        <ele>1123.746</ele>
        <time>2012-09-02T09:06:15Z</time>
      </trkpt>
      <trkpt lat="45.65965" lon="2.84958">
        <ele>1120.9371</ele>
        <time>2012-09-02T09:06:18Z</time>
      </trkpt>
      <trkpt lat="45.65987" lon="2.8496">
        <ele>1118.3123</ele>
        <time>2012-09-02T09:06:20Z</time>
      </trkpt>
      <trkpt lat="45.66006" lon="2.84954">
        <ele>1115.7733</ele>
        <time>2012-09-02T09:06:22Z</time>
      </trkpt>
      <trkpt lat="45.66027" lon="2.84947">
        <ele>1113.6577</ele>
        <time>2012-09-02T09:06:24Z</time>
      </trkpt>
      <trkpt lat="45.66049" lon="2.84941">
        <ele>1111.5927</ele>
        <time>2012-09-02T09:06:26Z</time>
      </trkpt>
      <trkpt lat="45.66069" lon="2.84934">
        <ele>1109.556</ele>
        <time>2012-09-02T09:06:28Z</time>
      </trkpt>
      <trkpt lat="45.66089" lon="2.84928">
        <ele>1107.973</ele>
        <time>2012-09-02T09:06:30Z</time>
      </trkpt>
      <trkpt lat="45.66113" lon="2.84921">
        <ele>1106.2985</ele>
        <time>2012-09-02T09:06:33Z</time>
      </trkpt>
      <trkpt lat="45.66135" lon="2.84911">
        <ele>1105.0139</ele>
        <time>2012-09-02T09:06:36Z</time>
      </trkpt>
      <trkpt lat="45.66156" lon="2.84896">
        <ele>1103.4564</ele>
        <time>2012-09-02T09:06:39Z</time>
      </trkpt>
      <trkpt lat="45.66177" lon="2.84876">
        <ele>1101.8931</ele>
        <time>2012-09-02T09:06:42Z</time>
      </trkpt>
      <trkpt lat="45.66187" lon="2.84853">
        <ele>1101.0929</ele>
        <time>2012-09-02T09:06:45Z</time>
      </trkpt>
      <trkpt lat="45.66196" lon="2.84827">
        <ele>1100.0101</ele>
        <time>2012-09-02T09:06:49Z</time>
      </trkpt>
      <trkpt lat="45.66199" lon="2.84799">
        <ele>1099.5981</ele>
        <time>2012-09-02T09:06:55Z</time>
      </trkpt>
      <trkpt lat="45.66211" lon="2.84773">
        <ele>1099.2802</ele>
        <time>2012-09-02T09:07:00Z</time>
      </trkpt>
      <trkpt lat="45.66229" lon="2.84767">
        <ele>1098.8344</ele>
        <time>2012-09-02T09:07:03Z</time>
      </trkpt>
      <trkpt lat="45.66249" lon="2.84763">
        <ele>1098.2087</ele>
        <time>2012-09-02T09:07:06Z</time>
      </trkpt>
      <trkpt lat="45.66271" lon="2.84752">
        <ele>1096.5386</ele>
        <time>2012-09-02T09:07:09Z</time>
      </trkpt>
      <trkpt lat="45.6629" lon="2.84735">
        <ele>1094.9277</ele>
        <time>2012-09-02T09:07:12Z</time>
      </trkpt>
      <trkpt lat="45.66312" lon="2.8472">
        <ele>1093.5294</ele>
        <time>2012-09-02T09:07:15Z</time>
      </trkpt>
      <trkpt lat="45.66331" lon="2.84724">
        <ele>1092.3613</ele>
        <time>2012-09-02T09:07:18Z</time>
      </trkpt>
      <trkpt lat="45.6635" lon="2.84741">
        <ele>1091.3412</ele>
        <time>2012-09-02T09:07:22Z</time>
      </trkpt>
      <trkpt lat="45.6637" lon="2.84754">
        <ele>1090.5223</ele>
        <time>2012-09-02T09:07:26Z</time>
      </trkpt>
      <trkpt lat="45.66388" lon="2.84765">
        <ele>1089.8296</ele>
        <time>2012-09-02T09:07:30Z</time>
      </trkpt>
      <trkpt lat="45.66407" lon="2.84778">
        <ele>1089.6105</ele>
        <time>2012-09-02T09:07:34Z</time>
      </trkpt>
      <trkpt lat="45.66427" lon="2.84793">
        <ele>1088.8575</ele>
        <time>2012-09-02T09:07:38Z</time>
      </trkpt>
      <trkpt lat="45.66446" lon="2.84808">
        <ele>1088.6193</ele>
        <time>2012-09-02T09:07:42Z</time>
      </trkpt>
      <trkpt lat="45.66462" lon="2.84823">
        <ele>1087.9774</ele>
        <time>2012-09-02T09:07:45Z</time>
      </trkpt>
      <trkpt lat="45.66479" lon="2.84833">
        <ele>1087.7067</ele>
        <time>2012-09-02T09:07:48Z</time>
      </trkpt>
      <trkpt lat="45.66497" lon="2.84846">
        <ele>1087.5924</ele>
        <time>2012-09-02T09:07:51Z</time>
      </trkpt>
      <trkpt lat="45.66518" lon="2.84857">
        <ele>1087.5442</ele>
        <time>2012-09-02T09:07:54Z</time>
      </trkpt>
      <trkpt lat="45.66538" lon="2.84868">
        <ele>1086.9457</ele>
        <time>2012-09-02T09:07:57Z</time>
      </trkpt>
      <trkpt lat="45.6656" lon="2.84881">
        <ele>1086.2557</ele>
        <time>2012-09-02T09:08:00Z</time>
      </trkpt>
      <trkpt lat="45.6658" lon="2.84891">
        <ele>1085.824</ele>
        <time>2012-09-02T09:08:03Z</time>
      </trkpt>
      <trkpt lat="45.66601" lon="2.84904">
        <ele>1085.6418</ele>
        <time>2012-09-02T09:08:06Z</time>
      </trkpt>
      <trkpt lat="45.66623" lon="2.84913">
        <ele>1085.5651</ele>
        <time>2012-09-02T09:08:09Z</time>
      </trkpt>
      <trkpt lat="45.66649" lon="2.84919">
        <ele>1085.5327</ele>
        <time>2012-09-02T09:08:12Z</time>
      </trkpt>
      <trkpt lat="45.66668" lon="2.84926">
        <ele>1085.2723</ele>
        <time>2012-09-02T09:08:14Z</time>
      </trkpt>
      <trkpt lat="45.66687" lon="2.84932">
        <ele>1084.9384</ele>
        <time>2012-09-02T09:08:16Z</time>
      </trkpt>
      <trkpt lat="45.66709" lon="2.84941">
        <ele>1084.7505</ele>
        <time>2012-09-02T09:08:18Z</time>
      </trkpt>
      <trkpt lat="45.6673" lon="2.84951">
        <ele>1084.3949</ele>
        <time>2012-09-02T09:08:20Z</time>
      </trkpt>
      <trkpt lat="45.66753" lon="2.84962">
        <ele>1084.0073</ele>
        <time>2012-09-02T09:08:22Z</time>
      </trkpt>
      <trkpt lat="45.66776" lon="2.84971">
        <ele>1083.5393</ele>
        <time>2012-09-02T09:08:24Z</time>
      </trkpt>
      <trkpt lat="45.668" lon="2.84981">
        <ele>1082.651</ele>
        <time>2012-09-02T09:08:26Z</time>
      </trkpt>
      <trkpt lat="45.66823" lon="2.84988">
        <ele>1081.4639</ele>
        <time>2012-09-02T09:08:28Z</time>
      </trkpt>
      <trkpt lat="45.66846" lon="2.84997">
        <ele>1079.9211</ele>
        <time>2012-09-02T09:08:30Z</time>
      </trkpt>
      <trkpt lat="45.66869" lon="2.85005">
        <ele>1078.4283</ele>
        <time>2012-09-02T09:08:32Z</time>
      </trkpt>
      <trkpt lat="45.66892" lon="2.85018">
        <ele>1077.1511</ele>
        <time>2012-09-02T09:08:34Z</time>
      </trkpt>
      <trkpt lat="45.66919" lon="2.85031">
        <ele>1076.4327</ele>
        <time>2012-09-02T09:08:36Z</time>
      </trkpt>
      <trkpt lat="45.66945" lon="2.85046">
        <ele>1076.0286</ele>
        <time>2012-09-02T09:08:38Z</time>
      </trkpt>
      <trkpt lat="45.6697" lon="2.85059">
        <ele>1076.0513</ele>
        <time>2012-09-02T09:08:40Z</time>
      </trkpt>
      <trkpt lat="45.66994" lon="2.85067">
        <ele>1075.564</ele>
        <time>2012-09-02T09:08:42Z</time>
      </trkpt>
      <trkpt lat="45.67017" lon="2.85072">
        <ele>1073.4774</ele>
        <time>2012-09-02T09:08:44Z</time>
      </trkpt>
      <trkpt lat="45.6704" lon="2.85076">
        <ele>1070.3662</ele>
        <time>2012-09-02T09:08:46Z</time>
      </trkpt>
      <trkpt lat="45.67063" lon="2.8508">
        <ele>1066.8662</ele>
        <time>2012-09-02T09:08:48Z</time>
      </trkpt>
      <trkpt lat="45.67085" lon="2.85084">
        <ele>1063.3975</ele>
        <time>2012-09-02T09:08:50Z</time>
      </trkpt>
      <trkpt lat="45.67107" lon="2.85091">
        <ele>1060.5713</ele>
        <time>2012-09-02T09:08:52Z</time>
      </trkpt>
      <trkpt lat="45.67127" lon="2.85097">
        <ele>1058.5441</ele>
        <time>2012-09-02T09:08:54Z</time>
      </trkpt>
      <trkpt lat="45.67146" lon="2.85102">
        <ele>1056.7787</ele>
        <time>2012-09-02T09:08:56Z</time>
      </trkpt>
      <trkpt lat="45.67165" lon="2.85108">
        <ele>1055.0981</ele>
        <time>2012-09-02T09:08:58Z</time>
      </trkpt>
      <trkpt lat="45.67188" lon="2.85115">
        <ele>1052.3357</ele>
        <time>2012-09-02T09:09:01Z</time>
      </trkpt>
      <trkpt lat="45.67207" lon="2.85119">
        <ele>1049.6859</ele>
        <time>2012-09-02T09:09:04Z</time>
      </trkpt>
      <trkpt lat="45.67228" lon="2.85119">
        <ele>1046.686</ele>
        <time>2012-09-02T09:09:08Z</time>
      </trkpt>
      <trkpt lat="45.67247" lon="2.85117">
        <ele>1044.0768</ele>
        <time>2012-09-02T09:09:12Z</time>
      </trkpt>
      <trkpt lat="45.67268" lon="2.85117">
        <ele>1042.1183</ele>
        <time>2012-09-02T09:09:17Z</time>
      </trkpt>
      <trkpt lat="45.67288" lon="2.85112">
        <ele>1040.8909</ele>
        <time>2012-09-02T09:09:22Z</time>
      </trkpt>
      <trkpt lat="45.67307" lon="2.85106">
        <ele>1039.8369</ele>
        <time>2012-09-02T09:09:27Z</time>
      </trkpt>
      <trkpt lat="45.67328" lon="2.85097">
        <ele>1038.9032</ele>
        <time>2012-09-02T09:09:32Z</time>
      </trkpt>
      <trkpt lat="45.67348" lon="2.85089">
        <ele>1038.6025</ele>
        <time>2012-09-02T09:09:37Z</time>
      </trkpt>
      <trkpt lat="45.67367" lon="2.85084">
        <ele>1037.9531</ele>
        <time>2012-09-02T09:09:42Z</time>
      </trkpt>
      <trkpt lat="45.67386" lon="2.85084">
        <ele>1037.5535</ele>
        <time>2012-09-02T09:09:50Z</time>
      </trkpt>
      <trkpt lat="45.67405" lon="2.85084">
        <ele>1037.5149</ele>
        <time>2012-09-02T09:09:57Z</time>
      </trkpt>
      <trkpt lat="45.67423" lon="2.85087">
        <ele>1037.5098</ele>
        <time>2012-09-02T09:10:04Z</time>
      </trkpt>
      <trkpt lat="45.67444" lon="2.85093">
        <ele>1037.5092</ele>
        <time>2012-09-02T09:10:11Z</time>
      </trkpt>
      <trkpt lat="45.6747" lon="2.85095">
        <ele>1036.6091</ele>
        <time>2012-09-02T09:10:20Z</time>
      </trkpt>
      <trkpt lat="45.67489" lon="2.85097">
        <ele>1035.9546</ele>
        <time>2012-09-02T09:10:25Z</time>
      </trkpt>
      <trkpt lat="45.67509" lon="2.85102">
        <ele>1035.5883</ele>
        <time>2012-09-02T09:10:31Z</time>
      </trkpt>
      <trkpt lat="45.67528" lon="2.85104">
        <ele>1035.5134</ele>
        <time>2012-09-02T09:10:41Z</time>
      </trkpt>
      <trkpt lat="45.67547" lon="2.851">
        <ele>1036.1929</ele>
        <time>2012-09-02T09:10:50Z</time>
      </trkpt>
      <trkpt lat="45.67559" lon="2.85072">
        <ele>1037.7479</ele>
        <time>2012-09-02T09:10:59Z</time>
      </trkpt>
      <trkpt lat="45.67573" lon="2.85054">
        <ele>1041.4677</ele>
        <time>2012-09-02T09:11:15Z</time>
      </trkpt>
      <trkpt lat="45.67595" lon="2.85063">
        <ele>1046.306</ele>
        <time>2012-09-02T09:11:24Z</time>
      </trkpt>
      <trkpt lat="45.67616" lon="2.85074">
        <ele>1048.2362</ele>
        <time>2012-09-02T09:11:29Z</time>
      </trkpt>
      <trkpt lat="45.67634" lon="2.85082">
        <ele>1049.1063</ele>
        <time>2012-09-02T09:11:33Z</time>
      </trkpt>
      <trkpt lat="45.67655" lon="2.85084">
        <ele>1050.2906</ele>
        <time>2012-09-02T09:11:41Z</time>
      </trkpt>
      <trkpt lat="45.67673" lon="2.85074">
        <ele>1051.3218</ele>
        <time>2012-09-02T09:11:52Z</time>
      </trkpt>
      <trkpt lat="45.67688" lon="2.85059">
        <ele>1051.7146</ele>
        <time>2012-09-02T09:11:57Z</time>
      </trkpt>
      <trkpt lat="45.67709" lon="2.85054">
        <ele>1052.2577</ele>
        <time>2012-09-02T09:12:01Z</time>
      </trkpt>
      <trkpt lat="45.67732" lon="2.85054">
        <ele>1052.5905</ele>
        <time>2012-09-02T09:12:04Z</time>
      </trkpt>
      <trkpt lat="45.67752" lon="2.85054">
        <ele>1052.8048</ele>
        <time>2012-09-02T09:12:06Z</time>
      </trkpt>
      <trkpt lat="45.67773" lon="2.85052">
        <ele>1053.5504</ele>
        <time>2012-09-02T09:12:08Z</time>
      </trkpt>
      <trkpt lat="45.67792" lon="2.8505">
        <ele>1053.9697</ele>
        <time>2012-09-02T09:12:10Z</time>
      </trkpt>
      <trkpt lat="45.67812" lon="2.85046">
        <ele>1054.2057</ele>
        <time>2012-09-02T09:12:12Z</time>
      </trkpt>
      <trkpt lat="45.67835" lon="2.85039">
        <ele>1054.8185</ele>
        <time>2012-09-02T09:12:15Z</time>
      </trkpt>
      <trkpt lat="45.67856" lon="2.85031">
        <ele>1056.0459</ele>
        <time>2012-09-02T09:12:18Z</time>
      </trkpt>
      <trkpt lat="45.67873" lon="2.85022">
        <ele>1057.3292</ele>
        <time>2012-09-02T09:12:21Z</time>
      </trkpt>
      <trkpt lat="45.67893" lon="2.85009">
        <ele>1058.1357</ele>
        <time>2012-09-02T09:12:25Z</time>
      </trkpt>
      <trkpt lat="45.67911" lon="2.84999">
        <ele>1058.3909</ele>
        <time>2012-09-02T09:12:29Z</time>
      </trkpt>
      <trkpt lat="45.6793" lon="2.84984">
        <ele>1058.9185</ele>
        <time>2012-09-02T09:12:34Z</time>
      </trkpt>
      <trkpt lat="45.67948" lon="2.84975">
        <ele>1059.3689</ele>
        <time>2012-09-02T09:12:39Z</time>
      </trkpt>
      <trkpt lat="45.6797" lon="2.84988">
        <ele>1060.9655</ele>
        <time>2012-09-02T09:12:42Z</time>
      </trkpt>
      <trkpt lat="45.67991" lon="2.84997">
        <ele>1063.2032</ele>
        <time>2012-09-02T09:12:44Z</time>
      </trkpt>
      <trkpt lat="45.68012" lon="2.85003">
        <ele>1065.337</ele>
        <time>2012-09-02T09:12:46Z</time>
      </trkpt>
      <trkpt lat="45.68034" lon="2.85007">
        <ele>1066.7247</ele>
        <time>2012-09-02T09:12:48Z</time>
      </trkpt>
      <trkpt lat="45.68054" lon="2.85012">
        <ele>1067.5054</ele>
        <time>2012-09-02T09:12:50Z</time>
      </trkpt>
      <trkpt lat="45.68074" lon="2.8502">
        <ele>1067.6945</ele>
        <time>2012-09-02T09:12:52Z</time>
      </trkpt>
      <trkpt lat="45.681" lon="2.85027">
        <ele>1066.2383</ele>
        <time>2012-09-02T09:12:54Z</time>
      </trkpt>
      <trkpt lat="45.68133" lon="2.85035">
        <ele>1063.6692</ele>
        <time>2012-09-02T09:12:56Z</time>
      </trkpt>
      <trkpt lat="45.68169" lon="2.85044">
        <ele>1060.4741</ele>
        <time>2012-09-02T09:12:58Z</time>
      </trkpt>
      <trkpt lat="45.68199" lon="2.8505">
        <ele>1057.1769</ele>
        <time>2012-09-02T09:13:00Z</time>
      </trkpt>
      <trkpt lat="45.68224" lon="2.85057">
        <ele>1054.4471</ele>
        <time>2012-09-02T09:13:02Z</time>
      </trkpt>
      <trkpt lat="45.68245" lon="2.85059">
        <ele>1052.2867</ele>
        <time>2012-09-02T09:13:04Z</time>
      </trkpt>
      <trkpt lat="45.68264" lon="2.85063">
        <ele>1050.634</ele>
        <time>2012-09-02T09:13:06Z</time>
      </trkpt>
      <trkpt lat="45.68283" lon="2.85067">
        <ele>1049.2668</ele>
        <time>2012-09-02T09:13:08Z</time>
      </trkpt>
      <trkpt lat="45.68308" lon="2.85072">
        <ele>1047.5631</ele>
        <time>2012-09-02T09:13:11Z</time>
      </trkpt>
      <trkpt lat="45.68327" lon="2.85074">
        <ele>1045.6881</ele>
        <time>2012-09-02T09:13:14Z</time>
      </trkpt>
      <trkpt lat="45.68346" lon="2.8508">
        <ele>1043.9908</ele>
        <time>2012-09-02T09:13:17Z</time>
      </trkpt>
      <trkpt lat="45.68362" lon="2.85095">
        <ele>1042.306</ele>
        <time>2012-09-02T09:13:20Z</time>
      </trkpt>
      <trkpt lat="45.68377" lon="2.85121">
        <ele>1040.8276</ele>
        <time>2012-09-02T09:13:24Z</time>
      </trkpt>
      <trkpt lat="45.6839" lon="2.8514">
        <ele>1039.4886</ele>
        <time>2012-09-02T09:13:28Z</time>
      </trkpt>
      <trkpt lat="45.68402" lon="2.85168">
        <ele>1037.4479</ele>
        <time>2012-09-02T09:13:32Z</time>
      </trkpt>
      <trkpt lat="45.68407" lon="2.85194">
        <ele>1036.3496</ele>
        <time>2012-09-02T09:13:34Z</time>
      </trkpt>
      <trkpt lat="45.68416" lon="2.85228">
        <ele>1034.848</ele>
        <time>2012-09-02T09:13:37Z</time>
      </trkpt>
      <trkpt lat="45.68425" lon="2.85263">
        <ele>1033.2457</ele>
        <time>2012-09-02T09:13:40Z</time>
      </trkpt>
      <trkpt lat="45.68435" lon="2.85295">
        <ele>1031.8042</ele>
        <time>2012-09-02T09:13:43Z</time>
      </trkpt>
      <trkpt lat="45.68442" lon="2.85318">
        <ele>1030.8</ele>
        <time>2012-09-02T09:13:45Z</time>
      </trkpt>
      <trkpt lat="45.68456" lon="2.85351">
        <ele>1029.2256</ele>
        <time>2012-09-02T09:13:48Z</time>
      </trkpt>
      <trkpt lat="45.68474" lon="2.85376">
        <ele>1027.405</ele>
        <time>2012-09-02T09:13:51Z</time>
      </trkpt>
      <trkpt lat="45.68486" lon="2.85396">
        <ele>1025.8713</ele>
        <time>2012-09-02T09:13:54Z</time>
      </trkpt>
      <trkpt lat="45.68501" lon="2.85421">
        <ele>1023.819</ele>
        <time>2012-09-02T09:13:58Z</time>
      </trkpt>
      <trkpt lat="45.68513" lon="2.85443">
        <ele>1022.2335</ele>
        <time>2012-09-02T09:14:01Z</time>
      </trkpt>
      <trkpt lat="45.68529" lon="2.85462">
        <ele>1020.549</ele>
        <time>2012-09-02T09:14:04Z</time>
      </trkpt>
      <trkpt lat="45.68547" lon="2.85477">
        <ele>1017.5259</ele>
        <time>2012-09-02T09:14:07Z</time>
      </trkpt>
      <trkpt lat="45.68563" lon="2.8549">
        <ele>1015.5185</ele>
        <time>2012-09-02T09:14:09Z</time>
      </trkpt>
      <trkpt lat="45.6858" lon="2.85501">
        <ele>1013.95184</ele>
        <time>2012-09-02T09:14:11Z</time>
      </trkpt>
      <trkpt lat="45.68601" lon="2.85511">
        <ele>1011.9614</ele>
        <time>2012-09-02T09:14:14Z</time>
      </trkpt>
      <trkpt lat="45.68624" lon="2.85511">
        <ele>1010.10614</ele>
        <time>2012-09-02T09:14:17Z</time>
      </trkpt>
      <trkpt lat="45.68645" lon="2.85524">
        <ele>1007.5026</ele>
        <time>2012-09-02T09:14:21Z</time>
      </trkpt>
      <trkpt lat="45.6867" lon="2.85546">
        <ele>1005.0844</ele>
        <time>2012-09-02T09:14:24Z</time>
      </trkpt>
      <trkpt lat="45.6869" lon="2.85559">
        <ele>1002.8327</ele>
        <time>2012-09-02T09:14:26Z</time>
      </trkpt>
      <trkpt lat="45.68709" lon="2.85569">
        <ele>1000.6911</ele>
        <time>2012-09-02T09:14:28Z</time>
      </trkpt>
      <trkpt lat="45.68726" lon="2.85578">
        <ele>998.8614</ele>
        <time>2012-09-02T09:14:30Z</time>
      </trkpt>
      <trkpt lat="45.68749" lon="2.85591">
        <ele>996.6733</ele>
        <time>2012-09-02T09:14:33Z</time>
      </trkpt>
      <trkpt lat="45.68768" lon="2.85604">
        <ele>994.73456</ele>
        <time>2012-09-02T09:14:36Z</time>
      </trkpt>
      <trkpt lat="45.68787" lon="2.85625">
        <ele>992.4323</ele>
        <time>2012-09-02T09:14:39Z</time>
      </trkpt>
      <trkpt lat="45.68802" lon="2.85642">
        <ele>990.9033</ele>
        <time>2012-09-02T09:14:41Z</time>
      </trkpt>
      <trkpt lat="45.68816" lon="2.8566">
        <ele>989.16833</ele>
        <time>2012-09-02T09:14:43Z</time>
      </trkpt>
      <trkpt lat="45.68833" lon="2.85675">
        <ele>987.5674</ele>
        <time>2012-09-02T09:14:45Z</time>
      </trkpt>
      <trkpt lat="45.6885" lon="2.8569">
        <ele>986.6668</ele>
        <time>2012-09-02T09:14:47Z</time>
      </trkpt>
      <trkpt lat="45.68869" lon="2.85702">
        <ele>985.9103</ele>
        <time>2012-09-02T09:14:49Z</time>
      </trkpt>
      <trkpt lat="45.6889" lon="2.85713">
        <ele>984.85974</ele>
        <time>2012-09-02T09:14:51Z</time>
      </trkpt>
      <trkpt lat="45.68909" lon="2.85724">
        <ele>984.0188</ele>
        <time>2012-09-02T09:14:53Z</time>
      </trkpt>
      <trkpt lat="45.68932" lon="2.85739">
        <ele>982.89594</ele>
        <time>2012-09-02T09:14:56Z</time>
      </trkpt>
      <trkpt lat="45.68953" lon="2.85754">
        <ele>980.9691</ele>
        <time>2012-09-02T09:14:59Z</time>
      </trkpt>
      <trkpt lat="45.68972" lon="2.8576">
        <ele>978.28125</ele>
        <time>2012-09-02T09:15:02Z</time>
      </trkpt>
      <trkpt lat="45.68995" lon="2.85763">
        <ele>974.1473</ele>
        <time>2012-09-02T09:15:05Z</time>
      </trkpt>
      <trkpt lat="45.69013" lon="2.85769">
        <ele>970.74304</ele>
        <time>2012-09-02T09:15:07Z</time>
      </trkpt>
      <trkpt lat="45.69031" lon="2.85775">
        <ele>967.0781</ele>
        <time>2012-09-02T09:15:09Z</time>
      </trkpt>
      <trkpt lat="45.69051" lon="2.85782">
        <ele>963.51666</ele>
        <time>2012-09-02T09:15:11Z</time>
      </trkpt>
      <trkpt lat="45.69071" lon="2.85788">
        <ele>960.2008</ele>
        <time>2012-09-02T09:15:13Z</time>
      </trkpt>
      <trkpt lat="45.6909" lon="2.85793">
        <ele>957.02313</ele>
        <time>2012-09-02T09:15:15Z</time>
      </trkpt>
      <trkpt lat="45.6911" lon="2.85795">
        <ele>954.1107</ele>
        <time>2012-09-02T09:15:17Z</time>
      </trkpt>
      <trkpt lat="45.69133" lon="2.85805">
        <ele>950.1847</ele>
        <time>2012-09-02T09:15:20Z</time>
      </trkpt>
      <trkpt lat="45.69137" lon="2.85831">
        <ele>938.1522</ele>
        <time>2012-09-02T09:15:26Z</time>
      </trkpt>
      <trkpt lat="45.69124" lon="2.85857">
        <ele>931.78033</ele>
        <time>2012-09-02T09:15:29Z</time>
      </trkpt>
      <trkpt lat="45.69106" lon="2.85878">
        <ele>924.35785</ele>
        <time>2012-09-02T09:15:32Z</time>
      </trkpt>
      <trkpt lat="45.69081" lon="2.85889">
        <ele>915.5859</ele>
        <time>2012-09-02T09:15:35Z</time>
      </trkpt>
      <trkpt lat="45.69058" lon="2.85904">
        <ele>907.80707</ele>
        <time>2012-09-02T09:15:38Z</time>
      </trkpt>
      <trkpt lat="45.69041" lon="2.85934">
        <ele>902.32227</ele>
        <time>2012-09-02T09:15:41Z</time>
      </trkpt>
      <trkpt lat="45.69028" lon="2.8596">
        <ele>899.52893</ele>
        <time>2012-09-02T09:15:43Z</time>
      </trkpt>
      <trkpt lat="45.69013" lon="2.85988">
        <ele>897.3327</ele>
        <time>2012-09-02T09:15:45Z</time>
      </trkpt>
      <trkpt lat="45.68999" lon="2.86016">
        <ele>895.40985</ele>
        <time>2012-09-02T09:15:47Z</time>
      </trkpt>
      <trkpt lat="45.68987" lon="2.8605">
        <ele>893.45325</ele>
        <time>2012-09-02T09:15:49Z</time>
      </trkpt>
      <trkpt lat="45.6898" lon="2.86082">
        <ele>891.2276</ele>
        <time>2012-09-02T09:15:51Z</time>
      </trkpt>
      <trkpt lat="45.68978" lon="2.8611">
        <ele>888.6632</ele>
        <time>2012-09-02T09:15:53Z</time>
      </trkpt>
      <trkpt lat="45.68992" lon="2.86138">
        <ele>884.9959</ele>
        <time>2012-09-02T09:15:56Z</time>
      </trkpt>
      <trkpt lat="45.69011" lon="2.86157">
        <ele>882.1519</ele>
        <time>2012-09-02T09:15:59Z</time>
      </trkpt>
      <trkpt lat="45.69027" lon="2.86183">
        <ele>879.79584</ele>
        <time>2012-09-02T09:16:02Z</time>
      </trkpt>
      <trkpt lat="45.69035" lon="2.86209">
        <ele>878.10785</ele>
        <time>2012-09-02T09:16:04Z</time>
      </trkpt>
      <trkpt lat="45.69055" lon="2.8623">
        <ele>875.9179</ele>
        <time>2012-09-02T09:16:07Z</time>
      </trkpt>
      <trkpt lat="45.69073" lon="2.86235">
        <ele>874.1765</ele>
        <time>2012-09-02T09:16:09Z</time>
      </trkpt>
      <trkpt lat="45.69098" lon="2.86245">
        <ele>871.2281</ele>
        <time>2012-09-02T09:16:12Z</time>
      </trkpt>
      <trkpt lat="45.69122" lon="2.86263">
        <ele>867.953</ele>
        <time>2012-09-02T09:16:15Z</time>
      </trkpt>
      <trkpt lat="45.69138" lon="2.8629">
        <ele>865.1338</ele>
        <time>2012-09-02T09:16:18Z</time>
      </trkpt>
      <trkpt lat="45.69149" lon="2.8632">
        <ele>862.3507</ele>
        <time>2012-09-02T09:16:21Z</time>
      </trkpt>
      <trkpt lat="45.69156" lon="2.8635">
        <ele>859.6922</ele>
        <time>2012-09-02T09:16:24Z</time>
      </trkpt>
      <trkpt lat="45.6916" lon="2.86381">
        <ele>856.68805</ele>
        <time>2012-09-02T09:16:28Z</time>
      </trkpt>
      <trkpt lat="45.69168" lon="2.86404">
        <ele>854.9908</ele>
        <time>2012-09-02T09:16:31Z</time>
      </trkpt>
      <trkpt lat="45.69181" lon="2.8643">
        <ele>853.306</ele>
        <time>2012-09-02T09:16:34Z</time>
      </trkpt>
      <trkpt lat="45.69192" lon="2.8646">
        <ele>852.0171</ele>
        <time>2012-09-02T09:16:37Z</time>
      </trkpt>
      <trkpt lat="45.69201" lon="2.86486">
        <ele>851.14526</ele>
        <time>2012-09-02T09:16:40Z</time>
      </trkpt>
      <trkpt lat="45.69205" lon="2.86514">
        <ele>850.3399</ele>
        <time>2012-09-02T09:16:43Z</time>
      </trkpt>
      <trkpt lat="45.6921" lon="2.86539">
        <ele>849.3344</ele>
        <time>2012-09-02T09:16:47Z</time>
      </trkpt>
      <trkpt lat="45.69217" lon="2.86567">
        <ele>846.8211</ele>
        <time>2012-09-02T09:16:52Z</time>
      </trkpt>
      <trkpt lat="45.69225" lon="2.86591">
        <ele>845.346</ele>
        <time>2012-09-02T09:16:56Z</time>
      </trkpt>
      <trkpt lat="45.69234" lon="2.86617">
        <ele>844.65796</ele>
        <time>2012-09-02T09:17:02Z</time>
      </trkpt>
      <trkpt lat="45.69237" lon="2.86644">
        <ele>843.7019</ele>
        <time>2012-09-02T09:17:10Z</time>
      </trkpt>
      <trkpt lat="45.6923" lon="2.86668">
        <ele>843.54333</ele>
        <time>2012-09-02T09:17:16Z</time>
      </trkpt>
      <trkpt lat="45.69229" lon="2.86696">
        <ele>843.51514</ele>
        <time>2012-09-02T09:17:22Z</time>
      </trkpt>
      <trkpt lat="45.69217" lon="2.86717">
        <ele>843.5101</ele>
        <time>2012-09-02T09:17:28Z</time>
      </trkpt>
      <trkpt lat="45.6921" lon="2.86743">
        <ele>843.50916</ele>
        <time>2012-09-02T09:17:35Z</time>
      </trkpt>
      <trkpt lat="45.69217" lon="2.86771">
        <ele>842.9309</ele>
        <time>2012-09-02T09:17:39Z</time>
      </trkpt>
      <trkpt lat="45.69214" lon="2.86801">
        <ele>841.7089</ele>
        <time>2012-09-02T09:17:43Z</time>
      </trkpt>
      <trkpt lat="45.69199" lon="2.86816">
        <ele>839.7676</ele>
        <time>2012-09-02T09:17:47Z</time>
      </trkpt>
      <trkpt lat="45.69178" lon="2.86829">
        <ele>837.4366</ele>
        <time>2012-09-02T09:17:52Z</time>
      </trkpt>
      <trkpt lat="45.69161" lon="2.86838">
        <ele>834.7478</ele>
        <time>2012-09-02T09:17:56Z</time>
      </trkpt>
      <trkpt lat="45.6914" lon="2.86844">
        <ele>831.6692</ele>
        <time>2012-09-02T09:18:01Z</time>
      </trkpt>
      <trkpt lat="45.69119" lon="2.86846">
        <ele>829.79736</ele>
        <time>2012-09-02T09:18:08Z</time>
      </trkpt>
      <trkpt lat="45.69098" lon="2.86846">
        <ele>828.26495</ele>
        <time>2012-09-02T09:18:13Z</time>
      </trkpt>
      <trkpt lat="45.69078" lon="2.86846">
        <ele>825.72546</ele>
        <time>2012-09-02T09:18:18Z</time>
      </trkpt>
      <trkpt lat="45.69056" lon="2.8685">
        <ele>822.3641</ele>
        <time>2012-09-02T09:18:23Z</time>
      </trkpt>
      <trkpt lat="45.69034" lon="2.8685">
        <ele>819.4238</ele>
        <time>2012-09-02T09:18:28Z</time>
      </trkpt>
      <trkpt lat="45.69014" lon="2.86848">
        <ele>818.79846</ele>
        <time>2012-09-02T09:18:32Z</time>
      </trkpt>
      <trkpt lat="45.68997" lon="2.86857">
        <ele>817.917</ele>
        <time>2012-09-02T09:18:36Z</time>
      </trkpt>
      <trkpt lat="45.68982" lon="2.86878">
        <ele>818.4036</ele>
        <time>2012-09-02T09:18:42Z</time>
      </trkpt>
      <trkpt lat="45.68971" lon="2.86902">
        <ele>819.4967</ele>
        <time>2012-09-02T09:18:47Z</time>
      </trkpt>
      <trkpt lat="45.68964" lon="2.86926">
        <ele>821.7825</ele>
        <time>2012-09-02T09:18:51Z</time>
      </trkpt>
      <trkpt lat="45.68954" lon="2.86951">
        <ele>822.9627</ele>
        <time>2012-09-02T09:18:55Z</time>
      </trkpt>
      <trkpt lat="45.68948" lon="2.86979">
        <ele>823.37933</ele>
        <time>2012-09-02T09:19:00Z</time>
      </trkpt>
      <trkpt lat="45.68948" lon="2.87005">
        <ele>824.0461</ele>
        <time>2012-09-02T09:19:04Z</time>
      </trkpt>
      <trkpt lat="45.68947" lon="2.87041">
        <ele>824.47424</ele>
        <time>2012-09-02T09:19:13Z</time>
      </trkpt>
      <trkpt lat="45.68946" lon="2.87069">
        <ele>824.5064</ele>
        <time>2012-09-02T09:19:22Z</time>
      </trkpt>
      <trkpt lat="45.68963" lon="2.87102">
        <ele>827.80316</ele>
        <time>2012-09-02T09:19:46Z</time>
      </trkpt>
      <trkpt lat="45.68971" lon="2.87127">
        <ele>830.3509</ele>
        <time>2012-09-02T09:19:54Z</time>
      </trkpt>
      <trkpt lat="45.68978" lon="2.87157">
        <ele>832.40576</ele>
        <time>2012-09-02T09:20:02Z</time>
      </trkpt>
      <trkpt lat="45.6898" lon="2.87192">
        <ele>835.6843</ele>
        <time>2012-09-02T09:20:13Z</time>
      </trkpt>
      <trkpt lat="45.68979" lon="2.87224">
        <ele>840.195</ele>
        <time>2012-09-02T09:20:25Z</time>
      </trkpt>
      <trkpt lat="45.68977" lon="2.87254">
        <ele>843.7776</ele>
        <time>2012-09-02T09:20:37Z</time>
      </trkpt>
      <trkpt lat="45.6897" lon="2.87282">
        <ele>847.4328</ele>
        <time>2012-09-02T09:20:48Z</time>
      </trkpt>
      <trkpt lat="45.68963" lon="2.87308">
        <ele>851.583</ele>
        <time>2012-09-02T09:21:01Z</time>
      </trkpt>
      <trkpt lat="45.68957" lon="2.87335">
        <ele>855.5745</ele>
        <time>2012-09-02T09:21:15Z</time>
      </trkpt>
      <trkpt lat="45.68949" lon="2.8737">
        <ele>858.926</ele>
        <time>2012-09-02T09:21:36Z</time>
      </trkpt>
      <trkpt lat="45.6894" lon="2.87398">
        <ele>861.643</ele>
        <time>2012-09-02T09:21:52Z</time>
      </trkpt>
      <trkpt lat="45.68935" lon="2.87423">
        <ele>864.11273</ele>
        <time>2012-09-02T09:22:08Z</time>
      </trkpt>
      <trkpt lat="45.68927" lon="2.87447">
        <ele>868.6839</ele>
        <time>2012-09-02T09:22:25Z</time>
      </trkpt>
      <trkpt lat="45.68922" lon="2.87473">
        <ele>873.40027</ele>
        <time>2012-09-02T09:22:43Z</time>
      </trkpt>
      <trkpt lat="45.68913" lon="2.87496">
        <ele>878.2961</ele>
        <time>2012-09-02T09:23:02Z</time>
      </trkpt>
      <trkpt lat="45.6891" lon="2.87522">
        <ele>881.8952</ele>
        <time>2012-09-02T09:23:17Z</time>
      </trkpt>
      <trkpt lat="45.68912" lon="2.87548">
        <ele>884.7783</ele>
        <time>2012-09-02T09:23:31Z</time>
      </trkpt>
      <trkpt lat="45.68913" lon="2.87574">
        <ele>887.5073</ele>
        <time>2012-09-02T09:23:44Z</time>
      </trkpt>
      <trkpt lat="45.68915" lon="2.87601">
        <ele>889.8339</ele>
        <time>2012-09-02T09:23:53Z</time>
      </trkpt>
      <trkpt lat="45.68916" lon="2.87629">
        <ele>892.98834</ele>
        <time>2012-09-02T09:24:04Z</time>
      </trkpt>
      <trkpt lat="45.68918" lon="2.87657">
        <ele>895.6048</ele>
        <time>2012-09-02T09:24:14Z</time>
      </trkpt>
      <trkpt lat="45.68921" lon="2.87685">
        <ele>898.21857</ele>
        <time>2012-09-02T09:24:22Z</time>
      </trkpt>
      <trkpt lat="45.6892" lon="2.87711">
        <ele>900.8702</ele>
        <time>2012-09-02T09:24:28Z</time>
      </trkpt>
      <trkpt lat="45.68921" lon="2.87737">
        <ele>904.3325</ele>
        <time>2012-09-02T09:24:36Z</time>
      </trkpt>
      <trkpt lat="45.68923" lon="2.87762">
        <ele>908.23425</ele>
        <time>2012-09-02T09:24:44Z</time>
      </trkpt>
      <trkpt lat="45.68925" lon="2.87788">
        <ele>911.48145</ele>
        <time>2012-09-02T09:24:52Z</time>
      </trkpt>
      <trkpt lat="45.68924" lon="2.87814">
        <ele>914.3444</ele>
        <time>2012-09-02T09:25:01Z</time>
      </trkpt>
      <trkpt lat="45.68924" lon="2.8784">
        <ele>916.076</ele>
        <time>2012-09-02T09:25:09Z</time>
      </trkpt>
      <trkpt lat="45.68922" lon="2.87865">
        <ele>917.21387</ele>
        <time>2012-09-02T09:25:16Z</time>
      </trkpt>
      <trkpt lat="45.68922" lon="2.87891">
        <ele>918.5861</ele>
        <time>2012-09-02T09:25:23Z</time>
      </trkpt>
      <trkpt lat="45.68919" lon="2.87917">
        <ele>919.9639</ele>
        <time>2012-09-02T09:25:30Z</time>
      </trkpt>
      <trkpt lat="45.68917" lon="2.87943">
        <ele>921.2764</ele>
        <time>2012-09-02T09:25:38Z</time>
      </trkpt>
      <trkpt lat="45.68918" lon="2.87968">
        <ele>923.2023</ele>
        <time>2012-09-02T09:25:48Z</time>
      </trkpt>
      <trkpt lat="45.68921" lon="2.87994">
        <ele>925.7133</ele>
        <time>2012-09-02T09:25:59Z</time>
      </trkpt>
      <trkpt lat="45.68926" lon="2.8802">
        <ele>928.65985</ele>
        <time>2012-09-02T09:26:10Z</time>
      </trkpt>
      <trkpt lat="45.68932" lon="2.88046">
        <ele>931.51196</ele>
        <time>2012-09-02T09:26:19Z</time>
      </trkpt>
      <trkpt lat="45.6894" lon="2.88069">
        <ele>934.7779</ele>
        <time>2012-09-02T09:26:29Z</time>
      </trkpt>
      <trkpt lat="45.68947" lon="2.88095">
        <ele>938.6386</ele>
        <time>2012-09-02T09:26:41Z</time>
      </trkpt>
      <trkpt lat="45.6894" lon="2.88121">
        <ele>942.3942</ele>
        <time>2012-09-02T09:26:54Z</time>
      </trkpt>
      <trkpt lat="45.68935" lon="2.88146">
        <ele>947.3356</ele>
        <time>2012-09-02T09:27:19Z</time>
      </trkpt>
      <trkpt lat="45.68937" lon="2.88172">
        <ele>951.96326</ele>
        <time>2012-09-02T09:29:01Z</time>
      </trkpt>
      <trkpt lat="45.68934" lon="2.88198">
        <ele>953.11975</ele>
        <time>2012-09-02T09:29:08Z</time>
      </trkpt>
      <trkpt lat="45.68932" lon="2.88226">
        <ele>956.0187</ele>
        <time>2012-09-02T09:29:12Z</time>
      </trkpt>
      <trkpt lat="45.68928" lon="2.88252">
        <ele>958.2865</ele>
        <time>2012-09-02T09:29:15Z</time>
      </trkpt>
      <trkpt lat="45.68926" lon="2.88284">
        <ele>959.8214</ele>
        <time>2012-09-02T09:29:18Z</time>
      </trkpt>
      <trkpt lat="45.68924" lon="2.88318">
        <ele>960.79706</ele>
        <time>2012-09-02T09:29:21Z</time>
      </trkpt>
      <trkpt lat="45.68921" lon="2.8835">
        <ele>961.78674</ele>
        <time>2012-09-02T09:29:24Z</time>
      </trkpt>
      <trkpt lat="45.68919" lon="2.8838">
        <ele>962.2043</ele>
        <time>2012-09-02T09:29:27Z</time>
      </trkpt>
      <trkpt lat="45.68913" lon="2.88406">
        <ele>962.38043</ele>
        <time>2012-09-02T09:29:30Z</time>
      </trkpt>
      <trkpt lat="45.68908" lon="2.88434">
        <ele>961.8902</ele>
        <time>2012-09-02T09:29:34Z</time>
      </trkpt>
      <trkpt lat="45.68904" lon="2.8846">
        <ele>961.5995</ele>
        <time>2012-09-02T09:29:39Z</time>
      </trkpt>
      <trkpt lat="45.68897" lon="2.88488">
        <ele>961.52106</ele>
        <time>2012-09-02T09:29:46Z</time>
      </trkpt>
      <trkpt lat="45.68898" lon="2.88513">
        <ele>960.6096</ele>
        <time>2012-09-02T09:29:57Z</time>
      </trkpt>
      <trkpt lat="45.68898" lon="2.88539">
        <ele>959.5865</ele>
        <time>2012-09-02T09:30:10Z</time>
      </trkpt>
      <trkpt lat="45.68894" lon="2.88565">
        <ele>958.58545</ele>
        <time>2012-09-02T09:30:24Z</time>
      </trkpt>
      <trkpt lat="45.68893" lon="2.88539">
        <ele>959.509</ele>
        <time>2012-09-02T09:32:41Z</time>
      </trkpt>
      <trkpt lat="45.68902" lon="2.88563">
        <ele>963.509</ele>
        <time>2012-09-02T09:37:56Z</time>
      </trkpt>
      <trkpt lat="45.68903" lon="2.88591">
        <ele>963.9465</ele>
        <time>2012-09-02T09:38:01Z</time>
      </trkpt>
      <trkpt lat="45.68893" lon="2.88623">
        <ele>963.75287</ele>
        <time>2012-09-02T09:38:05Z</time>
      </trkpt>
      <trkpt lat="45.68879" lon="2.8864">
        <ele>962.67505</ele>
        <time>2012-09-02T09:38:12Z</time>
      </trkpt>
      <trkpt lat="45.68861" lon="2.88634">
        <ele>961.7759</ele>
        <time>2012-09-02T09:38:18Z</time>
      </trkpt>
      <trkpt lat="45.68852" lon="2.88659">
        <ele>957.9239</ele>
        <time>2012-09-02T09:38:23Z</time>
      </trkpt>
      <trkpt lat="45.68848" lon="2.88687">
        <ele>954.07776</ele>
        <time>2012-09-02T09:38:27Z</time>
      </trkpt>
      <trkpt lat="45.68845" lon="2.88717">
        <ele>951.8843</ele>
        <time>2012-09-02T09:38:31Z</time>
      </trkpt>
      <trkpt lat="45.68845" lon="2.88743">
        <ele>951.0892</ele>
        <time>2012-09-02T09:38:34Z</time>
      </trkpt>
      <trkpt lat="45.68847" lon="2.88771">
        <ele>950.7538</ele>
        <time>2012-09-02T09:38:37Z</time>
      </trkpt>
      <trkpt lat="45.6885" lon="2.88799">
        <ele>950.36224</ele>
        <time>2012-09-02T09:38:40Z</time>
      </trkpt>
      <trkpt lat="45.68854" lon="2.88825">
        <ele>949.86896</ele>
        <time>2012-09-02T09:38:43Z</time>
      </trkpt>
      <trkpt lat="45.68858" lon="2.88852">
        <ele>948.50183</ele>
        <time>2012-09-02T09:38:47Z</time>
      </trkpt>
      <trkpt lat="45.68862" lon="2.8888">
        <ele>946.8895</ele>
        <time>2012-09-02T09:38:51Z</time>
      </trkpt>
      <trkpt lat="45.68862" lon="2.88906">
        <ele>945.9458</ele>
        <time>2012-09-02T09:38:55Z</time>
      </trkpt>
      <trkpt lat="45.6886" lon="2.88932">
        <ele>944.9636</ele>
        <time>2012-09-02T09:38:59Z</time>
      </trkpt>
      <trkpt lat="45.68856" lon="2.88958">
        <ele>944.65283</ele>
        <time>2012-09-02T09:39:03Z</time>
      </trkpt>
      <trkpt lat="45.68847" lon="2.88988">
        <ele>944.54315</ele>
        <time>2012-09-02T09:39:08Z</time>
      </trkpt>
      <trkpt lat="45.68839" lon="2.89011">
        <ele>944.5198</ele>
        <time>2012-09-02T09:39:12Z</time>
      </trkpt>
      <trkpt lat="45.68831" lon="2.89035">
        <ele>944.5124</ele>
        <time>2012-09-02T09:39:16Z</time>
      </trkpt>
      <trkpt lat="45.68822" lon="2.89061">
        <ele>944.5098</ele>
        <time>2012-09-02T09:39:21Z</time>
      </trkpt>
      <trkpt lat="45.68812" lon="2.89084">
        <ele>944.5092</ele>
        <time>2012-09-02T09:39:26Z</time>
      </trkpt>
      <trkpt lat="45.68798" lon="2.89104">
        <ele>944.75903</ele>
        <time>2012-09-02T09:39:31Z</time>
      </trkpt>
      <trkpt lat="45.68781" lon="2.89125">
        <ele>945.33105</ele>
        <time>2012-09-02T09:39:36Z</time>
      </trkpt>
      <trkpt lat="45.68765" lon="2.89144">
        <ele>945.4527</ele>
        <time>2012-09-02T09:39:40Z</time>
      </trkpt>
      <trkpt lat="45.68749" lon="2.89164">
        <ele>946.1748</ele>
        <time>2012-09-02T09:39:44Z</time>
      </trkpt>
      <trkpt lat="45.68732" lon="2.89181">
        <ele>945.57513</ele>
        <time>2012-09-02T09:39:48Z</time>
      </trkpt>
      <trkpt lat="45.68713" lon="2.892">
        <ele>944.2682</ele>
        <time>2012-09-02T09:39:52Z</time>
      </trkpt>
      <trkpt lat="45.68695" lon="2.89219">
        <ele>943.3117</ele>
        <time>2012-09-02T09:39:56Z</time>
      </trkpt>
      <trkpt lat="45.68674" lon="2.89237">
        <ele>942.763</ele>
        <time>2012-09-02T09:40:00Z</time>
      </trkpt>
      <trkpt lat="45.68653" lon="2.89247">
        <ele>942.0112</ele>
        <time>2012-09-02T09:40:04Z</time>
      </trkpt>
      <trkpt lat="45.68633" lon="2.89256">
        <ele>940.70526</ele>
        <time>2012-09-02T09:40:07Z</time>
      </trkpt>
      <trkpt lat="45.68613" lon="2.89264">
        <ele>938.49805</ele>
        <time>2012-09-02T09:40:10Z</time>
      </trkpt>
      <trkpt lat="45.68592" lon="2.89273">
        <ele>935.7544</ele>
        <time>2012-09-02T09:40:13Z</time>
      </trkpt>
      <trkpt lat="45.68572" lon="2.89288">
        <ele>933.1907</ele>
        <time>2012-09-02T09:40:16Z</time>
      </trkpt>
      <trkpt lat="45.68563" lon="2.89312">
        <ele>931.0622</ele>
        <time>2012-09-02T09:40:19Z</time>
      </trkpt>
      <trkpt lat="45.6857" lon="2.8934">
        <ele>929.75433</ele>
        <time>2012-09-02T09:40:23Z</time>
      </trkpt>
      <trkpt lat="45.68585" lon="2.89355">
        <ele>929.5672</ele>
        <time>2012-09-02T09:40:28Z</time>
      </trkpt>
      <trkpt lat="45.68602" lon="2.89363">
        <ele>929.51935</ele>
        <time>2012-09-02T09:40:34Z</time>
      </trkpt>
      <trkpt lat="45.68619" lon="2.89374">
        <ele>929.51086</ele>
        <time>2012-09-02T09:40:40Z</time>
      </trkpt>
      <trkpt lat="45.68637" lon="2.89385">
        <ele>929.5091</ele>
        <time>2012-09-02T09:40:50Z</time>
      </trkpt>
      <trkpt lat="45.68618" lon="2.89408">
        <ele>932.4878</ele>
        <time>2012-09-02T09:41:13Z</time>
      </trkpt>
      <trkpt lat="45.686" lon="2.89419">
        <ele>934.2735</ele>
        <time>2012-09-02T09:41:23Z</time>
      </trkpt>
      <trkpt lat="45.68581" lon="2.8943">
        <ele>935.31775</ele>
        <time>2012-09-02T09:41:33Z</time>
      </trkpt>
      <trkpt lat="45.68555" lon="2.89443">
        <ele>934.601</ele>
        <time>2012-09-02T09:41:44Z</time>
      </trkpt>
      <trkpt lat="45.68537" lon="2.89451">
        <ele>934.5182</ele>
        <time>2012-09-02T09:41:52Z</time>
      </trkpt>
      <trkpt lat="45.68516" lon="2.89458">
        <ele>933.74725</ele>
        <time>2012-09-02T09:42:00Z</time>
      </trkpt>
      <trkpt lat="45.68496" lon="2.89466">
        <ele>934.54553</ele>
        <time>2012-09-02T09:42:08Z</time>
      </trkpt>
      <trkpt lat="45.68477" lon="2.89466">
        <ele>935.91254</ele>
        <time>2012-09-02T09:42:16Z</time>
      </trkpt>
      <trkpt lat="45.68455" lon="2.8947">
        <ele>939.3746</ele>
        <time>2012-09-02T09:42:24Z</time>
      </trkpt>
      <trkpt lat="45.68435" lon="2.89475">
        <ele>944.0834</ele>
        <time>2012-09-02T09:42:32Z</time>
      </trkpt>
      <trkpt lat="45.68442" lon="2.89498">
        <ele>950.6695</ele>
        <time>2012-09-02T09:42:49Z</time>
      </trkpt>
      <trkpt lat="45.68462" lon="2.89509">
        <ele>955.51263</ele>
        <time>2012-09-02T09:43:03Z</time>
      </trkpt>
      <trkpt lat="45.68481" lon="2.89515">
        <ele>956.65924</ele>
        <time>2012-09-02T09:43:11Z</time>
      </trkpt>
      <trkpt lat="45.68499" lon="2.8952">
        <ele>957.83307</ele>
        <time>2012-09-02T09:43:18Z</time>
      </trkpt>
      <trkpt lat="45.6852" lon="2.89518">
        <ele>958.70825</ele>
        <time>2012-09-02T09:43:27Z</time>
      </trkpt>
      <trkpt lat="45.68538" lon="2.89518">
        <ele>960.6023</ele>
        <time>2012-09-02T09:43:34Z</time>
      </trkpt>
      <trkpt lat="45.68556" lon="2.89522">
        <ele>961.7313</ele>
        <time>2012-09-02T09:43:39Z</time>
      </trkpt>
      <trkpt lat="45.68574" lon="2.89526">
        <ele>962.32446</ele>
        <time>2012-09-02T09:43:44Z</time>
      </trkpt>
      <trkpt lat="45.68594" lon="2.89524">
        <ele>963.2279</ele>
        <time>2012-09-02T09:43:49Z</time>
      </trkpt>
      <trkpt lat="45.68613" lon="2.89522">
        <ele>964.02045</ele>
        <time>2012-09-02T09:43:54Z</time>
      </trkpt>
      <trkpt lat="45.68633" lon="2.89518">
        <ele>964.85956</ele>
        <time>2012-09-02T09:44:00Z</time>
      </trkpt>
      <trkpt lat="45.68654" lon="2.8952">
        <ele>965.35486</ele>
        <time>2012-09-02T09:44:05Z</time>
      </trkpt>
      <trkpt lat="45.68673" lon="2.89526">
        <ele>966.156</ele>
        <time>2012-09-02T09:44:10Z</time>
      </trkpt>
      <trkpt lat="45.68691" lon="2.89537">
        <ele>966.86273</ele>
        <time>2012-09-02T09:44:15Z</time>
      </trkpt>
      <trkpt lat="45.68709" lon="2.89548">
        <ele>967.35565</ele>
        <time>2012-09-02T09:44:20Z</time>
      </trkpt>
      <trkpt lat="45.68728" lon="2.89558">
        <ele>969.3603</ele>
        <time>2012-09-02T09:44:25Z</time>
      </trkpt>
      <trkpt lat="45.68745" lon="2.89576">
        <ele>972.7784</ele>
        <time>2012-09-02T09:44:29Z</time>
      </trkpt>
      <trkpt lat="45.68751" lon="2.89603">
        <ele>975.84503</ele>
        <time>2012-09-02T09:44:35Z</time>
      </trkpt>
      <trkpt lat="45.68749" lon="2.89631">
        <ele>976.9985</ele>
        <time>2012-09-02T09:44:42Z</time>
      </trkpt>
      <trkpt lat="45.68743" lon="2.89657">
        <ele>977.7079</ele>
        <time>2012-09-02T09:44:50Z</time>
      </trkpt>
      <trkpt lat="45.68734" lon="2.89683">
        <ele>978.40204</ele>
        <time>2012-09-02T09:44:57Z</time>
      </trkpt>
      <trkpt lat="45.68725" lon="2.89706">
        <ele>979.25745</ele>
        <time>2012-09-02T09:45:04Z</time>
      </trkpt>
      <trkpt lat="45.68713" lon="2.89732">
        <ele>980.0535</ele>
        <time>2012-09-02T09:45:11Z</time>
      </trkpt>
      <trkpt lat="45.68703" lon="2.89758">
        <ele>980.8857</ele>
        <time>2012-09-02T09:45:18Z</time>
      </trkpt>
      <trkpt lat="45.68696" lon="2.89782">
        <ele>981.6481</ele>
        <time>2012-09-02T09:45:24Z</time>
      </trkpt>
      <trkpt lat="45.68685" lon="2.89807">
        <ele>982.3558</ele>
        <time>2012-09-02T09:45:30Z</time>
      </trkpt>
      <trkpt lat="45.68674" lon="2.89831">
        <ele>983.24445</ele>
        <time>2012-09-02T09:45:36Z</time>
      </trkpt>
      <trkpt lat="45.6866" lon="2.89855">
        <ele>984.1455</ele>
        <time>2012-09-02T09:45:42Z</time>
      </trkpt>
      <trkpt lat="45.68646" lon="2.89872">
        <ele>984.4227</ele>
        <time>2012-09-02T09:45:47Z</time>
      </trkpt>
      <trkpt lat="45.68631" lon="2.89889">
        <ele>985.2512</ele>
        <time>2012-09-02T09:45:52Z</time>
      </trkpt>
      <trkpt lat="45.68618" lon="2.89908">
        <ele>986.1314</ele>
        <time>2012-09-02T09:45:57Z</time>
      </trkpt>
      <trkpt lat="45.68606" lon="2.8993">
        <ele>988.6938</ele>
        <time>2012-09-02T09:46:02Z</time>
      </trkpt>
      <trkpt lat="45.68591" lon="2.89953">
        <ele>990.51575</ele>
        <time>2012-09-02T09:46:07Z</time>
      </trkpt>
      <trkpt lat="45.68576" lon="2.89977">
        <ele>991.85144</ele>
        <time>2012-09-02T09:46:12Z</time>
      </trkpt>
      <trkpt lat="45.6856" lon="2.90003">
        <ele>992.35297</ele>
        <time>2012-09-02T09:46:17Z</time>
      </trkpt>
      <trkpt lat="45.68544" lon="2.90026">
        <ele>992.472</ele>
        <time>2012-09-02T09:46:22Z</time>
      </trkpt>
      <trkpt lat="45.68532" lon="2.90045">
        <ele>992.49725</ele>
        <time>2012-09-02T09:46:26Z</time>
      </trkpt>
      <trkpt lat="45.68519" lon="2.90067">
        <ele>991.9272</ele>
        <time>2012-09-02T09:46:30Z</time>
      </trkpt>
      <trkpt lat="45.68506" lon="2.90086">
        <ele>991.6413</ele>
        <time>2012-09-02T09:46:34Z</time>
      </trkpt>
      <trkpt lat="45.68492" lon="2.90108">
        <ele>992.23444</ele>
        <time>2012-09-02T09:46:38Z</time>
      </trkpt>
      <trkpt lat="45.68485" lon="2.90136">
        <ele>992.4221</ele>
        <time>2012-09-02T09:46:42Z</time>
      </trkpt>
      <trkpt lat="45.68483" lon="2.90164">
        <ele>993.05963</ele>
        <time>2012-09-02T09:46:46Z</time>
      </trkpt>
      <trkpt lat="45.68481" lon="2.90191">
        <ele>994.0504</ele>
        <time>2012-09-02T09:46:50Z</time>
      </trkpt>
      <trkpt lat="45.68478" lon="2.90217">
        <ele>994.942</ele>
        <time>2012-09-02T09:46:54Z</time>
      </trkpt>
      <trkpt lat="45.68473" lon="2.90247">
        <ele>995.9526</ele>
        <time>2012-09-02T09:46:59Z</time>
      </trkpt>
      <trkpt lat="45.68469" lon="2.90273">
        <ele>997.01654</ele>
        <time>2012-09-02T09:47:03Z</time>
      </trkpt>
      <trkpt lat="45.68466" lon="2.90301">
        <ele>998.0368</ele>
        <time>2012-09-02T09:47:07Z</time>
      </trkpt>
      <trkpt lat="45.68464" lon="2.90327">
        <ele>998.30975</ele>
        <time>2012-09-02T09:47:10Z</time>
      </trkpt>
      <trkpt lat="45.68461" lon="2.90352">
        <ele>998.4249</ele>
        <time>2012-09-02T09:47:13Z</time>
      </trkpt>
      <trkpt lat="45.68457" lon="2.90378">
        <ele>998.4736</ele>
        <time>2012-09-02T09:47:16Z</time>
      </trkpt>
      <trkpt lat="45.68455" lon="2.90406">
        <ele>999.07214</ele>
        <time>2012-09-02T09:47:19Z</time>
      </trkpt>
      <trkpt lat="45.68451" lon="2.90432">
        <ele>999.3247</ele>
        <time>2012-09-02T09:47:22Z</time>
      </trkpt>
      <trkpt lat="45.68436" lon="2.90449">
        <ele>998.7671</ele>
        <time>2012-09-02T09:47:26Z</time>
      </trkpt>
      <trkpt lat="45.68417" lon="2.90451">
        <ele>998.15314</ele>
        <time>2012-09-02T09:47:30Z</time>
      </trkpt>
      <trkpt lat="45.68395" lon="2.90449">
        <ele>997.2753</ele>
        <time>2012-09-02T09:47:34Z</time>
      </trkpt>
      <trkpt lat="45.68375" lon="2.90453">
        <ele>996.00336</ele>
        <time>2012-09-02T09:47:39Z</time>
      </trkpt>
      <trkpt lat="45.68356" lon="2.90466">
        <ele>993.0326</ele>
        <time>2012-09-02T09:47:43Z</time>
      </trkpt>
      <trkpt lat="45.68335" lon="2.9047">
        <ele>991.3075</ele>
        <time>2012-09-02T09:47:47Z</time>
      </trkpt>
      <trkpt lat="45.68314" lon="2.90466">
        <ele>988.81244</ele>
        <time>2012-09-02T09:47:51Z</time>
      </trkpt>
      <trkpt lat="45.68294" lon="2.90455">
        <ele>986.5542</ele>
        <time>2012-09-02T09:47:55Z</time>
      </trkpt>
      <trkpt lat="45.68277" lon="2.90473">
        <ele>985.3195</ele>
        <time>2012-09-02T09:48:00Z</time>
      </trkpt>
      <trkpt lat="45.6827" lon="2.905">
        <ele>982.81757</ele>
        <time>2012-09-02T09:48:05Z</time>
      </trkpt>
      <trkpt lat="45.68262" lon="2.9053">
        <ele>981.3449</ele>
        <time>2012-09-02T09:48:09Z</time>
      </trkpt>
      <trkpt lat="45.68259" lon="2.90556">
        <ele>980.42413</ele>
        <time>2012-09-02T09:48:12Z</time>
      </trkpt>
      <trkpt lat="45.68256" lon="2.90588">
        <ele>979.8951</ele>
        <time>2012-09-02T09:48:15Z</time>
      </trkpt>
      <trkpt lat="45.68254" lon="2.90618">
        <ele>979.6719</ele>
        <time>2012-09-02T09:48:18Z</time>
      </trkpt>
      <trkpt lat="45.68244" lon="2.90646">
        <ele>979.3277</ele>
        <time>2012-09-02T09:48:21Z</time>
      </trkpt>
      <trkpt lat="45.68246" lon="2.90676">
        <ele>978.8544</ele>
        <time>2012-09-02T09:48:24Z</time>
      </trkpt>
      <trkpt lat="45.6825" lon="2.90702">
        <ele>979.4516</ele>
        <time>2012-09-02T09:48:27Z</time>
      </trkpt>
      <trkpt lat="45.68256" lon="2.90736">
        <ele>981.9067</ele>
        <time>2012-09-02T09:48:30Z</time>
      </trkpt>
      <trkpt lat="45.6826" lon="2.90762">
        <ele>983.04517</ele>
        <time>2012-09-02T09:48:32Z</time>
      </trkpt>
      <trkpt lat="45.68265" lon="2.90788">
        <ele>983.4356</ele>
        <time>2012-09-02T09:48:34Z</time>
      </trkpt>
      <trkpt lat="45.68271" lon="2.90814">
        <ele>983.4677</ele>
        <time>2012-09-02T09:48:36Z</time>
      </trkpt>
      <trkpt lat="45.68276" lon="2.90839">
        <ele>983.4858</ele>
        <time>2012-09-02T09:48:38Z</time>
      </trkpt>
      <trkpt lat="45.6828" lon="2.90865">
        <ele>983.4959</ele>
        <time>2012-09-02T09:48:40Z</time>
      </trkpt>
      <trkpt lat="45.68287" lon="2.90897">
        <ele>983.5035</ele>
        <time>2012-09-02T09:48:43Z</time>
      </trkpt>
      <trkpt lat="45.68291" lon="2.90927">
        <ele>983.94476</ele>
        <time>2012-09-02T09:48:47Z</time>
      </trkpt>
      <trkpt lat="45.68283" lon="2.90953">
        <ele>984.3751</ele>
        <time>2012-09-02T09:48:52Z</time>
      </trkpt>
      <trkpt lat="45.68269" lon="2.90975">
        <ele>984.47723</ele>
        <time>2012-09-02T09:48:57Z</time>
      </trkpt>
      <trkpt lat="45.68254" lon="2.91">
        <ele>984.50146</ele>
        <time>2012-09-02T09:49:02Z</time>
      </trkpt>
      <trkpt lat="45.68253" lon="2.91028">
        <ele>984.5066</ele>
        <time>2012-09-02T09:49:06Z</time>
      </trkpt>
      <trkpt lat="45.68254" lon="2.91056">
        <ele>984.50824</ele>
        <time>2012-09-02T09:49:10Z</time>
      </trkpt>
      <trkpt lat="45.68253" lon="2.91084">
        <ele>984.5088</ele>
        <time>2012-09-02T09:49:14Z</time>
      </trkpt>
      <trkpt lat="45.6825" lon="2.91112">
        <ele>984.5089</ele>
        <time>2012-09-02T09:49:18Z</time>
      </trkpt>
      <trkpt lat="45.68247" lon="2.91138">
        <ele>984.509</ele>
        <time>2012-09-02T09:49:22Z</time>
      </trkpt>
      <trkpt lat="45.68244" lon="2.91163">
        <ele>984.509</ele>
        <time>2012-09-02T09:49:26Z</time>
      </trkpt>
      <trkpt lat="45.68242" lon="2.91191">
        <ele>983.8254</ele>
        <time>2012-09-02T09:49:30Z</time>
      </trkpt>
      <trkpt lat="45.68241" lon="2.91217">
        <ele>983.60913</ele>
        <time>2012-09-02T09:49:34Z</time>
      </trkpt>
      <trkpt lat="45.6824" lon="2.91247">
        <ele>983.54065</ele>
        <time>2012-09-02T09:49:38Z</time>
      </trkpt>
      <trkpt lat="45.68238" lon="2.91277">
        <ele>984.45264</ele>
        <time>2012-09-02T09:49:42Z</time>
      </trkpt>
      <trkpt lat="45.68235" lon="2.91307">
        <ele>985.75287</ele>
        <time>2012-09-02T09:49:46Z</time>
      </trkpt>
      <trkpt lat="45.68232" lon="2.91337">
        <ele>986.95337</ele>
        <time>2012-09-02T09:49:50Z</time>
      </trkpt>
      <trkpt lat="45.68231" lon="2.91367">
        <ele>988.0168</ele>
        <time>2012-09-02T09:49:54Z</time>
      </trkpt>
      <trkpt lat="45.6823" lon="2.91399">
        <ele>988.3533</ele>
        <time>2012-09-02T09:49:58Z</time>
      </trkpt>
      <trkpt lat="45.68229" lon="2.9143">
        <ele>988.8972</ele>
        <time>2012-09-02T09:50:02Z</time>
      </trkpt>
      <trkpt lat="45.68231" lon="2.91457">
        <ele>989.3154</ele>
        <time>2012-09-02T09:50:06Z</time>
      </trkpt>
      <trkpt lat="45.68251" lon="2.91462">
        <ele>989.4631</ele>
        <time>2012-09-02T09:50:11Z</time>
      </trkpt>
      <trkpt lat="45.68272" lon="2.91462">
        <ele>989.49445</ele>
        <time>2012-09-02T09:50:15Z</time>
      </trkpt>
      <trkpt lat="45.6829" lon="2.9146">
        <ele>989.5044</ele>
        <time>2012-09-02T09:50:19Z</time>
      </trkpt>
      <trkpt lat="45.68312" lon="2.91455">
        <ele>989.50793</ele>
        <time>2012-09-02T09:50:24Z</time>
      </trkpt>
      <trkpt lat="45.68333" lon="2.91453">
        <ele>989.2587</ele>
        <time>2012-09-02T09:50:29Z</time>
      </trkpt>
      <trkpt lat="45.68351" lon="2.91449">
        <ele>988.7462</ele>
        <time>2012-09-02T09:50:33Z</time>
      </trkpt>
      <trkpt lat="45.68371" lon="2.91447">
        <ele>988.83405</ele>
        <time>2012-09-02T09:50:37Z</time>
      </trkpt>
      <trkpt lat="45.68381" lon="2.91468">
        <ele>989.63885</ele>
        <time>2012-09-02T09:50:43Z</time>
      </trkpt>
      <trkpt lat="45.68381" lon="2.91498">
        <ele>991.4236</ele>
        <time>2012-09-02T09:50:48Z</time>
      </trkpt>
      <trkpt lat="45.68382" lon="2.91524">
        <ele>993.0992</ele>
        <time>2012-09-02T09:50:52Z</time>
      </trkpt>
      <trkpt lat="45.68383" lon="2.9155">
        <ele>994.0629</ele>
        <time>2012-09-02T09:50:56Z</time>
      </trkpt>
      <trkpt lat="45.68385" lon="2.91578">
        <ele>995.05145</ele>
        <time>2012-09-02T09:51:00Z</time>
      </trkpt>
      <trkpt lat="45.68386" lon="2.91608">
        <ele>995.36426</ele>
        <time>2012-09-02T09:51:04Z</time>
      </trkpt>
      <trkpt lat="45.68386" lon="2.91638">
        <ele>995.4632</ele>
        <time>2012-09-02T09:51:08Z</time>
      </trkpt>
      <trkpt lat="45.68386" lon="2.9167">
        <ele>995.4945</ele>
        <time>2012-09-02T09:51:12Z</time>
      </trkpt>
      <trkpt lat="45.68386" lon="2.91698">
        <ele>995.06537</ele>
        <time>2012-09-02T09:51:15Z</time>
      </trkpt>
      <trkpt lat="45.68386" lon="2.91726">
        <ele>994.7437</ele>
        <time>2012-09-02T09:51:18Z</time>
      </trkpt>
      <trkpt lat="45.68387" lon="2.91751">
        <ele>995.04553</ele>
        <time>2012-09-02T09:51:21Z</time>
      </trkpt>
      <trkpt lat="45.68387" lon="2.91781">
        <ele>995.3135</ele>
        <time>2012-09-02T09:51:24Z</time>
      </trkpt>
      <trkpt lat="45.68387" lon="2.91809">
        <ele>995.4265</ele>
        <time>2012-09-02T09:51:27Z</time>
      </trkpt>
      <trkpt lat="45.68387" lon="2.91839">
        <ele>995.4742</ele>
        <time>2012-09-02T09:51:30Z</time>
      </trkpt>
      <trkpt lat="45.68387" lon="2.91865">
        <ele>995.4943</ele>
        <time>2012-09-02T09:51:33Z</time>
      </trkpt>
      <trkpt lat="45.68388" lon="2.91891">
        <ele>995.5028</ele>
        <time>2012-09-02T09:51:36Z</time>
      </trkpt>
      <trkpt lat="45.68388" lon="2.91917">
        <ele>995.5064</ele>
        <time>2012-09-02T09:51:39Z</time>
      </trkpt>
      <trkpt lat="45.68389" lon="2.91942">
        <ele>995.5079</ele>
        <time>2012-09-02T09:51:42Z</time>
      </trkpt>
      <trkpt lat="45.68391" lon="2.91972">
        <ele>994.93054</ele>
        <time>2012-09-02T09:51:46Z</time>
      </trkpt>
      <trkpt lat="45.68398" lon="2.91998">
        <ele>994.6424</ele>
        <time>2012-09-02T09:51:50Z</time>
      </trkpt>
      <trkpt lat="45.68406" lon="2.92028">
        <ele>993.8676</ele>
        <time>2012-09-02T09:51:54Z</time>
      </trkpt>
      <trkpt lat="45.68415" lon="2.92054">
        <ele>994.306</ele>
        <time>2012-09-02T09:51:58Z</time>
      </trkpt>
      <trkpt lat="45.68422" lon="2.92082">
        <ele>994.69476</ele>
        <time>2012-09-02T09:52:02Z</time>
      </trkpt>
      <trkpt lat="45.6843" lon="2.9211">
        <ele>995.2514</ele>
        <time>2012-09-02T09:52:06Z</time>
      </trkpt>
      <trkpt lat="45.68438" lon="2.92138">
        <ele>994.84937</ele>
        <time>2012-09-02T09:52:10Z</time>
      </trkpt>
      <trkpt lat="45.68447" lon="2.92166">
        <ele>994.3667</ele>
        <time>2012-09-02T09:52:14Z</time>
      </trkpt>
      <trkpt lat="45.68455" lon="2.92193">
        <ele>993.5304</ele>
        <time>2012-09-02T09:52:18Z</time>
      </trkpt>
      <trkpt lat="45.68465" lon="2.92223">
        <ele>992.83215</ele>
        <time>2012-09-02T09:52:22Z</time>
      </trkpt>
      <trkpt lat="45.68475" lon="2.92256">
        <ele>992.61127</ele>
        <time>2012-09-02T09:52:26Z</time>
      </trkpt>
      <trkpt lat="45.68482" lon="2.92281">
        <ele>992.5521</ele>
        <time>2012-09-02T09:52:29Z</time>
      </trkpt>
      <trkpt lat="45.6849" lon="2.92307">
        <ele>992.5272</ele>
        <time>2012-09-02T09:52:32Z</time>
      </trkpt>
      <trkpt lat="45.68497" lon="2.92333">
        <ele>992.51666</ele>
        <time>2012-09-02T09:52:35Z</time>
      </trkpt>
      <trkpt lat="45.68505" lon="2.92361">
        <ele>992.07477</ele>
        <time>2012-09-02T09:52:38Z</time>
      </trkpt>
      <trkpt lat="45.68512" lon="2.92387">
        <ele>991.7477</ele>
        <time>2012-09-02T09:52:41Z</time>
      </trkpt>
      <trkpt lat="45.68521" lon="2.92414">
        <ele>991.6097</ele>
        <time>2012-09-02T09:52:44Z</time>
      </trkpt>
      <trkpt lat="45.68528" lon="2.92444">
        <ele>991.80145</ele>
        <time>2012-09-02T09:52:47Z</time>
      </trkpt>
      <trkpt lat="45.68537" lon="2.92475">
        <ele>992.2105</ele>
        <time>2012-09-02T09:52:50Z</time>
      </trkpt>
      <trkpt lat="45.68545" lon="2.92505">
        <ele>991.94556</ele>
        <time>2012-09-02T09:52:53Z</time>
      </trkpt>
      <trkpt lat="45.68554" lon="2.92535">
        <ele>991.6932</ele>
        <time>2012-09-02T09:52:56Z</time>
      </trkpt>
      <trkpt lat="45.68563" lon="2.92562">
        <ele>991.58673</ele>
        <time>2012-09-02T09:52:59Z</time>
      </trkpt>
      <trkpt lat="45.68571" lon="2.9259">
        <ele>991.5418</ele>
        <time>2012-09-02T09:53:02Z</time>
      </trkpt>
      <trkpt lat="45.68579" lon="2.92616">
        <ele>991.5228</ele>
        <time>2012-09-02T09:53:05Z</time>
      </trkpt>
      <trkpt lat="45.68587" lon="2.92642">
        <ele>991.07733</ele>
        <time>2012-09-02T09:53:08Z</time>
      </trkpt>
      <trkpt lat="45.68596" lon="2.92672">
        <ele>990.4988</ele>
        <time>2012-09-02T09:53:11Z</time>
      </trkpt>
      <trkpt lat="45.68604" lon="2.92706">
        <ele>989.9266</ele>
        <time>2012-09-02T09:53:14Z</time>
      </trkpt>
      <trkpt lat="45.68614" lon="2.92738">
        <ele>989.2477</ele>
        <time>2012-09-02T09:53:17Z</time>
      </trkpt>
      <trkpt lat="45.68622" lon="2.92766">
        <ele>988.8206</ele>
        <time>2012-09-02T09:53:20Z</time>
      </trkpt>
      <trkpt lat="45.68642" lon="2.92766">
        <ele>987.57025</ele>
        <time>2012-09-02T09:53:25Z</time>
      </trkpt>
      <trkpt lat="45.6866" lon="2.92753">
        <ele>986.5948</ele>
        <time>2012-09-02T09:53:29Z</time>
      </trkpt>
      <trkpt lat="45.6868" lon="2.92738">
        <ele>985.0244</ele>
        <time>2012-09-02T09:53:33Z</time>
      </trkpt>
      <trkpt lat="45.68698" lon="2.92726">
        <ele>983.16034</ele>
        <time>2012-09-02T09:53:37Z</time>
      </trkpt>
      <trkpt lat="45.68718" lon="2.92713">
        <ele>982.0315</ele>
        <time>2012-09-02T09:53:41Z</time>
      </trkpt>
      <trkpt lat="45.68739" lon="2.927">
        <ele>980.9907</ele>
        <time>2012-09-02T09:53:45Z</time>
      </trkpt>
      <trkpt lat="45.68759" lon="2.92689">
        <ele>980.41144</ele>
        <time>2012-09-02T09:53:49Z</time>
      </trkpt>
      <trkpt lat="45.68778" lon="2.92676">
        <ele>979.54456</ele>
        <time>2012-09-02T09:53:53Z</time>
      </trkpt>
      <trkpt lat="45.68797" lon="2.92665">
        <ele>978.8367</ele>
        <time>2012-09-02T09:53:57Z</time>
      </trkpt>
      <trkpt lat="45.68814" lon="2.92655">
        <ele>978.03455</ele>
        <time>2012-09-02T09:54:01Z</time>
      </trkpt>
      <trkpt lat="45.68832" lon="2.92644">
        <ele>977.0556</ele>
        <time>2012-09-02T09:54:06Z</time>
      </trkpt>
      <trkpt lat="45.6885" lon="2.92646">
        <ele>975.95514</ele>
        <time>2012-09-02T09:54:11Z</time>
      </trkpt>
      <trkpt lat="45.68858" lon="2.9267">
        <ele>974.96655</ele>
        <time>2012-09-02T09:54:15Z</time>
      </trkpt>
      <trkpt lat="45.68867" lon="2.927">
        <ele>975.2319</ele>
        <time>2012-09-02T09:54:19Z</time>
      </trkpt>
      <trkpt lat="45.68875" lon="2.92732">
        <ele>975.4213</ele>
        <time>2012-09-02T09:54:23Z</time>
      </trkpt>
      <trkpt lat="45.68881" lon="2.9276">
        <ele>975.472</ele>
        <time>2012-09-02T09:54:26Z</time>
      </trkpt>
      <trkpt lat="45.68889" lon="2.92786">
        <ele>975.4934</ele>
        <time>2012-09-02T09:54:29Z</time>
      </trkpt>
      <trkpt lat="45.68902" lon="2.92807">
        <ele>975.50244</ele>
        <time>2012-09-02T09:54:32Z</time>
      </trkpt>
      <trkpt lat="45.6892" lon="2.92824">
        <ele>975.5062</ele>
        <time>2012-09-02T09:54:35Z</time>
      </trkpt>
      <trkpt lat="45.68939" lon="2.92837">
        <ele>975.0703</ele>
        <time>2012-09-02T09:54:38Z</time>
      </trkpt>
      <trkpt lat="45.6896" lon="2.92848">
        <ele>974.7458</ele>
        <time>2012-09-02T09:54:41Z</time>
      </trkpt>
      <trkpt lat="45.68978" lon="2.92856">
        <ele>974.1714</ele>
        <time>2012-09-02T09:54:44Z</time>
      </trkpt>
      <trkpt lat="45.68995" lon="2.92865">
        <ele>973.78845</ele>
        <time>2012-09-02T09:54:47Z</time>
      </trkpt>
      <trkpt lat="45.6901" lon="2.9288">
        <ele>972.9138</ele>
        <time>2012-09-02T09:54:51Z</time>
      </trkpt>
      <trkpt lat="45.69014" lon="2.92906">
        <ele>972.8871</ele>
        <time>2012-09-02T09:54:55Z</time>
      </trkpt>
      <trkpt lat="45.69007" lon="2.92934">
        <ele>974.045</ele>
        <time>2012-09-02T09:55:00Z</time>
      </trkpt>
      <trkpt lat="45.68998" lon="2.92959">
        <ele>974.3622</ele>
        <time>2012-09-02T09:55:04Z</time>
      </trkpt>
      <trkpt lat="45.68992" lon="2.92987">
        <ele>974.9117</ele>
        <time>2012-09-02T09:55:09Z</time>
      </trkpt>
      <trkpt lat="45.68982" lon="2.93015">
        <ele>975.36725</ele>
        <time>2012-09-02T09:55:14Z</time>
      </trkpt>
      <trkpt lat="45.68989" lon="2.93041">
        <ele>975.47534</ele>
        <time>2012-09-02T09:55:19Z</time>
      </trkpt>
      <trkpt lat="45.69" lon="2.93062">
        <ele>975.503</ele>
        <time>2012-09-02T09:55:25Z</time>
      </trkpt>
      <trkpt lat="45.69013" lon="2.93086">
        <ele>975.50793</ele>
        <time>2012-09-02T09:55:31Z</time>
      </trkpt>
      <trkpt lat="45.69026" lon="2.9311">
        <ele>976.6298</ele>
        <time>2012-09-02T09:55:36Z</time>
      </trkpt>
      <trkpt lat="45.69038" lon="2.93131">
        <ele>977.98395</ele>
        <time>2012-09-02T09:55:41Z</time>
      </trkpt>
      <trkpt lat="45.69051" lon="2.93155">
        <ele>978.6655</ele>
        <time>2012-09-02T09:55:47Z</time>
      </trkpt>
      <trkpt lat="45.69063" lon="2.93176">
        <ele>979.30884</ele>
        <time>2012-09-02T09:55:52Z</time>
      </trkpt>
      <trkpt lat="45.69074" lon="2.93198">
        <ele>979.4615</ele>
        <time>2012-09-02T09:55:57Z</time>
      </trkpt>
      <trkpt lat="45.69086" lon="2.93219">
        <ele>979.49774</ele>
        <time>2012-09-02T09:56:02Z</time>
      </trkpt>
      <trkpt lat="45.69097" lon="2.93243">
        <ele>979.94385</ele>
        <time>2012-09-02T09:56:07Z</time>
      </trkpt>
      <trkpt lat="45.69109" lon="2.93264">
        <ele>981.0585</ele>
        <time>2012-09-02T09:56:12Z</time>
      </trkpt>
      <trkpt lat="45.69122" lon="2.93288">
        <ele>981.42883</ele>
        <time>2012-09-02T09:56:18Z</time>
      </trkpt>
      <trkpt lat="45.69136" lon="2.93309">
        <ele>981.49475</ele>
        <time>2012-09-02T09:56:24Z</time>
      </trkpt>
      <trkpt lat="45.69154" lon="2.93322">
        <ele>981.5071</ele>
        <time>2012-09-02T09:56:31Z</time>
      </trkpt>
      <trkpt lat="45.69171" lon="2.93335">
        <ele>981.50885</ele>
        <time>2012-09-02T09:56:40Z</time>
      </trkpt>
      <trkpt lat="45.69185" lon="2.93369">
        <ele>982.6255</ele>
        <time>2012-09-02T09:56:56Z</time>
      </trkpt>
      <trkpt lat="45.69186" lon="2.93397">
        <ele>984.3382</ele>
        <time>2012-09-02T09:57:07Z</time>
      </trkpt>
      <trkpt lat="45.69182" lon="2.93427">
        <ele>984.7494</ele>
        <time>2012-09-02T09:57:17Z</time>
      </trkpt>
      <trkpt lat="45.69172" lon="2.93453">
        <ele>986.46466</ele>
        <time>2012-09-02T09:57:26Z</time>
      </trkpt>
      <trkpt lat="45.69169" lon="2.93481">
        <ele>988.63226</ele>
        <time>2012-09-02T09:57:33Z</time>
      </trkpt>
      <trkpt lat="45.69166" lon="2.93511">
        <ele>991.5838</ele>
        <time>2012-09-02T09:57:41Z</time>
      </trkpt>
      <trkpt lat="45.69172" lon="2.93537">
        <ele>994.6383</ele>
        <time>2012-09-02T09:57:49Z</time>
      </trkpt>
      <trkpt lat="45.69177" lon="2.93565">
        <ele>998.29767</ele>
        <time>2012-09-02T09:57:59Z</time>
      </trkpt>
      <trkpt lat="45.69178" lon="2.93592">
        <ele>1000.07135</ele>
        <time>2012-09-02T09:58:07Z</time>
      </trkpt>
      <trkpt lat="45.69182" lon="2.9362">
        <ele>1001.3647</ele>
        <time>2012-09-02T09:58:13Z</time>
      </trkpt>
      <trkpt lat="45.69183" lon="2.93646">
        <ele>1002.6731</ele>
        <time>2012-09-02T09:58:22Z</time>
      </trkpt>
      <trkpt lat="45.69195" lon="2.93674">
        <ele>1003.3974</ele>
        <time>2012-09-02T09:58:29Z</time>
      </trkpt>
      <trkpt lat="45.69202" lon="2.93702">
        <ele>1003.48914</ele>
        <time>2012-09-02T09:58:35Z</time>
      </trkpt>
      <trkpt lat="45.69209" lon="2.93732">
        <ele>1003.8336</ele>
        <time>2012-09-02T09:58:41Z</time>
      </trkpt>
      <trkpt lat="45.69215" lon="2.9376">
        <ele>1003.3617</ele>
        <time>2012-09-02T09:58:45Z</time>
      </trkpt>
      <trkpt lat="45.69226" lon="2.93783">
        <ele>1002.8687</ele>
        <time>2012-09-02T09:58:48Z</time>
      </trkpt>
      <trkpt lat="45.69234" lon="2.93807">
        <ele>1002.08264</ele>
        <time>2012-09-02T09:58:51Z</time>
      </trkpt>
      <trkpt lat="45.69243" lon="2.93831">
        <ele>1001.64514</ele>
        <time>2012-09-02T09:58:56Z</time>
      </trkpt>
      <trkpt lat="45.69254" lon="2.93854">
        <ele>1002.3802</ele>
        <time>2012-09-02T09:59:00Z</time>
      </trkpt>
      <trkpt lat="45.69271" lon="2.93871">
        <ele>1003.73</ele>
        <time>2012-09-02T09:59:04Z</time>
      </trkpt>
      <trkpt lat="45.69289" lon="2.93886">
        <ele>1004.2625</ele>
        <time>2012-09-02T09:59:08Z</time>
      </trkpt>
      <trkpt lat="45.69299" lon="2.9391">
        <ele>1004.431</ele>
        <time>2012-09-02T09:59:12Z</time>
      </trkpt>
      <trkpt lat="45.6931" lon="2.93931">
        <ele>1003.89795</ele>
        <time>2012-09-02T09:59:15Z</time>
      </trkpt>
      <trkpt lat="45.69325" lon="2.93949">
        <ele>1001.39185</ele>
        <time>2012-09-02T09:59:18Z</time>
      </trkpt>
      <trkpt lat="45.69337" lon="2.93972">
        <ele>999.42114</ele>
        <time>2012-09-02T09:59:22Z</time>
      </trkpt>
      <trkpt lat="45.6935" lon="2.93994">
        <ele>999.2351</ele>
        <time>2012-09-02T09:59:26Z</time>
      </trkpt>
      <trkpt lat="45.69363" lon="2.94019">
        <ele>1000.14386</ele>
        <time>2012-09-02T09:59:32Z</time>
      </trkpt>
      <trkpt lat="45.69382" lon="2.9403">
        <ele>1000.1435</ele>
        <time>2012-09-02T09:59:36Z</time>
      </trkpt>
      <trkpt lat="45.69397" lon="2.94047">
        <ele>999.0814</ele>
        <time>2012-09-02T09:59:41Z</time>
      </trkpt>
      <trkpt lat="45.69408" lon="2.94073">
        <ele>997.14075</ele>
        <time>2012-09-02T09:59:48Z</time>
      </trkpt>
      <trkpt lat="45.69419" lon="2.94099">
        <ele>995.97534</ele>
        <time>2012-09-02T09:59:53Z</time>
      </trkpt>
      <trkpt lat="45.69434" lon="2.94116">
        <ele>994.72296</ele>
        <time>2012-09-02T09:59:57Z</time>
      </trkpt>
      <trkpt lat="45.69447" lon="2.94137">
        <ele>993.6431</ele>
        <time>2012-09-02T10:00:01Z</time>
      </trkpt>
      <trkpt lat="45.6946" lon="2.94159">
        <ele>992.86786</ele>
        <time>2012-09-02T10:00:05Z</time>
      </trkpt>
      <trkpt lat="45.69474" lon="2.9418">
        <ele>992.5942</ele>
        <time>2012-09-02T10:00:10Z</time>
      </trkpt>
      <trkpt lat="45.69486" lon="2.94206">
        <ele>993.1023</ele>
        <time>2012-09-02T10:00:16Z</time>
      </trkpt>
      <trkpt lat="45.69499" lon="2.9423">
        <ele>993.85</ele>
        <time>2012-09-02T10:00:21Z</time>
      </trkpt>
      <trkpt lat="45.69512" lon="2.94251">
        <ele>994.96985</ele>
        <time>2012-09-02T10:00:27Z</time>
      </trkpt>
      <trkpt lat="45.69525" lon="2.94273">
        <ele>996.0966</ele>
        <time>2012-09-02T10:00:33Z</time>
      </trkpt>
      <trkpt lat="45.69543" lon="2.94292">
        <ele>998.11035</ele>
        <time>2012-09-02T10:00:38Z</time>
      </trkpt>
      <trkpt lat="45.69559" lon="2.94305">
        <ele>999.75006</ele>
        <time>2012-09-02T10:00:42Z</time>
      </trkpt>
      <trkpt lat="45.69577" lon="2.94324">
        <ele>1001.63995</ele>
        <time>2012-09-02T10:00:46Z</time>
      </trkpt>
      <trkpt lat="45.69592" lon="2.94346">
        <ele>1004.1268</ele>
        <time>2012-09-02T10:00:49Z</time>
      </trkpt>
      <trkpt lat="45.69605" lon="2.94369">
        <ele>1005.50397</ele>
        <time>2012-09-02T10:00:52Z</time>
      </trkpt>
      <trkpt lat="45.69616" lon="2.94393">
        <ele>1006.085</ele>
        <time>2012-09-02T10:00:55Z</time>
      </trkpt>
      <trkpt lat="45.69628" lon="2.94421">
        <ele>1006.90826</ele>
        <time>2012-09-02T10:00:58Z</time>
      </trkpt>
      <trkpt lat="45.69642" lon="2.94451">
        <ele>1007.25555</ele>
        <time>2012-09-02T10:01:01Z</time>
      </trkpt>
      <trkpt lat="45.69653" lon="2.94472">
        <ele>1007.36646</ele>
        <time>2012-09-02T10:01:03Z</time>
      </trkpt>
      <trkpt lat="45.69662" lon="2.94496">
        <ele>1007.42883</ele>
        <time>2012-09-02T10:01:05Z</time>
      </trkpt>
      <trkpt lat="45.69672" lon="2.94519">
        <ele>1007.21387</ele>
        <time>2012-09-02T10:01:07Z</time>
      </trkpt>
      <trkpt lat="45.69686" lon="2.94552">
        <ele>1007.2439</ele>
        <time>2012-09-02T10:01:10Z</time>
      </trkpt>
      <trkpt lat="45.69699" lon="2.94584">
        <ele>1007.39716</ele>
        <time>2012-09-02T10:01:13Z</time>
      </trkpt>
      <trkpt lat="45.69711" lon="2.94616">
        <ele>1007.2118</ele>
        <time>2012-09-02T10:01:16Z</time>
      </trkpt>
      <trkpt lat="45.69718" lon="2.9464">
        <ele>1006.90436</ele>
        <time>2012-09-02T10:01:18Z</time>
      </trkpt>
      <trkpt lat="45.6973" lon="2.94672">
        <ele>1006.6758</ele>
        <time>2012-09-02T10:01:21Z</time>
      </trkpt>
      <trkpt lat="45.69743" lon="2.947">
        <ele>1006.32935</ele>
        <time>2012-09-02T10:01:24Z</time>
      </trkpt>
      <trkpt lat="45.69749" lon="2.94725">
        <ele>1005.6051</ele>
        <time>2012-09-02T10:01:27Z</time>
      </trkpt>
      <trkpt lat="45.69742" lon="2.94751">
        <ele>1003.75726</ele>
        <time>2012-09-02T10:01:43Z</time>
      </trkpt>
      <trkpt lat="45.69728" lon="2.94775">
        <ele>1002.36957</ele>
        <time>2012-09-02T10:01:49Z</time>
      </trkpt>
      <trkpt lat="45.69718" lon="2.94798">
        <ele>998.0274</ele>
        <time>2012-09-02T10:01:53Z</time>
      </trkpt>
      <trkpt lat="45.69707" lon="2.94822">
        <ele>993.92303</ele>
        <time>2012-09-02T10:01:57Z</time>
      </trkpt>
      <trkpt lat="45.69696" lon="2.94846">
        <ele>990.90173</ele>
        <time>2012-09-02T10:02:01Z</time>
      </trkpt>
      <trkpt lat="45.69685" lon="2.94873">
        <ele>988.4379</ele>
        <time>2012-09-02T10:02:05Z</time>
      </trkpt>
      <trkpt lat="45.69674" lon="2.94899">
        <ele>985.8537</ele>
        <time>2012-09-02T10:02:09Z</time>
      </trkpt>
      <trkpt lat="45.69661" lon="2.94927">
        <ele>983.4227</ele>
        <time>2012-09-02T10:02:13Z</time>
      </trkpt>
      <trkpt lat="45.69647" lon="2.94946">
        <ele>981.4882</ele>
        <time>2012-09-02T10:02:16Z</time>
      </trkpt>
      <trkpt lat="45.69634" lon="2.94976">
        <ele>978.43604</ele>
        <time>2012-09-02T10:02:20Z</time>
      </trkpt>
      <trkpt lat="45.69622" lon="2.95004">
        <ele>976.2906</ele>
        <time>2012-09-02T10:02:24Z</time>
      </trkpt>
      <trkpt lat="45.6961" lon="2.95039">
        <ele>974.8231</ele>
        <time>2012-09-02T10:02:27Z</time>
      </trkpt>
      <trkpt lat="45.69604" lon="2.95064">
        <ele>973.37317</ele>
        <time>2012-09-02T10:02:29Z</time>
      </trkpt>
      <trkpt lat="45.69597" lon="2.95088">
        <ele>971.8701</ele>
        <time>2012-09-02T10:02:31Z</time>
      </trkpt>
      <trkpt lat="45.69585" lon="2.9511">
        <ele>970.8371</ele>
        <time>2012-09-02T10:02:33Z</time>
      </trkpt>
      <trkpt lat="45.69571" lon="2.95127">
        <ele>970.25604</ele>
        <time>2012-09-02T10:02:35Z</time>
      </trkpt>
      <trkpt lat="45.69558" lon="2.95146">
        <ele>969.9292</ele>
        <time>2012-09-02T10:02:37Z</time>
      </trkpt>
      <trkpt lat="45.69544" lon="2.95176">
        <ele>969.6863</ele>
        <time>2012-09-02T10:02:40Z</time>
      </trkpt>
      <trkpt lat="45.69534" lon="2.95208">
        <ele>969.8338</ele>
        <time>2012-09-02T10:02:43Z</time>
      </trkpt>
      <trkpt lat="45.69522" lon="2.9524">
        <ele>970.2241</ele>
        <time>2012-09-02T10:02:46Z</time>
      </trkpt>
      <trkpt lat="45.6951" lon="2.95268">
        <ele>970.38885</ele>
        <time>2012-09-02T10:02:49Z</time>
      </trkpt>
      <trkpt lat="45.69497" lon="2.95294">
        <ele>970.4583</ele>
        <time>2012-09-02T10:02:52Z</time>
      </trkpt>
      <trkpt lat="45.69485" lon="2.95318">
        <ele>970.50226</ele>
        <time>2012-09-02T10:02:59Z</time>
      </trkpt>
      <trkpt lat="45.6947" lon="2.95337">
        <ele>970.5074</ele>
        <time>2012-09-02T10:03:04Z</time>
      </trkpt>
      <trkpt lat="45.69456" lon="2.95318">
        <ele>970.9461</ele>
        <time>2012-09-02T10:03:09Z</time>
      </trkpt>
      <trkpt lat="45.6944" lon="2.953">
        <ele>972.159</ele>
        <time>2012-09-02T10:03:13Z</time>
      </trkpt>
      <trkpt lat="45.69426" lon="2.95283">
        <ele>973.37695</ele>
        <time>2012-09-02T10:03:16Z</time>
      </trkpt>
      <trkpt lat="45.69409" lon="2.9526">
        <ele>973.5727</ele>
        <time>2012-09-02T10:03:20Z</time>
      </trkpt>
      <trkpt lat="45.69396" lon="2.9524">
        <ele>973.5359</ele>
        <time>2012-09-02T10:03:23Z</time>
      </trkpt>
      <trkpt lat="45.69382" lon="2.95221">
        <ele>972.9422</ele>
        <time>2012-09-02T10:03:26Z</time>
      </trkpt>
      <trkpt lat="45.69369" lon="2.95202">
        <ele>972.6918</ele>
        <time>2012-09-02T10:03:29Z</time>
      </trkpt>
      <trkpt lat="45.69355" lon="2.95182">
        <ele>972.5861</ele>
        <time>2012-09-02T10:03:32Z</time>
      </trkpt>
      <trkpt lat="45.69343" lon="2.95163">
        <ele>972.5415</ele>
        <time>2012-09-02T10:03:35Z</time>
      </trkpt>
      <trkpt lat="45.69324" lon="2.9514">
        <ele>972.5193</ele>
        <time>2012-09-02T10:03:39Z</time>
      </trkpt>
      <trkpt lat="45.6931" lon="2.95122">
        <ele>972.51337</ele>
        <time>2012-09-02T10:03:42Z</time>
      </trkpt>
      <trkpt lat="45.69292" lon="2.9512">
        <ele>972.5108</ele>
        <time>2012-09-02T10:03:45Z</time>
      </trkpt>
      <trkpt lat="45.69272" lon="2.95118">
        <ele>971.93164</ele>
        <time>2012-09-02T10:03:48Z</time>
      </trkpt>
      <trkpt lat="45.6925" lon="2.95116">
        <ele>971.4373</ele>
        <time>2012-09-02T10:03:51Z</time>
      </trkpt>
      <trkpt lat="45.69228" lon="2.95116">
        <ele>969.5371</ele>
        <time>2012-09-02T10:03:55Z</time>
      </trkpt>
      <trkpt lat="45.69207" lon="2.95116">
        <ele>967.3226</ele>
        <time>2012-09-02T10:03:59Z</time>
      </trkpt>
      <trkpt lat="45.69185" lon="2.95116">
        <ele>966.5241</ele>
        <time>2012-09-02T10:04:02Z</time>
      </trkpt>
      <trkpt lat="45.6916" lon="2.95116">
        <ele>966.7654</ele>
        <time>2012-09-02T10:04:05Z</time>
      </trkpt>
      <trkpt lat="45.69136" lon="2.95116">
        <ele>967.19525</ele>
        <time>2012-09-02T10:04:08Z</time>
      </trkpt>
      <trkpt lat="45.69112" lon="2.95116">
        <ele>966.68915</ele>
        <time>2012-09-02T10:04:11Z</time>
      </trkpt>
      <trkpt lat="45.69086" lon="2.95114">
        <ele>965.5694</ele>
        <time>2012-09-02T10:04:14Z</time>
      </trkpt>
      <trkpt lat="45.69059" lon="2.95112">
        <ele>963.94073</ele>
        <time>2012-09-02T10:04:17Z</time>
      </trkpt>
      <trkpt lat="45.69036" lon="2.95122">
        <ele>962.0974</ele>
        <time>2012-09-02T10:04:20Z</time>
      </trkpt>
      <trkpt lat="45.69012" lon="2.95133">
        <ele>960.60095</ele>
        <time>2012-09-02T10:04:23Z</time>
      </trkpt>
      <trkpt lat="45.6899" lon="2.95131">
        <ele>959.39154</ele>
        <time>2012-09-02T10:04:26Z</time>
      </trkpt>
      <trkpt lat="45.68971" lon="2.95125">
        <ele>958.88135</ele>
        <time>2012-09-02T10:04:29Z</time>
      </trkpt>
      <trkpt lat="45.68953" lon="2.95116">
        <ele>958.6661</ele>
        <time>2012-09-02T10:04:32Z</time>
      </trkpt>
      <trkpt lat="45.68934" lon="2.9511">
        <ele>958.3087</ele>
        <time>2012-09-02T10:04:36Z</time>
      </trkpt>
      <trkpt lat="45.68911" lon="2.95112">
        <ele>956.2503</ele>
        <time>2012-09-02T10:04:40Z</time>
      </trkpt>
      <trkpt lat="45.68889" lon="2.95118">
        <ele>954.62244</ele>
        <time>2012-09-02T10:04:44Z</time>
      </trkpt>
      <trkpt lat="45.68868" lon="2.95125">
        <ele>954.22876</ele>
        <time>2012-09-02T10:04:47Z</time>
      </trkpt>
      <trkpt lat="45.68849" lon="2.95127">
        <ele>954.82825</ele>
        <time>2012-09-02T10:04:50Z</time>
      </trkpt>
      <trkpt lat="45.68829" lon="2.95129">
        <ele>955.2218</ele>
        <time>2012-09-02T10:04:53Z</time>
      </trkpt>
      <trkpt lat="45.68808" lon="2.95129">
        <ele>955.1378</ele>
        <time>2012-09-02T10:04:56Z</time>
      </trkpt>
      <trkpt lat="45.68788" lon="2.95133">
        <ele>954.7743</ele>
        <time>2012-09-02T10:04:59Z</time>
      </trkpt>
      <trkpt lat="45.68771" lon="2.95148">
        <ele>954.6209</ele>
        <time>2012-09-02T10:05:02Z</time>
      </trkpt>
      <trkpt lat="45.68753" lon="2.95163">
        <ele>954.1187</ele>
        <time>2012-09-02T10:05:05Z</time>
      </trkpt>
      <trkpt lat="45.68729" lon="2.95163">
        <ele>952.7506</ele>
        <time>2012-09-02T10:05:08Z</time>
      </trkpt>
      <trkpt lat="45.68707" lon="2.95178">
        <ele>951.5953</ele>
        <time>2012-09-02T10:05:11Z</time>
      </trkpt>
      <trkpt lat="45.68687" lon="2.95195">
        <ele>951.7954</ele>
        <time>2012-09-02T10:05:14Z</time>
      </trkpt>
      <trkpt lat="45.68671" lon="2.95219">
        <ele>952.64545</ele>
        <time>2012-09-02T10:05:17Z</time>
      </trkpt>
      <trkpt lat="45.68665" lon="2.95245">
        <ele>953.72284</ele>
        <time>2012-09-02T10:05:20Z</time>
      </trkpt>
      <trkpt lat="45.68665" lon="2.95277">
        <ele>955.19385</ele>
        <time>2012-09-02T10:05:24Z</time>
      </trkpt>
      <trkpt lat="45.68663" lon="2.95309">
        <ele>956.0929</ele>
        <time>2012-09-02T10:05:28Z</time>
      </trkpt>
      <trkpt lat="45.6866" lon="2.95337">
        <ele>956.3773</ele>
        <time>2012-09-02T10:05:32Z</time>
      </trkpt>
      <trkpt lat="45.68658" lon="2.95363">
        <ele>955.2017</ele>
        <time>2012-09-02T10:05:36Z</time>
      </trkpt>
      <trkpt lat="45.68657" lon="2.95393">
        <ele>952.67346</ele>
        <time>2012-09-02T10:05:40Z</time>
      </trkpt>
      <trkpt lat="45.68651" lon="2.95421">
        <ele>950.6157</ele>
        <time>2012-09-02T10:05:44Z</time>
      </trkpt>
      <trkpt lat="45.68629" lon="2.95423">
        <ele>950.0216</ele>
        <time>2012-09-02T10:05:49Z</time>
      </trkpt>
      <trkpt lat="45.6861" lon="2.95419">
        <ele>952.304</ele>
        <time>2012-09-02T10:05:53Z</time>
      </trkpt>
      <trkpt lat="45.68592" lon="2.95406">
        <ele>955.18243</ele>
        <time>2012-09-02T10:05:57Z</time>
      </trkpt>
      <trkpt lat="45.68571" lon="2.9541">
        <ele>957.53503</ele>
        <time>2012-09-02T10:06:02Z</time>
      </trkpt>
      <trkpt lat="45.68556" lon="2.95427">
        <ele>958.37897</ele>
        <time>2012-09-02T10:06:09Z</time>
      </trkpt>
      <trkpt lat="45.68534" lon="2.95449">
        <ele>957.3136</ele>
        <time>2012-09-02T10:06:24Z</time>
      </trkpt>
      <trkpt lat="45.68524" lon="2.95479">
        <ele>955.84485</ele>
        <time>2012-09-02T10:06:39Z</time>
      </trkpt>
      <trkpt lat="45.6854" lon="2.95494">
        <ele>956.4591</ele>
        <time>2012-09-02T10:06:48Z</time>
      </trkpt>
      <trkpt lat="45.68557" lon="2.95506">
        <ele>956.5001</ele>
        <time>2012-09-02T10:06:54Z</time>
      </trkpt>
      <trkpt lat="45.68574" lon="2.95521">
        <ele>956.50745</ele>
        <time>2012-09-02T10:07:00Z</time>
      </trkpt>
      <trkpt lat="45.68589" lon="2.95541">
        <ele>956.5088</ele>
        <time>2012-09-02T10:07:07Z</time>
      </trkpt>
      <trkpt lat="45.68599" lon="2.95569">
        <ele>956.759</ele>
        <time>2012-09-02T10:07:14Z</time>
      </trkpt>
      <trkpt lat="45.68606" lon="2.95594">
        <ele>958.8438</ele>
        <time>2012-09-02T10:07:25Z</time>
      </trkpt>
      <trkpt lat="45.68608" lon="2.95622">
        <ele>962.84216</ele>
        <time>2012-09-02T10:07:41Z</time>
      </trkpt>
      <trkpt lat="45.68619" lon="2.95644">
        <ele>966.45245</ele>
        <time>2012-09-02T10:07:54Z</time>
      </trkpt>
      <trkpt lat="45.68631" lon="2.95667">
        <ele>968.8504</ele>
        <time>2012-09-02T10:08:07Z</time>
      </trkpt>
      <trkpt lat="45.68642" lon="2.95691">
        <ele>971.511</ele>
        <time>2012-09-02T10:08:18Z</time>
      </trkpt>
      <trkpt lat="45.68652" lon="2.95723">
        <ele>974.8535</ele>
        <time>2012-09-02T10:08:31Z</time>
      </trkpt>
      <trkpt lat="45.68658" lon="2.95751">
        <ele>978.3331</ele>
        <time>2012-09-02T10:08:42Z</time>
      </trkpt>
      <trkpt lat="45.68666" lon="2.95777">
        <ele>981.6034</ele>
        <time>2012-09-02T10:08:53Z</time>
      </trkpt>
      <trkpt lat="45.68675" lon="2.958">
        <ele>986.47504</ele>
        <time>2012-09-02T10:09:07Z</time>
      </trkpt>
      <trkpt lat="45.68689" lon="2.95818">
        <ele>990.28625</ele>
        <time>2012-09-02T10:09:20Z</time>
      </trkpt>
      <trkpt lat="45.68707" lon="2.95822">
        <ele>993.49567</ele>
        <time>2012-09-02T10:09:33Z</time>
      </trkpt>
      <trkpt lat="45.68727" lon="2.95828">
        <ele>995.9442</ele>
        <time>2012-09-02T10:09:44Z</time>
      </trkpt>
      <trkpt lat="45.68741" lon="2.95848">
        <ele>998.1915</ele>
        <time>2012-09-02T10:09:55Z</time>
      </trkpt>
      <trkpt lat="45.68756" lon="2.95869">
        <ele>998.4525</ele>
        <time>2012-09-02T10:10:01Z</time>
      </trkpt>
      <trkpt lat="45.68771" lon="2.95891">
        <ele>997.92084</ele>
        <time>2012-09-02T10:10:07Z</time>
      </trkpt>
      <trkpt lat="45.68784" lon="2.95912">
        <ele>996.3821</ele>
        <time>2012-09-02T10:10:13Z</time>
      </trkpt>
      <trkpt lat="45.68795" lon="2.95933">
        <ele>995.4662</ele>
        <time>2012-09-02T10:10:18Z</time>
      </trkpt>
      <trkpt lat="45.68808" lon="2.95959">
        <ele>995.17365</ele>
        <time>2012-09-02T10:10:23Z</time>
      </trkpt>
      <trkpt lat="45.68819" lon="2.95983">
        <ele>996.1478</ele>
        <time>2012-09-02T10:10:30Z</time>
      </trkpt>
      <trkpt lat="45.68827" lon="2.96009">
        <ele>997.29486</ele>
        <time>2012-09-02T10:10:38Z</time>
      </trkpt>
      <trkpt lat="45.68829" lon="2.96036">
        <ele>998.35944</ele>
        <time>2012-09-02T10:10:47Z</time>
      </trkpt>
      <trkpt lat="45.68828" lon="2.96062">
        <ele>998.494</ele>
        <time>2012-09-02T10:10:55Z</time>
      </trkpt>
      <trkpt lat="45.68819" lon="2.96088">
        <ele>997.7452</ele>
        <time>2012-09-02T10:11:04Z</time>
      </trkpt>
      <trkpt lat="45.68815" lon="2.96116">
        <ele>997.519</ele>
        <time>2012-09-02T10:11:15Z</time>
      </trkpt>
      <trkpt lat="45.68817" lon="2.96144">
        <ele>998.08813</ele>
        <time>2012-09-02T10:11:23Z</time>
      </trkpt>
      <trkpt lat="45.68821" lon="2.96172">
        <ele>998.4774</ele>
        <time>2012-09-02T10:11:32Z</time>
      </trkpt>
      <trkpt lat="45.68819" lon="2.96197">
        <ele>999.0829</ele>
        <time>2012-09-02T10:11:39Z</time>
      </trkpt>
      <trkpt lat="45.68814" lon="2.96225">
        <ele>1000.11676</ele>
        <time>2012-09-02T10:11:45Z</time>
      </trkpt>
      <trkpt lat="45.68805" lon="2.96255">
        <ele>1002.77686</ele>
        <time>2012-09-02T10:11:51Z</time>
      </trkpt>
      <trkpt lat="45.68795" lon="2.96285">
        <ele>1006.497</ele>
        <time>2012-09-02T10:11:54Z</time>
      </trkpt>
      <trkpt lat="45.68786" lon="2.96318">
        <ele>1010.42316</ele>
        <time>2012-09-02T10:11:58Z</time>
      </trkpt>
      <trkpt lat="45.68777" lon="2.96345">
        <ele>1012.97015</ele>
        <time>2012-09-02T10:12:02Z</time>
      </trkpt>
      <trkpt lat="45.68775" lon="2.96371">
        <ele>1014.2721</ele>
        <time>2012-09-02T10:12:06Z</time>
      </trkpt>
      <trkpt lat="45.68774" lon="2.96397">
        <ele>1015.21545</ele>
        <time>2012-09-02T10:12:11Z</time>
      </trkpt>
      <trkpt lat="45.68765" lon="2.96421">
        <ele>1016.202</ele>
        <time>2012-09-02T10:12:16Z</time>
      </trkpt>
      <trkpt lat="45.68748" lon="2.96436">
        <ele>1016.218</ele>
        <time>2012-09-02T10:12:23Z</time>
      </trkpt>
      <trkpt lat="45.68727" lon="2.96446">
        <ele>1015.57996</ele>
        <time>2012-09-02T10:12:31Z</time>
      </trkpt>
      <trkpt lat="45.68707" lon="2.96451">
        <ele>1013.6877</ele>
        <time>2012-09-02T10:12:35Z</time>
      </trkpt>
      <trkpt lat="45.68688" lon="2.96457">
        <ele>1010.06165</ele>
        <time>2012-09-02T10:12:39Z</time>
      </trkpt>
      <trkpt lat="45.68668" lon="2.96468">
        <ele>1007.07025</ele>
        <time>2012-09-02T10:12:42Z</time>
      </trkpt>
      <trkpt lat="45.68651" lon="2.96476">
        <ele>1003.7458</ele>
        <time>2012-09-02T10:12:45Z</time>
      </trkpt>
      <trkpt lat="45.68628" lon="2.96487">
        <ele>999.5839</ele>
        <time>2012-09-02T10:12:49Z</time>
      </trkpt>
      <trkpt lat="45.68607" lon="2.96496">
        <ele>997.5562</ele>
        <time>2012-09-02T10:12:52Z</time>
      </trkpt>
      <trkpt lat="45.68588" lon="2.965">
        <ele>996.4106</ele>
        <time>2012-09-02T10:12:54Z</time>
      </trkpt>
      <trkpt lat="45.68565" lon="2.96498">
        <ele>995.8286</ele>
        <time>2012-09-02T10:12:56Z</time>
      </trkpt>
      <trkpt lat="45.68537" lon="2.96491">
        <ele>995.2513</ele>
        <time>2012-09-02T10:12:58Z</time>
      </trkpt>
      <trkpt lat="45.6851" lon="2.96483">
        <ele>994.6765</ele>
        <time>2012-09-02T10:13:00Z</time>
      </trkpt>
      <trkpt lat="45.6849" lon="2.96474">
        <ele>994.1658</ele>
        <time>2012-09-02T10:13:02Z</time>
      </trkpt>
      <trkpt lat="45.6847" lon="2.96468">
        <ele>994.2236</ele>
        <time>2012-09-02T10:13:05Z</time>
      </trkpt>
      <trkpt lat="45.68448" lon="2.96479">
        <ele>993.0476</ele>
        <time>2012-09-02T10:13:09Z</time>
      </trkpt>
      <trkpt lat="45.68429" lon="2.965">
        <ele>992.1581</ele>
        <time>2012-09-02T10:13:12Z</time>
      </trkpt>
      <trkpt lat="45.68409" lon="2.96524">
        <ele>991.34534</ele>
        <time>2012-09-02T10:13:15Z</time>
      </trkpt>
      <trkpt lat="45.68395" lon="2.96541">
        <ele>990.97943</ele>
        <time>2012-09-02T10:13:17Z</time>
      </trkpt>
      <trkpt lat="45.68381" lon="2.9656">
        <ele>990.5236</ele>
        <time>2012-09-02T10:13:19Z</time>
      </trkpt>
      <trkpt lat="45.68363" lon="2.96582">
        <ele>989.6871</ele>
        <time>2012-09-02T10:13:22Z</time>
      </trkpt>
      <trkpt lat="45.68339" lon="2.96592">
        <ele>988.17786</ele>
        <time>2012-09-02T10:13:25Z</time>
      </trkpt>
      <trkpt lat="45.6832" lon="2.96597">
        <ele>986.76025</ele>
        <time>2012-09-02T10:13:27Z</time>
      </trkpt>
      <trkpt lat="45.68301" lon="2.96603">
        <ele>985.0878</ele>
        <time>2012-09-02T10:13:29Z</time>
      </trkpt>
      <trkpt lat="45.68282" lon="2.96607">
        <ele>983.2721</ele>
        <time>2012-09-02T10:13:31Z</time>
      </trkpt>
      <trkpt lat="45.68263" lon="2.96616">
        <ele>980.84656</ele>
        <time>2012-09-02T10:13:34Z</time>
      </trkpt>
      <trkpt lat="45.6826" lon="2.96642">
        <ele>977.7509</ele>
        <time>2012-09-02T10:13:43Z</time>
      </trkpt>
      <trkpt lat="45.68264" lon="2.96667">
        <ele>975.9912</ele>
        <time>2012-09-02T10:13:50Z</time>
      </trkpt>
      <trkpt lat="45.68275" lon="2.96693">
        <ele>974.02325</ele>
        <time>2012-09-02T10:13:57Z</time>
      </trkpt>
      <trkpt lat="45.68286" lon="2.96715">
        <ele>971.71857</ele>
        <time>2012-09-02T10:14:01Z</time>
      </trkpt>
      <trkpt lat="45.68303" lon="2.96736">
        <ele>968.5089</ele>
        <time>2012-09-02T10:14:05Z</time>
      </trkpt>
      <trkpt lat="45.6832" lon="2.96755">
        <ele>966.2082</ele>
        <time>2012-09-02T10:14:09Z</time>
      </trkpt>
      <trkpt lat="45.68342" lon="2.96768">
        <ele>965.04663</ele>
        <time>2012-09-02T10:14:13Z</time>
      </trkpt>
      <trkpt lat="45.68365" lon="2.96775">
        <ele>963.74554</ele>
        <time>2012-09-02T10:14:17Z</time>
      </trkpt>
      <trkpt lat="45.68383" lon="2.96779">
        <ele>961.2739</ele>
        <time>2012-09-02T10:14:24Z</time>
      </trkpt>
      <trkpt lat="45.68404" lon="2.96772">
        <ele>959.71155</ele>
        <time>2012-09-02T10:14:30Z</time>
      </trkpt>
      <trkpt lat="45.68427" lon="2.96764">
        <ele>950.5639</ele>
        <time>2012-09-02T10:14:35Z</time>
      </trkpt>
      <trkpt lat="45.68448" lon="2.96751">
        <ele>943.6259</ele>
        <time>2012-09-02T10:14:38Z</time>
      </trkpt>
      <trkpt lat="45.6847" lon="2.96742">
        <ele>938.24585</ele>
        <time>2012-09-02T10:14:41Z</time>
      </trkpt>
      <trkpt lat="45.68494" lon="2.96742">
        <ele>934.2417</ele>
        <time>2012-09-02T10:14:44Z</time>
      </trkpt>
      <trkpt lat="45.68521" lon="2.96749">
        <ele>931.0681</ele>
        <time>2012-09-02T10:14:47Z</time>
      </trkpt>
      <trkpt lat="45.68539" lon="2.96755">
        <ele>929.261</ele>
        <time>2012-09-02T10:14:49Z</time>
      </trkpt>
      <trkpt lat="45.68558" lon="2.9676">
        <ele>927.3695</ele>
        <time>2012-09-02T10:14:51Z</time>
      </trkpt>
      <trkpt lat="45.68577" lon="2.96764">
        <ele>925.68054</ele>
        <time>2012-09-02T10:14:53Z</time>
      </trkpt>
      <trkpt lat="45.68604" lon="2.96764">
        <ele>923.847</ele>
        <time>2012-09-02T10:14:56Z</time>
      </trkpt>
      <trkpt lat="45.68624" lon="2.96762">
        <ele>923.0116</ele>
        <time>2012-09-02T10:14:58Z</time>
      </trkpt>
      <trkpt lat="45.68643" lon="2.96755">
        <ele>922.35425</ele>
        <time>2012-09-02T10:15:00Z</time>
      </trkpt>
      <trkpt lat="45.68662" lon="2.96749">
        <ele>922.42194</ele>
        <time>2012-09-02T10:15:02Z</time>
      </trkpt>
      <trkpt lat="45.68685" lon="2.96736">
        <ele>923.7379</ele>
        <time>2012-09-02T10:15:05Z</time>
      </trkpt>
      <trkpt lat="45.68701" lon="2.96723">
        <ele>925.58997</ele>
        <time>2012-09-02T10:15:08Z</time>
      </trkpt>
      <trkpt lat="45.68718" lon="2.96712">
        <ele>927.965</ele>
        <time>2012-09-02T10:15:11Z</time>
      </trkpt>
      <trkpt lat="45.68735" lon="2.96704">
        <ele>930.45135</ele>
        <time>2012-09-02T10:15:14Z</time>
      </trkpt>
      <trkpt lat="45.68757" lon="2.96697">
        <ele>931.858</ele>
        <time>2012-09-02T10:15:18Z</time>
      </trkpt>
      <trkpt lat="45.68778" lon="2.96697">
        <ele>931.5918</ele>
        <time>2012-09-02T10:15:23Z</time>
      </trkpt>
      <trkpt lat="45.68805" lon="2.96706">
        <ele>931.5352</ele>
        <time>2012-09-02T10:15:27Z</time>
      </trkpt>
      <trkpt lat="45.68829" lon="2.9671">
        <ele>931.5173</ele>
        <time>2012-09-02T10:15:31Z</time>
      </trkpt>
      <trkpt lat="45.68848" lon="2.96695">
        <ele>931.511</ele>
        <time>2012-09-02T10:15:36Z</time>
      </trkpt>
      <trkpt lat="45.68869" lon="2.96676">
        <ele>932.19293</ele>
        <time>2012-09-02T10:15:42Z</time>
      </trkpt>
      <trkpt lat="45.68889" lon="2.96652">
        <ele>932.45276</ele>
        <time>2012-09-02T10:15:48Z</time>
      </trkpt>
      <trkpt lat="45.68904" lon="2.96633">
        <ele>932.50146</ele>
        <time>2012-09-02T10:15:55Z</time>
      </trkpt>
      <trkpt lat="45.68921" lon="2.96603">
        <ele>932.50824</ele>
        <time>2012-09-02T10:16:03Z</time>
      </trkpt>
      <trkpt lat="45.68934" lon="2.96579">
        <ele>932.75885</ele>
        <time>2012-09-02T10:16:09Z</time>
      </trkpt>
      <trkpt lat="45.68946" lon="2.96556">
        <ele>933.9089</ele>
        <time>2012-09-02T10:16:16Z</time>
      </trkpt>
      <trkpt lat="45.68962" lon="2.96536">
        <ele>936.7109</ele>
        <time>2012-09-02T10:16:25Z</time>
      </trkpt>
      <trkpt lat="45.68979" lon="2.96528">
        <ele>940.6661</ele>
        <time>2012-09-02T10:16:36Z</time>
      </trkpt>
      <trkpt lat="45.68997" lon="2.96541">
        <ele>944.12604</ele>
        <time>2012-09-02T10:16:50Z</time>
      </trkpt>
      <trkpt lat="45.69018" lon="2.96545">
        <ele>947.4021</ele>
        <time>2012-09-02T10:16:59Z</time>
      </trkpt>
      <trkpt lat="45.69037" lon="2.96539">
        <ele>949.4386</ele>
        <time>2012-09-02T10:17:08Z</time>
      </trkpt>
      <trkpt lat="45.69056" lon="2.96545">
        <ele>952.2241</ele>
        <time>2012-09-02T10:17:18Z</time>
      </trkpt>
      <trkpt lat="45.69072" lon="2.9656">
        <ele>953.58746</ele>
        <time>2012-09-02T10:17:25Z</time>
      </trkpt>
      <trkpt lat="45.6909" lon="2.96571">
        <ele>955.0696</ele>
        <time>2012-09-02T10:17:32Z</time>
      </trkpt>
      <trkpt lat="45.6911" lon="2.96577">
        <ele>955.4503</ele>
        <time>2012-09-02T10:17:39Z</time>
      </trkpt>
      <trkpt lat="45.69127" lon="2.96597">
        <ele>955.50116</ele>
        <time>2012-09-02T10:17:46Z</time>
      </trkpt>
      <trkpt lat="45.69144" lon="2.96614">
        <ele>955.50793</ele>
        <time>2012-09-02T10:17:53Z</time>
      </trkpt>
      <trkpt lat="45.69158" lon="2.96631">
        <ele>954.6869</ele>
        <time>2012-09-02T10:18:02Z</time>
      </trkpt>
      <trkpt lat="45.69162" lon="2.96659">
        <ele>955.0028</ele>
        <time>2012-09-02T10:18:06Z</time>
      </trkpt>
      <trkpt lat="45.69172" lon="2.96685">
        <ele>954.95135</ele>
        <time>2012-09-02T10:18:11Z</time>
      </trkpt>
      <trkpt lat="45.69191" lon="2.96697">
        <ele>953.6541</ele>
        <time>2012-09-02T10:18:17Z</time>
      </trkpt>
      <trkpt lat="45.69214" lon="2.96697">
        <ele>952.4628</ele>
        <time>2012-09-02T10:18:23Z</time>
      </trkpt>
      <trkpt lat="45.69234" lon="2.96691">
        <ele>950.3772</ele>
        <time>2012-09-02T10:18:27Z</time>
      </trkpt>
      <trkpt lat="45.69256" lon="2.9668">
        <ele>946.43774</ele>
        <time>2012-09-02T10:18:30Z</time>
      </trkpt>
      <trkpt lat="45.69276" lon="2.96665">
        <ele>943.1508</ele>
        <time>2012-09-02T10:18:33Z</time>
      </trkpt>
      <trkpt lat="45.69295" lon="2.96665">
        <ele>940.7954</ele>
        <time>2012-09-02T10:18:36Z</time>
      </trkpt>
      <trkpt lat="45.69315" lon="2.96667">
        <ele>939.0516</ele>
        <time>2012-09-02T10:18:41Z</time>
      </trkpt>
      <trkpt lat="45.69333" lon="2.96672">
        <ele>938.05963</ele>
        <time>2012-09-02T10:18:46Z</time>
      </trkpt>
      <trkpt lat="45.69351" lon="2.96676">
        <ele>937.63965</ele>
        <time>2012-09-02T10:18:51Z</time>
      </trkpt>
      <trkpt lat="45.69371" lon="2.9668">
        <ele>936.76953</ele>
        <time>2012-09-02T10:18:57Z</time>
      </trkpt>
      <trkpt lat="45.69391" lon="2.96682">
        <ele>936.29376</ele>
        <time>2012-09-02T10:19:04Z</time>
      </trkpt>
      <trkpt lat="45.69409" lon="2.96695">
        <ele>935.5876</ele>
        <time>2012-09-02T10:19:12Z</time>
      </trkpt>
      <trkpt lat="45.69427" lon="2.96704">
        <ele>935.5339</ele>
        <time>2012-09-02T10:19:16Z</time>
      </trkpt>
      <trkpt lat="45.69447" lon="2.96721">
        <ele>935.7604</ele>
        <time>2012-09-02T10:19:26Z</time>
      </trkpt>
      <trkpt lat="45.69464" lon="2.96734">
        <ele>936.7412</ele>
        <time>2012-09-02T10:19:39Z</time>
      </trkpt>
      <trkpt lat="45.69484" lon="2.96742">
        <ele>938.21405</ele>
        <time>2012-09-02T10:19:48Z</time>
      </trkpt>
      <trkpt lat="45.695" lon="2.96757">
        <ele>939.01715</ele>
        <time>2012-09-02T10:19:53Z</time>
      </trkpt>
      <trkpt lat="45.69517" lon="2.96777">
        <ele>940.35504</ele>
        <time>2012-09-02T10:19:59Z</time>
      </trkpt>
      <trkpt lat="45.69534" lon="2.9679">
        <ele>943.4555</ele>
        <time>2012-09-02T10:20:11Z</time>
      </trkpt>
      <trkpt lat="45.69545" lon="2.96813">
        <ele>945.5019</ele>
        <time>2012-09-02T10:20:20Z</time>
      </trkpt>
      <trkpt lat="45.69539" lon="2.96839">
        <ele>948.79083</ele>
        <time>2012-09-02T10:20:34Z</time>
      </trkpt>
      <trkpt lat="45.69527" lon="2.9686">
        <ele>952.5805</ele>
        <time>2012-09-02T10:20:45Z</time>
      </trkpt>
      <trkpt lat="45.69519" lon="2.96888">
        <ele>956.29443</ele>
        <time>2012-09-02T10:20:55Z</time>
      </trkpt>
      <trkpt lat="45.69516" lon="2.96914">
        <ele>958.4491</ele>
        <time>2012-09-02T10:21:01Z</time>
      </trkpt>
      <trkpt lat="45.69513" lon="2.96944">
        <ele>960.8122</ele>
        <time>2012-09-02T10:21:06Z</time>
      </trkpt>
      <trkpt lat="45.69508" lon="2.9697">
        <ele>960.73236</ele>
        <time>2012-09-02T10:21:13Z</time>
      </trkpt>
      <trkpt lat="45.69502" lon="2.96996">
        <ele>958.9887</ele>
        <time>2012-09-02T10:21:20Z</time>
      </trkpt>
      <trkpt lat="45.69492" lon="2.97024">
        <ele>954.07874</ele>
        <time>2012-09-02T10:21:24Z</time>
      </trkpt>
      <trkpt lat="45.69479" lon="2.97047">
        <ele>948.71356</ele>
        <time>2012-09-02T10:21:29Z</time>
      </trkpt>
      <trkpt lat="45.69465" lon="2.97073">
        <ele>947.79486</ele>
        <time>2012-09-02T10:21:34Z</time>
      </trkpt>
      <trkpt lat="45.69454" lon="2.97101">
        <ele>947.6296</ele>
        <time>2012-09-02T10:21:37Z</time>
      </trkpt>
      <trkpt lat="45.69446" lon="2.97133">
        <ele>948.1025</ele>
        <time>2012-09-02T10:21:43Z</time>
      </trkpt>
      <trkpt lat="45.69442" lon="2.97159">
        <ele>947.3646</ele>
        <time>2012-09-02T10:21:49Z</time>
      </trkpt>
      <trkpt lat="45.69441" lon="2.97193">
        <ele>946.96204</ele>
        <time>2012-09-02T10:21:54Z</time>
      </trkpt>
      <trkpt lat="45.69438" lon="2.97221">
        <ele>947.77826</ele>
        <time>2012-09-02T10:21:57Z</time>
      </trkpt>
      <trkpt lat="45.69439" lon="2.97251">
        <ele>949.7945</ele>
        <time>2012-09-02T10:22:00Z</time>
      </trkpt>
      <trkpt lat="45.69441" lon="2.97281">
        <ele>950.7165</ele>
        <time>2012-09-02T10:22:04Z</time>
      </trkpt>
      <trkpt lat="45.69441" lon="2.97311">
        <ele>950.15906</ele>
        <time>2012-09-02T10:22:07Z</time>
      </trkpt>
      <trkpt lat="45.69438" lon="2.97337">
        <ele>949.43713</ele>
        <time>2012-09-02T10:22:09Z</time>
      </trkpt>
      <trkpt lat="45.69434" lon="2.97369">
        <ele>947.82245</ele>
        <time>2012-09-02T10:22:12Z</time>
      </trkpt>
      <trkpt lat="45.69435" lon="2.97397">
        <ele>944.64124</ele>
        <time>2012-09-02T10:22:15Z</time>
      </trkpt>
      <trkpt lat="45.69441" lon="2.97427">
        <ele>940.73663</ele>
        <time>2012-09-02T10:22:18Z</time>
      </trkpt>
      <trkpt lat="45.69449" lon="2.97451">
        <ele>937.7621</ele>
        <time>2012-09-02T10:22:20Z</time>
      </trkpt>
      <trkpt lat="45.69462" lon="2.97483">
        <ele>933.53766</ele>
        <time>2012-09-02T10:22:23Z</time>
      </trkpt>
      <trkpt lat="45.69475" lon="2.97504">
        <ele>928.3492</ele>
        <time>2012-09-02T10:22:26Z</time>
      </trkpt>
      <trkpt lat="45.6949" lon="2.97519">
        <ele>922.40765</ele>
        <time>2012-09-02T10:22:30Z</time>
      </trkpt>
      <trkpt lat="45.69504" lon="2.97541">
        <ele>917.18066</ele>
        <time>2012-09-02T10:22:36Z</time>
      </trkpt>
      <trkpt lat="45.69517" lon="2.97558">
        <ele>915.7879</ele>
        <time>2012-09-02T10:22:40Z</time>
      </trkpt>
      <trkpt lat="45.69536" lon="2.97573">
        <ele>913.79254</ele>
        <time>2012-09-02T10:22:44Z</time>
      </trkpt>
      <trkpt lat="45.69551" lon="2.97588">
        <ele>912.613</ele>
        <time>2012-09-02T10:22:47Z</time>
      </trkpt>
      <trkpt lat="45.69564" lon="2.97607">
        <ele>912.41223</ele>
        <time>2012-09-02T10:22:50Z</time>
      </trkpt>
      <trkpt lat="45.69577" lon="2.97631">
        <ele>913.7401</ele>
        <time>2012-09-02T10:22:54Z</time>
      </trkpt>
      <trkpt lat="45.69586" lon="2.97659">
        <ele>914.1564</ele>
        <time>2012-09-02T10:23:01Z</time>
      </trkpt>
      <trkpt lat="45.69579" lon="2.97687">
        <ele>914.0617</ele>
        <time>2012-09-02T10:23:07Z</time>
      </trkpt>
      <trkpt lat="45.69568" lon="2.9771">
        <ele>914.6794</ele>
        <time>2012-09-02T10:23:13Z</time>
      </trkpt>
      <trkpt lat="45.69558" lon="2.97734">
        <ele>915.1113</ele>
        <time>2012-09-02T10:23:19Z</time>
      </trkpt>
      <trkpt lat="45.69551" lon="2.97757">
        <ele>914.6519</ele>
        <time>2012-09-02T10:23:24Z</time>
      </trkpt>
      <trkpt lat="45.69559" lon="2.97783">
        <ele>914.5429</ele>
        <time>2012-09-02T10:23:29Z</time>
      </trkpt>
      <trkpt lat="45.69568" lon="2.97813">
        <ele>914.9572</ele>
        <time>2012-09-02T10:23:33Z</time>
      </trkpt>
      <trkpt lat="45.69569" lon="2.97839">
        <ele>915.52625</ele>
        <time>2012-09-02T10:23:36Z</time>
      </trkpt>
      <trkpt lat="45.69568" lon="2.97869">
        <ele>915.6569</ele>
        <time>2012-09-02T10:23:39Z</time>
      </trkpt>
      <trkpt lat="45.69564" lon="2.97901">
        <ele>914.6339</ele>
        <time>2012-09-02T10:23:42Z</time>
      </trkpt>
      <trkpt lat="45.69558" lon="2.97927">
        <ele>912.96796</ele>
        <time>2012-09-02T10:23:45Z</time>
      </trkpt>
      <trkpt lat="45.69556" lon="2.97955">
        <ele>911.3925</ele>
        <time>2012-09-02T10:23:49Z</time>
      </trkpt>
      <trkpt lat="45.69548" lon="2.97987">
        <ele>911.79675</ele>
        <time>2012-09-02T10:23:54Z</time>
      </trkpt>
      <trkpt lat="45.69533" lon="2.98008">
        <ele>914.7797</ele>
        <time>2012-09-02T10:23:58Z</time>
      </trkpt>
      <trkpt lat="45.69519" lon="2.9803">
        <ele>917.57904</ele>
        <time>2012-09-02T10:24:02Z</time>
      </trkpt>
      <trkpt lat="45.69505" lon="2.98049">
        <ele>919.52295</ele>
        <time>2012-09-02T10:24:05Z</time>
      </trkpt>
      <trkpt lat="45.6949" lon="2.98064">
        <ele>921.49927</ele>
        <time>2012-09-02T10:24:08Z</time>
      </trkpt>
      <trkpt lat="45.69475" lon="2.98079">
        <ele>922.41113</ele>
        <time>2012-09-02T10:24:11Z</time>
      </trkpt>
      <trkpt lat="45.69461" lon="2.98096">
        <ele>921.7802</ele>
        <time>2012-09-02T10:24:14Z</time>
      </trkpt>
      <trkpt lat="45.69448" lon="2.9812">
        <ele>921.0453</ele>
        <time>2012-09-02T10:24:17Z</time>
      </trkpt>
      <trkpt lat="45.69437" lon="2.98146">
        <ele>920.6787</ele>
        <time>2012-09-02T10:24:21Z</time>
      </trkpt>
      <trkpt lat="45.69422" lon="2.98169">
        <ele>918.62744</ele>
        <time>2012-09-02T10:24:24Z</time>
      </trkpt>
      <trkpt lat="45.69408" lon="2.98191">
        <ele>915.55896</ele>
        <time>2012-09-02T10:24:27Z</time>
      </trkpt>
      <trkpt lat="45.69394" lon="2.98214">
        <ele>912.7176</ele>
        <time>2012-09-02T10:24:30Z</time>
      </trkpt>
      <trkpt lat="45.69381" lon="2.98234">
        <ele>910.62634</ele>
        <time>2012-09-02T10:24:32Z</time>
      </trkpt>
      <trkpt lat="45.69369" lon="2.98257">
        <ele>908.325</ele>
        <time>2012-09-02T10:24:34Z</time>
      </trkpt>
      <trkpt lat="45.69358" lon="2.98279">
        <ele>905.968</ele>
        <time>2012-09-02T10:24:36Z</time>
      </trkpt>
      <trkpt lat="45.69345" lon="2.98305">
        <ele>902.70264</ele>
        <time>2012-09-02T10:24:39Z</time>
      </trkpt>
      <trkpt lat="45.69331" lon="2.9833">
        <ele>899.5907</ele>
        <time>2012-09-02T10:24:42Z</time>
      </trkpt>
      <trkpt lat="45.69313" lon="2.98354">
        <ele>897.3716</ele>
        <time>2012-09-02T10:24:45Z</time>
      </trkpt>
      <trkpt lat="45.69299" lon="2.98371">
        <ele>896.5567</ele>
        <time>2012-09-02T10:24:47Z</time>
      </trkpt>
      <trkpt lat="45.69286" lon="2.9839">
        <ele>896.0983</ele>
        <time>2012-09-02T10:24:49Z</time>
      </trkpt>
      <trkpt lat="45.69265" lon="2.98418">
        <ele>895.5076</ele>
        <time>2012-09-02T10:24:52Z</time>
      </trkpt>
      <trkpt lat="45.69254" lon="2.9844">
        <ele>894.63324</ele>
        <time>2012-09-02T10:24:54Z</time>
      </trkpt>
      <trkpt lat="45.69246" lon="2.98478">
        <ele>894.8114</ele>
        <time>2012-09-02T10:24:57Z</time>
      </trkpt>
      <trkpt lat="45.69243" lon="2.98504">
        <ele>896.2416</ele>
        <time>2012-09-02T10:24:59Z</time>
      </trkpt>
      <trkpt lat="45.69239" lon="2.98541">
        <ele>899.3962</ele>
        <time>2012-09-02T10:25:02Z</time>
      </trkpt>
      <trkpt lat="45.6923" lon="2.98575">
        <ele>902.4614</ele>
        <time>2012-09-02T10:25:05Z</time>
      </trkpt>
      <trkpt lat="45.6922" lon="2.98607">
        <ele>906.0671</ele>
        <time>2012-09-02T10:25:08Z</time>
      </trkpt>
      <trkpt lat="45.69211" lon="2.98639">
        <ele>909.3226</ele>
        <time>2012-09-02T10:25:11Z</time>
      </trkpt>
      <trkpt lat="45.69201" lon="2.98669">
        <ele>911.41473</ele>
        <time>2012-09-02T10:25:14Z</time>
      </trkpt>
      <trkpt lat="45.69191" lon="2.98697">
        <ele>912.6255</ele>
        <time>2012-09-02T10:25:17Z</time>
      </trkpt>
      <trkpt lat="45.69187" lon="2.98729">
        <ele>913.5738</ele>
        <time>2012-09-02T10:25:20Z</time>
      </trkpt>
      <trkpt lat="45.69188" lon="2.98762">
        <ele>914.36444</ele>
        <time>2012-09-02T10:25:23Z</time>
      </trkpt>
      <trkpt lat="45.69168" lon="2.98772">
        <ele>915.48737</ele>
        <time>2012-09-02T10:25:28Z</time>
      </trkpt>
      <trkpt lat="45.69149" lon="2.98772">
        <ele>916.5155</ele>
        <time>2012-09-02T10:25:31Z</time>
      </trkpt>
      <trkpt lat="45.69133" lon="2.9879">
        <ele>917.33984</ele>
        <time>2012-09-02T10:25:34Z</time>
      </trkpt>
      <trkpt lat="45.69119" lon="2.98813">
        <ele>918.1391</ele>
        <time>2012-09-02T10:25:38Z</time>
      </trkpt>
      <trkpt lat="45.6911" lon="2.98837">
        <ele>919.07556</ele>
        <time>2012-09-02T10:25:42Z</time>
      </trkpt>
      <trkpt lat="45.69103" lon="2.98865">
        <ele>919.1218</ele>
        <time>2012-09-02T10:25:46Z</time>
      </trkpt>
      <trkpt lat="45.691" lon="2.98895">
        <ele>918.7029</ele>
        <time>2012-09-02T10:25:50Z</time>
      </trkpt>
      <trkpt lat="45.69101" lon="2.98927">
        <ele>918.5704</ele>
        <time>2012-09-02T10:25:54Z</time>
      </trkpt>
      <trkpt lat="45.69109" lon="2.98957">
        <ele>918.52844</ele>
        <time>2012-09-02T10:25:58Z</time>
      </trkpt>
      <trkpt lat="45.69121" lon="2.9898">
        <ele>919.1987</ele>
        <time>2012-09-02T10:26:02Z</time>
      </trkpt>
      <trkpt lat="45.69133" lon="2.99002">
        <ele>919.4108</ele>
        <time>2012-09-02T10:26:06Z</time>
      </trkpt>
      <trkpt lat="45.69147" lon="2.99023">
        <ele>919.47797</ele>
        <time>2012-09-02T10:26:10Z</time>
      </trkpt>
      <trkpt lat="45.69161" lon="2.99045">
        <ele>918.921</ele>
        <time>2012-09-02T10:26:14Z</time>
      </trkpt>
      <trkpt lat="45.69175" lon="2.99064">
        <ele>918.6394</ele>
        <time>2012-09-02T10:26:18Z</time>
      </trkpt>
      <trkpt lat="45.69186" lon="2.99086">
        <ele>918.55023</ele>
        <time>2012-09-02T10:26:22Z</time>
      </trkpt>
      <trkpt lat="45.69193" lon="2.99111">
        <ele>918.52203</ele>
        <time>2012-09-02T10:26:26Z</time>
      </trkpt>
      <trkpt lat="45.69198" lon="2.99137">
        <ele>918.5131</ele>
        <time>2012-09-02T10:26:30Z</time>
      </trkpt>
      <trkpt lat="45.692" lon="2.99163">
        <ele>918.5103</ele>
        <time>2012-09-02T10:26:34Z</time>
      </trkpt>
      <trkpt lat="45.69202" lon="2.99191">
        <ele>918.5094</ele>
        <time>2012-09-02T10:26:38Z</time>
      </trkpt>
      <trkpt lat="45.69205" lon="2.99219">
        <ele>918.94666</ele>
        <time>2012-09-02T10:26:42Z</time>
      </trkpt>
      <trkpt lat="45.69212" lon="2.99249">
        <ele>919.76855</ele>
        <time>2012-09-02T10:26:46Z</time>
      </trkpt>
      <trkpt lat="45.6922" lon="2.99272">
        <ele>920.88416</ele>
        <time>2012-09-02T10:26:49Z</time>
      </trkpt>
      <trkpt lat="45.69233" lon="2.993">
        <ele>923.0105</ele>
        <time>2012-09-02T10:26:53Z</time>
      </trkpt>
      <trkpt lat="45.69246" lon="2.99326">
        <ele>924.71844</ele>
        <time>2012-09-02T10:26:57Z</time>
      </trkpt>
      <trkpt lat="45.69258" lon="2.99352">
        <ele>925.00885</ele>
        <time>2012-09-02T10:27:01Z</time>
      </trkpt>
      <trkpt lat="45.69269" lon="2.99375">
        <ele>924.4699</ele>
        <time>2012-09-02T10:27:04Z</time>
      </trkpt>
      <trkpt lat="45.69281" lon="2.99399">
        <ele>923.91437</ele>
        <time>2012-09-02T10:27:07Z</time>
      </trkpt>
      <trkpt lat="45.69294" lon="2.9942">
        <ele>923.10187</ele>
        <time>2012-09-02T10:27:10Z</time>
      </trkpt>
      <trkpt lat="45.69311" lon="2.99442">
        <ele>922.2591</ele>
        <time>2012-09-02T10:27:14Z</time>
      </trkpt>
      <trkpt lat="45.6933" lon="2.99459">
        <ele>921.687</ele>
        <time>2012-09-02T10:27:19Z</time>
      </trkpt>
      <trkpt lat="45.6935" lon="2.99474">
        <ele>921.5653</ele>
        <time>2012-09-02T10:27:23Z</time>
      </trkpt>
      <trkpt lat="45.69365" lon="2.99498">
        <ele>921.5268</ele>
        <time>2012-09-02T10:27:27Z</time>
      </trkpt>
      <trkpt lat="45.69379" lon="2.99523">
        <ele>921.76465</ele>
        <time>2012-09-02T10:27:31Z</time>
      </trkpt>
      <trkpt lat="45.69392" lon="2.99547">
        <ele>921.5899</ele>
        <time>2012-09-02T10:27:35Z</time>
      </trkpt>
      <trkpt lat="45.69409" lon="2.99558">
        <ele>921.5346</ele>
        <time>2012-09-02T10:27:39Z</time>
      </trkpt>
      <trkpt lat="45.69434" lon="2.99562">
        <ele>921.50934</ele>
        <time>2012-09-02T10:27:54Z</time>
      </trkpt>
      <trkpt lat="45.69454" lon="2.9956">
        <ele>921.50903</ele>
        <time>2012-09-02T10:28:02Z</time>
      </trkpt>
      <trkpt lat="45.69474" lon="2.99562">
        <ele>920.74634</ele>
        <time>2012-09-02T10:28:08Z</time>
      </trkpt>
      <trkpt lat="45.69489" lon="2.99581">
        <ele>919.2245</ele>
        <time>2012-09-02T10:28:13Z</time>
      </trkpt>
      <trkpt lat="45.69477" lon="2.99605">
        <ele>917.917</ele>
        <time>2012-09-02T10:28:20Z</time>
      </trkpt>
      <trkpt lat="45.69457" lon="2.99616">
        <ele>915.6889</ele>
        <time>2012-09-02T10:28:24Z</time>
      </trkpt>
      <trkpt lat="45.69439" lon="2.99633">
        <ele>913.3706</ele>
        <time>2012-09-02T10:28:28Z</time>
      </trkpt>
      <trkpt lat="45.69424" lon="2.99654">
        <ele>911.5199</ele>
        <time>2012-09-02T10:28:32Z</time>
      </trkpt>
      <trkpt lat="45.69408" lon="2.99676">
        <ele>910.0053</ele>
        <time>2012-09-02T10:28:38Z</time>
      </trkpt>
      <trkpt lat="45.69391" lon="2.99691">
        <ele>908.83466</ele>
        <time>2012-09-02T10:28:44Z</time>
      </trkpt>
      <trkpt lat="45.69374" lon="2.99704">
        <ele>908.5863</ele>
        <time>2012-09-02T10:28:49Z</time>
      </trkpt>
      <trkpt lat="45.69377" lon="2.99729">
        <ele>907.64685</ele>
        <time>2012-09-02T10:28:59Z</time>
      </trkpt>
      <trkpt lat="45.69395" lon="2.9974">
        <ele>907.5168</ele>
        <time>2012-09-02T10:29:09Z</time>
      </trkpt>
      <trkpt lat="45.6941" lon="2.99755">
        <ele>907.50977</ele>
        <time>2012-09-02T10:29:17Z</time>
      </trkpt>
      <trkpt lat="45.69423" lon="2.99789">
        <ele>908.47736</ele>
        <time>2012-09-02T10:29:30Z</time>
      </trkpt>
      <trkpt lat="45.69433" lon="2.99817">
        <ele>909.3287</ele>
        <time>2012-09-02T10:29:39Z</time>
      </trkpt>
      <trkpt lat="45.69448" lon="2.9985">
        <ele>910.4282</ele>
        <time>2012-09-02T10:29:51Z</time>
      </trkpt>
      <trkpt lat="45.69455" lon="2.99875">
        <ele>911.2636</ele>
        <time>2012-09-02T10:29:59Z</time>
      </trkpt>
      <trkpt lat="45.6946" lon="2.99903">
        <ele>912.3571</ele>
        <time>2012-09-02T10:30:08Z</time>
      </trkpt>
      <trkpt lat="45.69466" lon="2.99931">
        <ele>913.57245</ele>
        <time>2012-09-02T10:30:18Z</time>
      </trkpt>
      <trkpt lat="45.69469" lon="2.99957">
        <ele>915.9214</ele>
        <time>2012-09-02T10:30:33Z</time>
      </trkpt>
      <trkpt lat="45.69461" lon="2.9998">
        <ele>918.6744</ele>
        <time>2012-09-02T10:30:47Z</time>
      </trkpt>
      <trkpt lat="45.69449" lon="3.00004">
        <ele>920.5903</ele>
        <time>2012-09-02T10:30:58Z</time>
      </trkpt>
      <trkpt lat="45.69439" lon="3.0003">
        <ele>922.7793</ele>
        <time>2012-09-02T10:31:08Z</time>
      </trkpt>
      <trkpt lat="45.69426" lon="3.00051">
        <ele>926.30566</ele>
        <time>2012-09-02T10:31:18Z</time>
      </trkpt>
      <trkpt lat="45.69413" lon="3.00075">
        <ele>928.43134</ele>
        <time>2012-09-02T10:31:27Z</time>
      </trkpt>
      <trkpt lat="45.69401" lon="3.00101">
        <ele>930.04877</ele>
        <time>2012-09-02T10:31:34Z</time>
      </trkpt>
      <trkpt lat="45.69389" lon="3.00122">
        <ele>930.4831</ele>
        <time>2012-09-02T10:31:44Z</time>
      </trkpt>
      <trkpt lat="45.69376" lon="3.00143">
        <ele>930.5082</ele>
        <time>2012-09-02T10:31:56Z</time>
      </trkpt>
      <trkpt lat="45.69358" lon="3.00141">
        <ele>931.3754</ele>
        <time>2012-09-02T10:32:04Z</time>
      </trkpt>
      <trkpt lat="45.69339" lon="3.00139">
        <ele>932.3655</ele>
        <time>2012-09-02T10:32:13Z</time>
      </trkpt>
      <trkpt lat="45.69321" lon="3.00131">
        <ele>935.0971</ele>
        <time>2012-09-02T10:32:27Z</time>
      </trkpt>
      <trkpt lat="45.69303" lon="3.00131">
        <ele>936.5035</ele>
        <time>2012-09-02T10:32:47Z</time>
      </trkpt>
      <trkpt lat="45.69286" lon="3.00143">
        <ele>936.5084</ele>
        <time>2012-09-02T10:32:55Z</time>
      </trkpt>
      <trkpt lat="45.69271" lon="3.00159">
        <ele>938.03076</ele>
        <time>2012-09-02T10:33:05Z</time>
      </trkpt>
      <trkpt lat="45.69257" lon="3.00178">
        <ele>939.9601</ele>
        <time>2012-09-02T10:33:15Z</time>
      </trkpt>
      <trkpt lat="45.69243" lon="3.00197">
        <ele>941.50775</ele>
        <time>2012-09-02T10:33:22Z</time>
      </trkpt>
      <trkpt lat="45.69225" lon="3.00225">
        <ele>942.66473</ele>
        <time>2012-09-02T10:33:25Z</time>
      </trkpt>
      <trkpt lat="45.69206" lon="3.00249">
        <ele>943.15283</ele>
        <time>2012-09-02T10:33:28Z</time>
      </trkpt>
      <trkpt lat="45.69193" lon="3.00277">
        <ele>943.35876</ele>
        <time>2012-09-02T10:33:31Z</time>
      </trkpt>
      <trkpt lat="45.69186" lon="3.00304">
        <ele>943.8831</ele>
        <time>2012-09-02T10:33:34Z</time>
      </trkpt>
      <trkpt lat="45.6918" lon="3.00337">
        <ele>944.68243</ele>
        <time>2012-09-02T10:33:37Z</time>
      </trkpt>
      <trkpt lat="45.69171" lon="3.00367">
        <ele>944.7228</ele>
        <time>2012-09-02T10:33:40Z</time>
      </trkpt>
      <trkpt lat="45.69156" lon="3.0039">
        <ele>944.1617</ele>
        <time>2012-09-02T10:33:43Z</time>
      </trkpt>
      <trkpt lat="45.69131" lon="3.00399">
        <ele>943.34686</ele>
        <time>2012-09-02T10:33:46Z</time>
      </trkpt>
      <trkpt lat="45.69106" lon="3.00399">
        <ele>942.8625</ele>
        <time>2012-09-02T10:33:49Z</time>
      </trkpt>
      <trkpt lat="45.69083" lon="3.00401">
        <ele>943.09564</ele>
        <time>2012-09-02T10:33:52Z</time>
      </trkpt>
      <trkpt lat="45.69058" lon="3.00412">
        <ele>943.4538</ele>
        <time>2012-09-02T10:33:59Z</time>
      </trkpt>
      <trkpt lat="45.69037" lon="3.00414">
        <ele>942.7408</ele>
        <time>2012-09-02T10:34:07Z</time>
      </trkpt>
      <trkpt lat="45.69014" lon="3.00416">
        <ele>942.80023</ele>
        <time>2012-09-02T10:34:13Z</time>
      </trkpt>
      <trkpt lat="45.68995" lon="3.00422">
        <ele>943.68805</ele>
        <time>2012-09-02T10:34:21Z</time>
      </trkpt>
      <trkpt lat="45.68972" lon="3.00429">
        <ele>945.1895</ele>
        <time>2012-09-02T10:34:29Z</time>
      </trkpt>
      <trkpt lat="45.68952" lon="3.00431">
        <ele>946.13574</ele>
        <time>2012-09-02T10:34:35Z</time>
      </trkpt>
      <trkpt lat="45.68931" lon="3.00431">
        <ele>947.219</ele>
        <time>2012-09-02T10:34:39Z</time>
      </trkpt>
      <trkpt lat="45.68911" lon="3.00433">
        <ele>947.9648</ele>
        <time>2012-09-02T10:34:42Z</time>
      </trkpt>
      <trkpt lat="45.68892" lon="3.00437">
        <ele>948.0294</ele>
        <time>2012-09-02T10:34:45Z</time>
      </trkpt>
      <trkpt lat="45.68872" lon="3.00442">
        <ele>947.2911</ele>
        <time>2012-09-02T10:34:48Z</time>
      </trkpt>
      <trkpt lat="45.68851" lon="3.00448">
        <ele>946.0108</ele>
        <time>2012-09-02T10:34:51Z</time>
      </trkpt>
      <trkpt lat="45.6883" lon="3.00452">
        <ele>944.12695</ele>
        <time>2012-09-02T10:34:54Z</time>
      </trkpt>
      <trkpt lat="45.68808" lon="3.0045">
        <ele>942.7541</ele>
        <time>2012-09-02T10:34:57Z</time>
      </trkpt>
      <trkpt lat="45.68789" lon="3.00444">
        <ele>941.59674</ele>
        <time>2012-09-02T10:35:00Z</time>
      </trkpt>
      <trkpt lat="45.68769" lon="3.00437">
        <ele>940.3898</ele>
        <time>2012-09-02T10:35:03Z</time>
      </trkpt>
      <trkpt lat="45.68749" lon="3.00429">
        <ele>939.88055</ele>
        <time>2012-09-02T10:35:06Z</time>
      </trkpt>
      <trkpt lat="45.68724" lon="3.0042">
        <ele>938.83765</ele>
        <time>2012-09-02T10:35:09Z</time>
      </trkpt>
      <trkpt lat="45.68704" lon="3.00414">
        <ele>938.00635</ele>
        <time>2012-09-02T10:35:11Z</time>
      </trkpt>
      <trkpt lat="45.68684" lon="3.00416">
        <ele>937.10126</ele>
        <time>2012-09-02T10:35:13Z</time>
      </trkpt>
      <trkpt lat="45.68666" lon="3.0042">
        <ele>936.40466</ele>
        <time>2012-09-02T10:35:15Z</time>
      </trkpt>
      <trkpt lat="45.68646" lon="3.0042">
        <ele>935.3087</ele>
        <time>2012-09-02T10:35:18Z</time>
      </trkpt>
      <trkpt lat="45.68626" lon="3.00418">
        <ele>934.3714</ele>
        <time>2012-09-02T10:35:22Z</time>
      </trkpt>
      <trkpt lat="45.68609" lon="3.0041">
        <ele>933.53186</ele>
        <time>2012-09-02T10:35:26Z</time>
      </trkpt>
      <trkpt lat="45.68593" lon="3.00397">
        <ele>933.27014</ele>
        <time>2012-09-02T10:35:30Z</time>
      </trkpt>
      <trkpt lat="45.6857" lon="3.00386">
        <ele>933.4911</ele>
        <time>2012-09-02T10:35:39Z</time>
      </trkpt>
      <trkpt lat="45.6855" lon="3.00371">
        <ele>934.1902</ele>
        <time>2012-09-02T10:35:46Z</time>
      </trkpt>
      <trkpt lat="45.68534" lon="3.00352">
        <ele>934.4523</ele>
        <time>2012-09-02T10:35:52Z</time>
      </trkpt>
      <trkpt lat="45.68518" lon="3.00332">
        <ele>934.7514</ele>
        <time>2012-09-02T10:35:59Z</time>
      </trkpt>
      <trkpt lat="45.68503" lon="3.00309">
        <ele>936.19586</ele>
        <time>2012-09-02T10:36:07Z</time>
      </trkpt>
      <trkpt lat="45.68484" lon="3.00294">
        <ele>936.4672</ele>
        <time>2012-09-02T10:36:14Z</time>
      </trkpt>
      <trkpt lat="45.68468" lon="3.0027">
        <ele>935.8198</ele>
        <time>2012-09-02T10:36:21Z</time>
      </trkpt>
      <trkpt lat="45.68451" lon="3.00251">
        <ele>934.7774</ele>
        <time>2012-09-02T10:36:29Z</time>
      </trkpt>
      <trkpt lat="45.68435" lon="3.00236">
        <ele>934.55676</ele>
        <time>2012-09-02T10:36:35Z</time>
      </trkpt>
      <trkpt lat="45.68417" lon="3.00223">
        <ele>935.2802</ele>
        <time>2012-09-02T10:36:41Z</time>
      </trkpt>
      <trkpt lat="45.68397" lon="3.00216">
        <ele>936.5581</ele>
        <time>2012-09-02T10:36:49Z</time>
      </trkpt>
      <trkpt lat="45.68378" lon="3.00214">
        <ele>938.8454</ele>
        <time>2012-09-02T10:37:01Z</time>
      </trkpt>
      <trkpt lat="45.68354" lon="3.00216">
        <ele>942.45966</ele>
        <time>2012-09-02T10:37:09Z</time>
      </trkpt>
      <trkpt lat="45.68336" lon="3.00193">
        <ele>946.3163</ele>
        <time>2012-09-02T10:37:12Z</time>
      </trkpt>
      <trkpt lat="45.68319" lon="3.00171">
        <ele>949.42773</ele>
        <time>2012-09-02T10:37:15Z</time>
      </trkpt>
      <trkpt lat="45.683" lon="3.00152">
        <ele>951.2091</ele>
        <time>2012-09-02T10:37:18Z</time>
      </trkpt>
      <trkpt lat="45.68277" lon="3.00137">
        <ele>951.9606</ele>
        <time>2012-09-02T10:37:21Z</time>
      </trkpt>
      <trkpt lat="45.6825" lon="3.00131">
        <ele>951.4495</ele>
        <time>2012-09-02T10:37:24Z</time>
      </trkpt>
      <trkpt lat="45.68228" lon="3.00126">
        <ele>949.64014</ele>
        <time>2012-09-02T10:37:27Z</time>
      </trkpt>
      <trkpt lat="45.6821" lon="3.00116">
        <ele>947.9706</ele>
        <time>2012-09-02T10:37:30Z</time>
      </trkpt>
      <trkpt lat="45.68194" lon="3.00098">
        <ele>946.2975</ele>
        <time>2012-09-02T10:37:33Z</time>
      </trkpt>
      <trkpt lat="45.68177" lon="3.00086">
        <ele>945.0135</ele>
        <time>2012-09-02T10:37:36Z</time>
      </trkpt>
      <trkpt lat="45.68155" lon="3.00083">
        <ele>943.45624</ele>
        <time>2012-09-02T10:37:39Z</time>
      </trkpt>
      <trkpt lat="45.68132" lon="3.00081">
        <ele>941.3149</ele>
        <time>2012-09-02T10:37:42Z</time>
      </trkpt>
      <trkpt lat="45.68108" lon="3.00077">
        <ele>939.44275</ele>
        <time>2012-09-02T10:37:45Z</time>
      </trkpt>
      <trkpt lat="45.68085" lon="3.00075">
        <ele>937.49664</ele>
        <time>2012-09-02T10:37:48Z</time>
      </trkpt>
      <trkpt lat="45.68063" lon="3.00071">
        <ele>935.5194</ele>
        <time>2012-09-02T10:37:51Z</time>
      </trkpt>
      <trkpt lat="45.6804" lon="3.00068">
        <ele>933.3415</ele>
        <time>2012-09-02T10:37:54Z</time>
      </trkpt>
      <trkpt lat="45.6802" lon="3.00071">
        <ele>931.454</ele>
        <time>2012-09-02T10:37:57Z</time>
      </trkpt>
      <trkpt lat="45.68002" lon="3.00079">
        <ele>929.6869</ele>
        <time>2012-09-02T10:38:01Z</time>
      </trkpt>
      <trkpt lat="45.67984" lon="3.00096">
        <ele>928.5385</ele>
        <time>2012-09-02T10:38:06Z</time>
      </trkpt>
      <trkpt lat="45.6797" lon="3.00116">
        <ele>927.3158</ele>
        <time>2012-09-02T10:38:11Z</time>
      </trkpt>
      <trkpt lat="45.67956" lon="3.00137">
        <ele>926.07446</ele>
        <time>2012-09-02T10:38:17Z</time>
      </trkpt>
      <trkpt lat="45.67946" lon="3.00159">
        <ele>924.926</ele>
        <time>2012-09-02T10:38:23Z</time>
      </trkpt>
      <trkpt lat="45.67935" lon="3.00184">
        <ele>923.7881</ele>
        <time>2012-09-02T10:38:31Z</time>
      </trkpt>
      <trkpt lat="45.6792" lon="3.00206">
        <ele>922.7027</ele>
        <time>2012-09-02T10:38:41Z</time>
      </trkpt>
      <trkpt lat="45.67905" lon="3.00225">
        <ele>921.72144</ele>
        <time>2012-09-02T10:38:47Z</time>
      </trkpt>
      <trkpt lat="45.67895" lon="3.00249">
        <ele>920.8632</ele>
        <time>2012-09-02T10:38:53Z</time>
      </trkpt>
      <trkpt lat="45.67886" lon="3.00274">
        <ele>920.5563</ele>
        <time>2012-09-02T10:39:00Z</time>
      </trkpt>
      <trkpt lat="45.67872" lon="3.00292">
        <ele>918.821</ele>
        <time>2012-09-02T10:39:05Z</time>
      </trkpt>
      <trkpt lat="45.67851" lon="3.00287">
        <ele>916.3741</ele>
        <time>2012-09-02T10:39:10Z</time>
      </trkpt>
      <trkpt lat="45.67833" lon="3.00281">
        <ele>915.7827</ele>
        <time>2012-09-02T10:39:14Z</time>
      </trkpt>
      <trkpt lat="45.67814" lon="3.00274">
        <ele>915.62445</ele>
        <time>2012-09-02T10:39:17Z</time>
      </trkpt>
      <trkpt lat="45.67789" lon="3.00268">
        <ele>915.55774</ele>
        <time>2012-09-02T10:39:20Z</time>
      </trkpt>
      <trkpt lat="45.67764" lon="3.00261">
        <ele>915.09204</ele>
        <time>2012-09-02T10:39:23Z</time>
      </trkpt>
      <trkpt lat="45.67745" lon="3.00251">
        <ele>914.3175</ele>
        <time>2012-09-02T10:39:26Z</time>
      </trkpt>
      <trkpt lat="45.67733" lon="3.00225">
        <ele>912.9367</ele>
        <time>2012-09-02T10:39:30Z</time>
      </trkpt>
      <trkpt lat="45.67734" lon="3.00195">
        <ele>911.6738</ele>
        <time>2012-09-02T10:39:33Z</time>
      </trkpt>
      <trkpt lat="45.67735" lon="3.00161">
        <ele>910.4223</ele>
        <time>2012-09-02T10:39:36Z</time>
      </trkpt>
      <trkpt lat="45.67738" lon="3.00124">
        <ele>909.6443</ele>
        <time>2012-09-02T10:39:39Z</time>
      </trkpt>
      <trkpt lat="45.67739" lon="3.00098">
        <ele>909.1476</ele>
        <time>2012-09-02T10:39:41Z</time>
      </trkpt>
      <trkpt lat="45.67738" lon="3.00071">
        <ele>908.4307</ele>
        <time>2012-09-02T10:39:43Z</time>
      </trkpt>
      <trkpt lat="45.67735" lon="3.00043">
        <ele>908.02747</ele>
        <time>2012-09-02T10:39:45Z</time>
      </trkpt>
      <trkpt lat="45.67734" lon="3.00017">
        <ele>907.80066</ele>
        <time>2012-09-02T10:39:47Z</time>
      </trkpt>
      <trkpt lat="45.67735" lon="2.99991">
        <ele>907.67303</ele>
        <time>2012-09-02T10:39:49Z</time>
      </trkpt>
      <trkpt lat="45.6774" lon="2.99957">
        <ele>907.00006</ele>
        <time>2012-09-02T10:39:52Z</time>
      </trkpt>
      <trkpt lat="45.67744" lon="2.99922">
        <ele>906.4662</ele>
        <time>2012-09-02T10:39:55Z</time>
      </trkpt>
      <trkpt lat="45.6775" lon="2.9989">
        <ele>905.9128</ele>
        <time>2012-09-02T10:39:58Z</time>
      </trkpt>
      <trkpt lat="45.67759" lon="2.99858">
        <ele>905.10126</ele>
        <time>2012-09-02T10:40:01Z</time>
      </trkpt>
      <trkpt lat="45.67771" lon="2.99826">
        <ele>904.75885</ele>
        <time>2012-09-02T10:40:04Z</time>
      </trkpt>
      <trkpt lat="45.67782" lon="2.99802">
        <ele>904.1769</ele>
        <time>2012-09-02T10:40:07Z</time>
      </trkpt>
      <trkpt lat="45.67773" lon="2.99779">
        <ele>903.59814</ele>
        <time>2012-09-02T10:40:14Z</time>
      </trkpt>
      <trkpt lat="45.67776" lon="2.99753">
        <ele>902.84973</ele>
        <time>2012-09-02T10:40:18Z</time>
      </trkpt>
      <trkpt lat="45.6778" lon="2.99723">
        <ele>899.984</ele>
        <time>2012-09-02T10:40:22Z</time>
      </trkpt>
      <trkpt lat="45.67794" lon="2.99693">
        <ele>896.15576</ele>
        <time>2012-09-02T10:40:33Z</time>
      </trkpt>
      <trkpt lat="45.67779" lon="2.99674">
        <ele>892.83624</ele>
        <time>2012-09-02T10:40:41Z</time>
      </trkpt>
      <trkpt lat="45.67761" lon="2.99663">
        <ele>888.30786</ele>
        <time>2012-09-02T10:40:45Z</time>
      </trkpt>
      <trkpt lat="45.67747" lon="2.99641">
        <ele>879.0782</ele>
        <time>2012-09-02T10:40:49Z</time>
      </trkpt>
      <trkpt lat="45.67733" lon="2.99622">
        <ele>871.7047</ele>
        <time>2012-09-02T10:40:53Z</time>
      </trkpt>
      <trkpt lat="45.67715" lon="2.99607">
        <ele>864.95483</ele>
        <time>2012-09-02T10:40:58Z</time>
      </trkpt>
      <trkpt lat="45.677" lon="2.9959">
        <ele>861.93164</ele>
        <time>2012-09-02T10:41:04Z</time>
      </trkpt>
      <trkpt lat="45.67684" lon="2.99568">
        <ele>860.9591</ele>
        <time>2012-09-02T10:41:08Z</time>
      </trkpt>
      <trkpt lat="45.67664" lon="2.99547">
        <ele>861.22955</ele>
        <time>2012-09-02T10:41:12Z</time>
      </trkpt>
      <trkpt lat="45.67644" lon="2.99545">
        <ele>864.0495</ele>
        <time>2012-09-02T10:41:16Z</time>
      </trkpt>
      <trkpt lat="45.67635" lon="2.99517">
        <ele>864.04156</ele>
        <time>2012-09-02T10:41:21Z</time>
      </trkpt>
      <trkpt lat="45.67622" lon="2.99495">
        <ele>863.5623</ele>
        <time>2012-09-02T10:41:29Z</time>
      </trkpt>
      <trkpt lat="45.67611" lon="2.99472">
        <ele>862.8381</ele>
        <time>2012-09-02T10:41:34Z</time>
      </trkpt>
      <trkpt lat="45.67597" lon="2.9944">
        <ele>861.76483</ele>
        <time>2012-09-02T10:41:44Z</time>
      </trkpt>
      <trkpt lat="45.67583" lon="2.99418">
        <ele>860.7719</ele>
        <time>2012-09-02T10:41:52Z</time>
      </trkpt>
      <trkpt lat="45.67566" lon="2.99397">
        <ele>860.29407</ele>
        <time>2012-09-02T10:41:59Z</time>
      </trkpt>
      <trkpt lat="45.67552" lon="2.9938">
        <ele>859.6953</ele>
        <time>2012-09-02T10:42:04Z</time>
      </trkpt>
      <trkpt lat="45.6754" lon="2.99354">
        <ele>859.5422</ele>
        <time>2012-09-02T10:42:10Z</time>
      </trkpt>
      <trkpt lat="45.67534" lon="2.99326">
        <ele>859.5149</ele>
        <time>2012-09-02T10:42:16Z</time>
      </trkpt>
      <trkpt lat="45.67532" lon="2.99298">
        <ele>859.5096</ele>
        <time>2012-09-02T10:42:24Z</time>
      </trkpt>
      <trkpt lat="45.67532" lon="2.99266">
        <ele>858.49634</ele>
        <time>2012-09-02T10:42:32Z</time>
      </trkpt>
      <trkpt lat="45.67518" lon="2.99247">
        <ele>854.1964</ele>
        <time>2012-09-02T10:42:37Z</time>
      </trkpt>
      <trkpt lat="45.67497" lon="2.99221">
        <ele>846.6323</ele>
        <time>2012-09-02T10:42:53Z</time>
      </trkpt>
      <trkpt lat="45.67476" lon="2.99212">
        <ele>848.8215</ele>
        <time>2012-09-02T10:43:34Z</time>
      </trkpt>
      <trkpt lat="45.67451" lon="2.99208">
        <ele>850.6586</ele>
        <time>2012-09-02T10:43:38Z</time>
      </trkpt>
      <trkpt lat="45.67433" lon="2.99197">
        <ele>851.81805</ele>
        <time>2012-09-02T10:43:42Z</time>
      </trkpt>
      <trkpt lat="45.67416" lon="2.9921">
        <ele>852.9925</ele>
        <time>2012-09-02T10:43:53Z</time>
      </trkpt>
      <trkpt lat="45.67404" lon="2.99236">
        <ele>852.662</ele>
        <time>2012-09-02T10:43:57Z</time>
      </trkpt>
      <trkpt lat="45.67389" lon="2.99255">
        <ele>851.7454</ele>
        <time>2012-09-02T10:44:00Z</time>
      </trkpt>
      <trkpt lat="45.67378" lon="2.99285">
        <ele>849.6385</ele>
        <time>2012-09-02T10:44:04Z</time>
      </trkpt>
      <trkpt lat="45.67375" lon="2.99311">
        <ele>848.8664</ele>
        <time>2012-09-02T10:44:08Z</time>
      </trkpt>
      <trkpt lat="45.67349" lon="2.9932">
        <ele>847.5407</ele>
        <time>2012-09-02T10:44:44Z</time>
      </trkpt>
      <trkpt lat="45.67321" lon="2.99307">
        <ele>846.6909</ele>
        <time>2012-09-02T10:44:48Z</time>
      </trkpt>
      <trkpt lat="45.67304" lon="2.99287">
        <ele>845.44543</ele>
        <time>2012-09-02T10:44:52Z</time>
      </trkpt>
      <trkpt lat="45.67293" lon="2.99266">
        <ele>844.1531</ele>
        <time>2012-09-02T10:44:57Z</time>
      </trkpt>
      <trkpt lat="45.67279" lon="2.99242">
        <ele>842.6492</ele>
        <time>2012-09-02T10:45:02Z</time>
      </trkpt>
      <trkpt lat="45.67268" lon="2.99219">
        <ele>841.34204</ele>
        <time>2012-09-02T10:45:07Z</time>
      </trkpt>
      <trkpt lat="45.67256" lon="2.99197">
        <ele>840.12854</ele>
        <time>2012-09-02T10:45:12Z</time>
      </trkpt>
      <trkpt lat="45.67244" lon="2.99176">
        <ele>839.0779</ele>
        <time>2012-09-02T10:45:17Z</time>
      </trkpt>
      <trkpt lat="45.67225" lon="2.99148">
        <ele>838.533</ele>
        <time>2012-09-02T10:45:28Z</time>
      </trkpt>
      <trkpt lat="45.67211" lon="2.99126">
        <ele>838.5133</ele>
        <time>2012-09-02T10:45:34Z</time>
      </trkpt>
      <trkpt lat="45.67189" lon="2.99101">
        <ele>840.53894</ele>
        <time>2012-09-02T10:45:45Z</time>
      </trkpt>
      <trkpt lat="45.67175" lon="2.99083">
        <ele>842.5631</ele>
        <time>2012-09-02T10:45:52Z</time>
      </trkpt>
      <trkpt lat="45.67158" lon="2.99066">
        <ele>844.7408</ele>
        <time>2012-09-02T10:45:58Z</time>
      </trkpt>
      <trkpt lat="45.6714" lon="2.99056">
        <ele>846.832</ele>
        <time>2012-09-02T10:46:06Z</time>
      </trkpt>
      <trkpt lat="45.67155" lon="2.99081">
        <ele>852.20056</ele>
        <time>2012-09-02T10:46:22Z</time>
      </trkpt>
      <trkpt lat="45.67175" lon="2.99103">
        <ele>856.43665</ele>
        <time>2012-09-02T10:46:34Z</time>
      </trkpt>
      <trkpt lat="45.67193" lon="2.99116">
        <ele>859.0642</ele>
        <time>2012-09-02T10:46:42Z</time>
      </trkpt>
      <trkpt lat="45.67203" lon="2.99141">
        <ele>860.4339</ele>
        <time>2012-09-02T10:47:15Z</time>
      </trkpt>
      <trkpt lat="45.67217" lon="2.99163">
        <ele>860.9227</ele>
        <time>2012-09-02T10:47:19Z</time>
      </trkpt>
      <trkpt lat="45.67231" lon="2.99184">
        <ele>861.3699</ele>
        <time>2012-09-02T10:47:24Z</time>
      </trkpt>
      <trkpt lat="45.67239" lon="2.99208">
        <ele>860.13916</ele>
        <time>2012-09-02T10:47:37Z</time>
      </trkpt>
      <trkpt lat="45.67237" lon="2.99236">
        <ele>857.50586</ele>
        <time>2012-09-02T10:47:48Z</time>
      </trkpt>
      <trkpt lat="45.67224" lon="2.99264">
        <ele>855.7085</ele>
        <time>2012-09-02T10:47:55Z</time>
      </trkpt>
      <trkpt lat="45.67204" lon="2.99279">
        <ele>854.4725</ele>
        <time>2012-09-02T10:48:01Z</time>
      </trkpt>
      <trkpt lat="45.67186" lon="2.99294">
        <ele>853.1595</ele>
        <time>2012-09-02T10:48:06Z</time>
      </trkpt>
      <trkpt lat="45.67169" lon="2.99304">
        <ele>852.1367</ele>
        <time>2012-09-02T10:48:10Z</time>
      </trkpt>
      <trkpt lat="45.67151" lon="2.99313">
        <ele>851.4576</ele>
        <time>2012-09-02T10:48:14Z</time>
      </trkpt>
      <trkpt lat="45.67131" lon="2.99302">
        <ele>850.48413</ele>
        <time>2012-09-02T10:48:19Z</time>
      </trkpt>
      <trkpt lat="45.67125" lon="2.99277">
        <ele>849.3139</ele>
        <time>2012-09-02T10:48:29Z</time>
      </trkpt>
      <trkpt lat="45.67123" lon="2.99244">
        <ele>847.72095</ele>
        <time>2012-09-02T10:48:40Z</time>
      </trkpt>
      <trkpt lat="45.67129" lon="2.99206">
        <ele>846.5246</ele>
        <time>2012-09-02T10:48:47Z</time>
      </trkpt>
      <trkpt lat="45.67131" lon="2.9918">
        <ele>844.7522</ele>
        <time>2012-09-02T10:48:51Z</time>
      </trkpt>
      <trkpt lat="45.67121" lon="2.99152">
        <ele>840.58594</ele>
        <time>2012-09-02T10:48:55Z</time>
      </trkpt>
      <trkpt lat="45.67104" lon="2.99129">
        <ele>837.97894</ele>
        <time>2012-09-02T10:48:58Z</time>
      </trkpt>
      <trkpt lat="45.67087" lon="2.99109">
        <ele>836.551</ele>
        <time>2012-09-02T10:49:01Z</time>
      </trkpt>
      <trkpt lat="45.67072" lon="2.9909">
        <ele>835.9486</ele>
        <time>2012-09-02T10:49:04Z</time>
      </trkpt>
      <trkpt lat="45.67056" lon="2.99068">
        <ele>835.6481</ele>
        <time>2012-09-02T10:49:08Z</time>
      </trkpt>
      <trkpt lat="45.67042" lon="2.99049">
        <ele>835.292</ele>
        <time>2012-09-02T10:49:13Z</time>
      </trkpt>
      <trkpt lat="45.67026" lon="2.9903">
        <ele>833.8667</ele>
        <time>2012-09-02T10:49:18Z</time>
      </trkpt>
      <trkpt lat="45.67006" lon="2.99013">
        <ele>831.9269</ele>
        <time>2012-09-02T10:49:22Z</time>
      </trkpt>
      <trkpt lat="45.66994" lon="2.98991">
        <ele>831.39514</ele>
        <time>2012-09-02T10:49:26Z</time>
      </trkpt>
      <trkpt lat="45.66991" lon="2.98965">
        <ele>830.7193</ele>
        <time>2012-09-02T10:49:31Z</time>
      </trkpt>
      <trkpt lat="45.66989" lon="2.98935">
        <ele>830.57556</ele>
        <time>2012-09-02T10:49:35Z</time>
      </trkpt>
      <trkpt lat="45.66998" lon="2.9891">
        <ele>830.8652</ele>
        <time>2012-09-02T10:49:38Z</time>
      </trkpt>
      <trkpt lat="45.6701" lon="2.98886">
        <ele>830.65924</ele>
        <time>2012-09-02T10:49:41Z</time>
      </trkpt>
      <trkpt lat="45.67018" lon="2.98856">
        <ele>831.1505</ele>
        <time>2012-09-02T10:49:44Z</time>
      </trkpt>
      <trkpt lat="45.67021" lon="2.98828">
        <ele>831.6078</ele>
        <time>2012-09-02T10:49:47Z</time>
      </trkpt>
      <trkpt lat="45.67022" lon="2.98796">
        <ele>832.4738</ele>
        <time>2012-09-02T10:49:51Z</time>
      </trkpt>
      <trkpt lat="45.67014" lon="2.9877">
        <ele>833.7596</ele>
        <time>2012-09-02T10:49:55Z</time>
      </trkpt>
      <trkpt lat="45.67012" lon="2.98742">
        <ele>834.509</ele>
        <time>2012-09-02T10:50:35Z</time>
      </trkpt>
      <trkpt lat="45.67003" lon="2.98714">
        <ele>834.509</ele>
        <time>2012-09-02T10:50:47Z</time>
      </trkpt>
      <trkpt lat="45.66997" lon="2.98684">
        <ele>835.44257</ele>
        <time>2012-09-02T10:50:54Z</time>
      </trkpt>
      <trkpt lat="45.66998" lon="2.98656">
        <ele>837.47424</ele>
        <time>2012-09-02T10:51:02Z</time>
      </trkpt>
      <trkpt lat="45.67002" lon="2.98626">
        <ele>839.3427</ele>
        <time>2012-09-02T10:51:14Z</time>
      </trkpt>
      <trkpt lat="45.67002" lon="2.98599">
        <ele>840.32166</ele>
        <time>2012-09-02T10:51:24Z</time>
      </trkpt>
      <trkpt lat="45.66993" lon="2.98568">
        <ele>841.2576</ele>
        <time>2012-09-02T10:51:33Z</time>
      </trkpt>
      <trkpt lat="45.66981" lon="2.98545">
        <ele>841.4901</ele>
        <time>2012-09-02T10:51:42Z</time>
      </trkpt>
      <trkpt lat="45.66963" lon="2.98532">
        <ele>842.32996</ele>
        <time>2012-09-02T10:51:52Z</time>
      </trkpt>
      <trkpt lat="45.66947" lon="2.98515">
        <ele>843.5038</ele>
        <time>2012-09-02T10:52:00Z</time>
      </trkpt>
      <trkpt lat="45.66932" lon="2.98493">
        <ele>845.6711</ele>
        <time>2012-09-02T10:52:08Z</time>
      </trkpt>
      <trkpt lat="45.66915" lon="2.98476">
        <ele>849.32544</ele>
        <time>2012-09-02T10:52:19Z</time>
      </trkpt>
      <trkpt lat="45.66899" lon="2.98459">
        <ele>851.23193</ele>
        <time>2012-09-02T10:52:25Z</time>
      </trkpt>
      <trkpt lat="45.66882" lon="2.98442">
        <ele>853.60126</ele>
        <time>2012-09-02T10:52:32Z</time>
      </trkpt>
      <trkpt lat="45.66866" lon="2.98429">
        <ele>856.1879</ele>
        <time>2012-09-02T10:52:39Z</time>
      </trkpt>
      <trkpt lat="45.66847" lon="2.9842">
        <ele>858.57697</ele>
        <time>2012-09-02T10:52:47Z</time>
      </trkpt>
      <trkpt lat="45.66829" lon="2.98405">
        <ele>862.17505</ele>
        <time>2012-09-02T10:52:51Z</time>
      </trkpt>
      <trkpt lat="45.66811" lon="2.98382">
        <ele>864.1025</ele>
        <time>2012-09-02T10:52:54Z</time>
      </trkpt>
      <trkpt lat="45.66793" lon="2.9836">
        <ele>865.7438</ele>
        <time>2012-09-02T10:52:57Z</time>
      </trkpt>
      <trkpt lat="45.66778" lon="2.98337">
        <ele>866.9518</ele>
        <time>2012-09-02T10:53:00Z</time>
      </trkpt>
      <trkpt lat="45.66766" lon="2.98313">
        <ele>867.2739</ele>
        <time>2012-09-02T10:53:03Z</time>
      </trkpt>
      <trkpt lat="45.66758" lon="2.9829">
        <ele>866.5817</ele>
        <time>2012-09-02T10:53:06Z</time>
      </trkpt>
      <trkpt lat="45.66756" lon="2.98262">
        <ele>865.71155</ele>
        <time>2012-09-02T10:53:09Z</time>
      </trkpt>
      <trkpt lat="45.66753" lon="2.98234">
        <ele>864.31134</ele>
        <time>2012-09-02T10:53:13Z</time>
      </trkpt>
      <trkpt lat="45.66739" lon="2.98214">
        <ele>863.5693</ele>
        <time>2012-09-02T10:53:22Z</time>
      </trkpt>
      <trkpt lat="45.66723" lon="2.98199">
        <ele>862.8361</ele>
        <time>2012-09-02T10:53:28Z</time>
      </trkpt>
      <trkpt lat="45.66705" lon="2.98182">
        <ele>862.5527</ele>
        <time>2012-09-02T10:53:35Z</time>
      </trkpt>
      <trkpt lat="45.66693" lon="2.98163">
        <ele>862.51935</ele>
        <time>2012-09-02T10:53:40Z</time>
      </trkpt>
      <trkpt lat="45.66681" lon="2.98141">
        <ele>861.68884</ele>
        <time>2012-09-02T10:53:46Z</time>
      </trkpt>
      <trkpt lat="45.66664" lon="2.98126">
        <ele>861.0895</ele>
        <time>2012-09-02T10:53:54Z</time>
      </trkpt>
    </trkseg>
  </trk>
</gpx>